[[{"header":{"parameterUnit":"m.s-1","parameterCategory":1,"la1":31.0,"la2":29.5877,"lo1":-88.7671,"lo2":-86.6584,"dy":0.0162,"dx":0.0185,"nx":115,"ny":88,"refTime":"2024-03-23T06:00:00:Z","depth":0,"parameterNumber":2,"parameterNumberName":"U-component_of_WINDS"},"data":[0.0,0.0,0.0,0.0,0.0,0.0,0.0,0.0,0.0,0.0,0.0,0.0,0.0,0.0,0.0,0.0,0.0,0.0,0.0,0.0,0.0,0.0,0.0,0.0,0.0,0.0,0.0,0.0,0.0,0.0,0.0,0.0,0.0,0.0,0.0,0.0,0.0,0.0,0.0,0.0,0.0,0.0,0.0,0.0,0.0,0.0,0.0,0.0,0.0,0.0,0.0,0.0,0.0,0.0,0.0,0.0,0.0,0.0,0.0,0.0,0.0,0.0,0.0,0.0,0.0,0.0,0.0,0.0,0.0,0.0,0.0,0.0,0.0,0.0,0.0,0.0,0.0,0.0,0.0,0.0,0.0,0.0,0.0,0.0,0.0,0.0,0.0,0.0,0.0,0.0,0.0,0.0,0.0,0.0,0.0,0.0,0.0,0.0,0.0,0.0,0.0,0.0,0.0,0.0,0.0,0.0,0.0,0.0,0.0,0.0,0.0,0.0,0.0,0.0,0.0,0.0,0.0,0.0,0.0,0.0,0.0,0.0,0.0,0.0,0.0,0.0,0.0,0.0,0.0,0.0,0.0,0.0,0.0,0.0,0.0,0.0,0.0,0.0,0.0,0.0,0.0,0.0,0.0,0.0,0.0,0.0,0.0,0.0,0.0,0.0,0.0,0.0,0.0,0.0,0.0,0.0,0.0,0.0,0.0,0.0,0.0,0.0,0.0,0.0,0.0,0.0,0.0,0.0,0.0,0.0,0.0,0.0,0.0,0.0,0.0,0.0,0.0,0.0,0.0,0.0,0.0,0.0,0.0,0.0,0.0,0.0,0.0,0.0,0.0,0.0,0.0,0.0,0.0,0.0,0.0,0.0,0.0,0.0,0.0,0.0,0.0,0.0,0.0,0.0,0.0,0.0,0.0,0.0,0.0,0.0,0.0,0.0,0.0,0.0,0.0,0.0,0.0,0.0,0.0,0.0,0.0,0.0,0.0,0.0,0.0,0.0,0.0,0.0,0.0,0.0,0.0,0.0,0.0,0.0,0.0,0.0,0.0,0.0,0.0,0.0,0.0,0.0,0.0,0.0,0.0,0.0,0.0,0.0,0.0,0.0,0.0,0.0,0.0,0.0,0.0,0.0,0.0,0.0,0.0,0.0,0.0,0.0,0.0,0.0,0.0,0.0,0.0,0.0,0.0,0.0,0.0,0.0,0.0,0.0,0.0,0.0,0.0,0.0,0.0,0.0,0.0,0.0,0.0,0.0,0.0,0.0,0.0,0.0,0.0,0.0,0.0,0.0,0.0,0.0,0.0,0.0,0.0,0.0,0.0,0.0,0.0,0.0,0.0,0.0,0.0,0.0,0.0,0.0,0.0,0.0,0.0,0.0,0.0,0.0,0.0,0.0,0.0,0.0,0.0,0.0,0.0,0.0,0.0,0.0,0.0,0.0,0.0,0.0,0.0,0.0,0.0,0.0,0.0,0.0,0.0,0.0,0.0,0.0,0.0,0.0,0.0,0.0,0.0,0.0,0.0,0.0,0.0,0.0,0.0,0.0,0.0,0.0,0.0,0.0,0.0,0.0,0.0,0.0,0.0,0.0,0.0,0.0,0.0,0.0,0.0,0.0,0.0,0.0,0.0,0.0,0.0,0.0,0.0,0.0,0.0,0.0,0.0,0.0,0.0,0.0,0.0,0.0,0.0,0.0,0.0,0.0,0.0,0.0,0.0,0.0,0.0,0.0,0.0,0.0,0.0,0.0,0.0,0.0,0.0,0.0,0.0,0.0,0.0,0.0,0.0,0.0,0.0,0.0,0.0,0.0,0.0,0.0,0.0,0.0,0.0,0.0,0.0,0.0,0.0,0.0,0.0,0.0,0.0,0.0,0.0,0.0,0.0,0.0,0.0,0.0,0.0,0.0,0.0,0.0,0.0,0.0,0.0,0.0,0.0,0.0,0.0,0.0,0.0,0.0,0.0,0.0,0.0,0.0,0.0,0.0,0.0,0.0,0.0,0.0,0.0,0.0,0.0,0.0,0.0,0.0,0.0,0.0,0.0,0.0,0.0,0.0,0.0,0.0,0.0,0.0,0.0,0.0,0.0,0.0,0.0,0.0,0.0,0.0,0.0,0.0,0.0,0.0,0.0,0.0,0.0,0.0,0.0,0.0,0.0,0.0,0.0,0.0,0.0,0.0,0.0,0.0,0.0,0.0,0.0,0.0,0.0,0.0,0.0,0.0,0.0,0.0,0.0,0.0,0.0,0.0,0.0,0.0,0.0,0.0,0.0,0.0,0.0,0.0,0.0,0.0,0.0,0.0,0.0,0.0,0.0,0.0,0.0,0.0,0.0,0.0,0.0,0.0,0.0,0.0,0.0,0.0,0.0,0.0,0.0,0.0,0.0,0.0,0.0,0.0,0.0,0.0,0.0,0.0,0.0,0.0,0.0,0.0,0.0,0.0,0.0,0.0,0.0,0.0,0.0,0.0,0.0,0.0,0.0,0.0,0.0,0.0,0.0,0.0,0.0,0.0,0.0,0.0,0.0,0.0,0.0,0.0,0.0,0.0,0.0,0.0,0.0,0.0,0.0,0.0,0.0,0.0,0.0,0.0,0.0,0.0,0.0,0.0,0.0,0.0,0.0,0.0,0.0,0.0,0.0,0.0,0.0,0.0,0.0,0.0,0.0,0.0,0.0,0.0,0.0,0.0,0.0,0.0,0.0,0.0,0.0,0.0,0.0,0.0,0.0,0.0,0.0,0.0,0.0,0.0,0.0,0.0,0.0,0.0,0.0,0.0,0.0,0.0,0.0,0.0,0.0,0.0,0.0,0.0,0.0,0.0,0.0,0.0,0.0,0.0,0.0,0.0,0.0,0.0,0.0,0.0,0.0,0.0,0.0,0.0,0.0,0.0,0.0,0.0,0.0,0.0,0.0,0.0,0.0,0.0,0.0,0.0,0.0,0.0,0.0,0.0,0.0,0.0,0.0,0.0,0.0,0.0,0.0,0.0,0.0,0.0,0.0,0.0,0.0,0.0,0.0,0.0,0.0,0.0,0.0,0.0,0.0,0.0,0.0,0.0,0.0,0.0,0.0,0.0,0.0,0.0,0.0,0.0,0.0,0.0,0.0,0.0,0.0,0.0,0.0,0.0,0.0,0.0,0.0,0.0,0.0,0.0,0.0,0.0,0.0,0.0,0.0,0.0,0.0,0.0,0.0,0.0,0.0,0.0,0.0,0.0,0.0,0.0,0.0,0.0,0.0,0.0,0.0,0.0,0.0,0.0,0.0,0.0,0.0,0.0,0.0,0.0,0.0,0.0,0.0,0.0,0.0,0.0,0.0,0.0,0.0,0.0,0.0,0.0,0.0,0.0,0.0,0.0,0.0,0.0,0.0,0.0,0.0,0.0,0.0,0.0,0.0,0.0,0.0,0.0,0.0,0.0,0.0,0.0,0.0,0.0,0.0,0.0,0.0,0.0,0.0,0.0,0.0,0.0,0.0,0.0,0.0,0.0,0.0,0.0,0.0,0.0,0.0,0.0,0.0,0.0,0.0,0.0,0.0,0.0,0.0,0.0,0.0,0.0,0.0,0.0,0.0,0.0,0.0,0.0,0.0,0.0,0.0,0.0,0.0,0.0,0.0,0.0,0.0,0.0,0.0,0.0,0.0,0.0,0.0,0.0,0.0,0.0,0.0,0.0,0.0,0.0,0.0,0.0,0.0,0.0,0.0,0.0,0.0,0.0,0.0,0.0,0.0,0.0,0.0,0.0,0.0,0.0,0.0,0.0,0.0,0.0,0.0,0.0,0.0,0.0,0.0,0.0,0.0,0.0,0.0,0.0,0.0,0.0,0.0,0.0,0.0,0.0,0.0,0.0,0.0,0.0,0.0,0.0,0.0,0.0,0.0,0.0,0.0,0.0,0.0,0.0,0.0,0.0,0.0,0.0,0.0,0.0,0.0,0.0,0.0,0.0,0.0,0.0,0.0,0.0,0.0,0.0,0.0,0.0,0.0,0.0,0.0,0.0,0.0,0.0,0.0,0.0,0.0,0.0,0.0,0.0,0.0,0.0,0.0,0.0,0.0,0.0,0.0,0.0,0.0,0.0,0.0,0.0,0.0,0.0,0.0,0.0,0.0,0.0,0.0,0.0,0.0,0.0,0.0,0.0,0.0,0.0,0.0,0.0,0.0,0.0,0.0,0.0,0.0,0.0,0.0,0.0,0.0,0.0,0.0,0.0,0.0,0.0,0.0,0.0,0.0,0.0,0.0,0.0,0.0,0.0,3.5507,0.0,0.0,0.0,0.0,0.0,0.0,0.0,0.0,0.0,0.0,0.0,0.0,0.0,0.0,0.0,0.0,0.0,0.0,0.0,0.0,0.0,0.0,0.0,0.0,0.0,0.0,0.0,0.0,0.0,0.0,0.0,0.0,0.0,0.0,0.0,0.0,0.0,0.0,0.0,0.0,0.0,0.0,0.0,0.0,0.0,0.0,0.0,0.0,0.0,0.0,0.0,0.0,0.0,0.0,0.0,0.0,0.0,0.0,0.0,0.0,0.0,0.0,0.0,0.0,0.0,0.0,0.0,0.0,0.0,0.0,0.0,0.0,0.0,0.0,0.0,0.0,0.0,0.0,0.0,0.0,0.0,0.0,0.0,0.0,0.0,0.0,0.0,0.0,0.0,0.0,0.0,0.0,0.0,0.0,0.0,0.0,0.0,0.0,0.0,0.0,0.0,0.0,0.0,0.0,0.0,0.0,0.0,0.0,0.0,0.0,3.5507,3.5507,3.5507,3.5507,3.5507,0.0,0.0,0.0,0.0,0.0,0.0,0.0,0.0,0.0,0.0,0.0,0.0,0.0,0.0,0.0,0.0,0.0,0.0,0.0,0.0,0.0,0.0,0.0,0.0,0.0,0.0,0.0,0.0,0.0,0.0,0.0,0.0,0.0,0.0,0.0,0.0,0.0,0.0,0.0,0.0,0.0,0.0,0.0,0.0,0.0,0.0,0.0,0.0,0.0,0.0,0.0,0.0,0.0,0.0,0.0,0.0,0.0,0.0,0.0,0.0,0.0,0.0,0.0,0.0,0.0,0.0,0.0,0.0,0.0,0.0,0.0,0.0,0.0,0.0,0.0,0.0,0.0,0.0,0.0,0.0,0.0,0.0,0.0,0.0,0.0,0.0,0.0,0.0,0.0,0.0,0.0,0.0,0.0,0.0,0.0,0.0,0.0,0.0,0.0,0.0,0.0,0.0,0.0,0.0,0.0,0.0,0.0,0.0,0.0,0.0,0.0,0.0,3.6252,3.6252,3.6098,0.0,0.0,0.0,0.0,0.0,0.0,0.0,0.0,0.0,0.0,0.0,0.0,0.0,0.0,0.0,0.0,0.0,0.0,0.0,0.0,0.0,0.0,0.0,0.0,0.0,0.0,0.0,0.0,0.0,0.0,0.0,0.0,0.0,0.0,0.0,0.0,0.0,0.0,0.0,0.0,0.0,0.0,0.0,0.0,0.0,0.0,0.0,0.0,0.0,0.0,0.0,0.0,0.0,0.0,0.0,0.0,0.0,0.0,0.0,0.0,0.0,0.0,0.0,0.0,0.0,0.0,0.0,0.0,0.0,0.0,0.0,0.0,0.0,0.0,0.0,0.0,0.0,0.0,0.0,0.0,0.0,0.0,0.0,0.0,0.0,0.0,0.0,0.0,0.0,0.0,0.0,0.0,0.0,0.0,0.0,0.0,0.0,0.0,0.0,0.0,0.0,0.0,0.0,0.0,0.0,0.0,0.0,0.0,0.0,0.0,3.6972,3.7756,3.8516,0.0,3.7872,0.0,0.0,0.0,0.0,0.0,0.0,0.0,0.0,0.0,0.0,0.0,0.0,0.0,0.0,0.0,0.0,0.0,0.0,0.0,0.0,0.0,0.0,0.0,0.0,0.0,0.0,0.0,0.0,0.0,0.0,0.0,0.0,0.0,0.0,0.0,0.0,0.0,0.0,0.0,0.0,0.0,0.0,0.0,0.0,0.0,0.0,0.0,0.0,0.0,0.0,0.0,0.0,0.0,0.0,0.0,0.0,0.0,0.0,0.0,0.0,0.0,0.0,0.0,0.0,0.0,0.0,0.0,0.0,0.0,0.0,0.0,0.0,0.0,0.0,0.0,0.0,0.0,0.0,0.0,0.0,0.0,0.0,0.0,0.0,0.0,0.0,0.0,0.0,0.0,0.0,0.0,0.0,0.0,0.0,0.0,0.0,0.0,0.0,0.0,0.0,0.0,0.0,0.0,0.0,0.0,0.0,0.0,0.0,0.0,0.0,3.7632,3.7986,3.8315,3.8344,0.0,0.0,0.0,0.0,0.0,0.0,0.0,0.0,0.0,0.0,0.0,0.0,0.0,0.0,0.0,0.0,0.0,0.0,0.0,0.0,0.0,0.0,0.0,0.0,0.0,0.0,0.0,0.0,0.0,0.0,0.0,0.0,0.0,0.0,0.0,0.0,0.0,0.0,0.0,0.0,0.0,0.0,0.0,0.0,0.0,0.0,0.0,0.0,0.0,0.0,0.0,0.0,0.0,0.0,0.0,0.0,0.0,0.0,0.0,0.0,0.0,0.0,0.0,0.0,0.0,0.0,0.0,0.0,0.0,0.0,0.0,0.0,0.0,0.0,0.0,0.0,0.0,0.0,0.0,0.0,0.0,0.0,0.0,0.0,0.0,0.0,0.0,0.0,0.0,0.0,0.0,0.0,0.0,0.0,0.0,0.0,0.0,0.0,0.0,0.0,0.0,0.0,0.0,0.0,0.0,0.0,0.0,0.0,0.0,0.0,3.7855,3.8558,3.9018,3.8808,3.8454,3.8016,0.0,0.0,0.0,0.0,0.0,0.0,0.0,0.0,0.0,0.0,0.0,0.0,0.0,0.0,0.0,0.0,0.0,0.0,0.0,0.0,0.0,0.0,0.0,0.0,0.0,0.0,0.0,0.0,0.0,0.0,0.0,0.0,0.0,0.0,0.0,0.0,0.0,0.0,0.0,0.0,0.0,0.0,0.0,0.0,0.0,0.0,0.0,0.0,0.0,0.0,0.0,0.0,0.0,0.0,0.0,0.0,0.0,0.0,0.0,0.0,0.0,0.0,0.0,0.0,0.0,0.0,0.0,0.0,0.0,0.0,0.0,0.0,0.0,0.0,0.0,0.0,0.0,0.0,0.0,0.0,0.0,0.0,0.0,0.0,0.0,0.0,0.0,0.0,0.0,0.0,0.0,0.0,0.0,0.0,0.0,0.0,0.0,0.0,0.0,0.0,0.0,0.0,0.0,0.0,0.0,0.0,0.0,0.0,4.0023,3.9532,4.0,4.1485,4.0822,3.9653,0.0,0.0,0.0,0.0,0.0,0.0,0.0,0.0,0.0,0.0,0.0,0.0,0.0,0.0,0.0,0.0,0.0,0.0,0.0,0.0,0.0,0.0,0.0,0.0,0.0,0.0,0.0,0.0,0.0,0.0,0.0,0.0,0.0,0.0,0.0,0.0,0.0,0.0,0.0,0.0,0.0,0.0,0.0,0.0,0.0,0.0,0.0,0.0,0.0,0.0,0.0,0.0,0.0,0.0,0.0,0.0,0.0,0.0,0.0,0.0,0.0,0.0,0.0,0.0,0.0,0.0,0.0,0.0,0.0,0.0,0.0,0.0,0.0,0.0,0.0,0.0,0.0,0.0,0.0,0.0,0.0,0.0,0.0,0.0,0.0,0.0,0.0,0.0,0.0,0.0,0.0,0.0,0.0,0.0,0.0,0.0,0.0,0.0,0.0,0.0,0.0,0.0,0.0,0.0,0.0,0.0,0.0,0.0,0.0,3.728,3.806,3.9807,4.241,4.0246,3.9099,0.0,0.0,0.0,0.0,0.0,0.0,0.0,0.0,0.0,0.0,0.0,0.0,0.0,0.0,0.0,0.0,0.0,0.0,0.0,0.0,0.0,0.0,0.0,0.0,0.0,0.0,0.0,0.0,0.0,0.0,0.0,0.0,0.0,0.0,0.0,0.0,0.0,0.0,0.0,0.0,0.0,0.0,0.0,0.0,0.0,0.0,0.0,0.0,0.0,0.0,0.0,0.0,0.0,0.0,0.0,0.0,0.0,0.0,0.0,0.0,0.0,0.0,0.0,0.0,0.0,0.0,0.0,0.0,0.0,0.0,0.0,0.0,0.0,0.0,0.0,0.0,0.0,0.0,0.0,0.0,0.0,0.0,0.0,0.0,0.0,0.0,0.0,0.0,0.0,0.0,0.0,0.0,0.0,0.0,0.0,0.0,0.0,0.0,0.0,0.0,0.0,0.0,0.0,0.0,0.0,0.0,0.0,0.0,0.0,3.7126,0.0,4.0515,4.2058,4.0029,3.8854,0.0,0.0,0.0,0.0,0.0,0.0,0.0,0.0,0.0,0.0,0.0,0.0,0.0,0.0,0.0,0.0,0.0,0.0,0.0,0.0,0.0,0.0,0.0,0.0,0.0,0.0,0.0,0.0,0.0,0.0,0.0,0.0,0.0,0.0,0.0,0.0,0.0,0.0,0.0,0.0,0.0,0.0,0.0,0.0,0.0,0.0,0.0,0.0,0.0,0.0,0.0,0.0,0.0,0.0,0.0,0.0,0.0,0.0,0.0,0.0,0.0,0.0,0.0,0.0,0.0,0.0,0.0,0.0,0.0,0.0,0.0,0.0,0.0,0.0,0.0,0.0,0.0,0.0,0.0,0.0,0.0,0.0,0.0,0.0,0.0,0.0,0.0,0.0,0.0,0.0,0.0,0.0,0.0,0.0,0.0,0.0,0.0,0.0,0.0,0.0,0.0,0.0,0.0,0.0,0.0,0.0,0.0,0.0,3.7165,4.0293,4.2063,4.2179,4.064,4.0492,3.8931,0.0,0.0,0.0,0.0,0.0,0.0,0.0,0.0,0.0,0.0,0.0,0.0,0.0,0.0,0.0,0.0,0.0,0.0,0.0,0.0,0.0,0.0,0.0,0.0,0.0,0.0,0.0,0.0,0.0,0.0,0.0,0.0,0.0,0.0,0.0,0.0,0.0,0.0,0.0,0.0,0.0,0.0,0.0,0.0,0.0,0.0,0.0,0.0,0.0,0.0,0.0,0.0,0.0,0.0,0.0,0.0,0.0,0.0,0.0,0.0,0.0,0.0,0.0,0.0,0.0,0.0,0.0,0.0,0.0,0.0,0.0,0.0,0.0,0.0,0.0,0.0,0.0,0.0,0.0,0.0,0.0,0.0,0.0,0.0,0.0,0.0,0.0,0.0,0.0,0.0,0.0,0.0,0.0,0.0,0.0,0.0,0.0,0.0,0.0,0.0,0.0,0.0,0.0,0.0,0.0,0.0,0.0,0.0,0.0,3.8815,4.1014,4.2514,4.2986,4.087,3.9745,0.0,0.0,0.0,0.0,0.0,0.0,0.0,0.0,0.0,0.0,0.0,0.0,0.0,0.0,0.0,0.0,0.0,0.0,0.0,0.0,0.0,0.0,0.0,0.0,0.0,0.0,0.0,0.0,0.0,0.0,0.0,0.0,0.0,0.0,0.0,0.0,0.0,0.0,0.0,0.0,0.0,0.0,0.0,0.0,0.0,0.0,0.0,0.0,0.0,0.0,0.0,0.0,0.0,0.0,0.0,0.0,0.0,0.0,0.0,0.0,0.0,0.0,0.0,0.0,0.0,0.0,0.0,0.0,0.0,0.0,0.0,0.0,0.0,0.0,0.0,0.0,0.0,0.0,0.0,0.0,0.0,0.0,0.0,0.0,0.0,0.0,0.0,0.0,0.0,0.0,0.0,0.0,0.0,0.0,0.0,0.0,0.0,0.0,0.0,0.0,0.0,0.0,0.0,0.0,0.0,0.0,0.0,0.0,0.0,4.147,4.3496,4.4687,4.4799,4.2431,4.1039,4.0829,0.0,0.0,0.0,0.0,0.0,0.0,0.0,0.0,0.0,0.0,0.0,0.0,0.0,0.0,0.0,0.0,0.0,0.0,0.0,0.0,0.0,0.0,0.0,0.0,0.0,0.0,0.0,0.0,0.0,0.0,0.0,0.0,0.0,0.0,0.0,0.0,0.0,0.0,0.0,0.0,0.0,0.0,0.0,0.0,0.0,0.0,0.0,0.0,0.0,0.0,0.0,0.0,0.0,0.0,0.0,0.0,0.0,0.0,0.0,0.0,0.0,0.0,0.0,0.0,0.0,0.0,0.0,0.0,0.0,0.0,0.0,0.0,0.0,0.0,0.0,0.0,0.0,0.0,0.0,0.0,0.0,0.0,0.0,0.0,0.0,0.0,0.0,0.0,0.0,0.0,0.0,0.0,0.0,0.0,0.0,0.0,0.0,0.0,0.0,0.0,0.0,0.0,0.0,0.0,0.0,0.0,0.0,0.0,4.7191,4.899,4.876,4.624,4.5086,4.3008,0.0,0.0,0.0,0.0,0.0,0.0,0.0,0.0,0.0,0.0,0.0,0.0,0.0,0.0,0.0,0.0,0.0,0.0,0.0,0.0,0.0,0.0,0.0,0.0,0.0,0.0,0.0,0.0,0.0,0.0,0.0,0.0,0.0,0.0,0.0,0.0,0.0,0.0,0.0,0.0,0.0,0.0,0.0,0.0,0.0,0.0,0.0,0.0,0.0,0.0,0.0,0.0,0.0,0.0,0.0,0.0,0.0,0.0,0.0,0.0,0.0,0.0,0.0,0.0,0.0,0.0,0.0,0.0,0.0,0.0,0.0,0.0,0.0,0.0,0.0,0.0,0.0,0.0,0.0,0.0,0.0,0.0,0.0,0.0,0.0,0.0,0.0,0.0,0.0,0.0,0.0,0.0,0.0,0.0,0.0,0.0,0.0,0.0,0.0,0.0,0.0,0.0,0.0,0.0,0.0,0.0,0.0,0.0,0.0,5.0644,5.4699,5.5346,5.2221,4.8894,4.6429,0.0,0.0,0.0,0.0,0.0,0.0,0.0,0.0,0.0,0.0,0.0,0.0,0.0,0.0,0.0,0.0,0.0,0.0,0.0,0.0,0.0,0.0,0.0,0.0,0.0,0.0,0.0,0.0,0.0,0.0,0.0,0.0,0.0,0.0,0.0,0.0,0.0,0.0,0.0,0.0,0.0,0.0,0.0,0.0,0.0,0.0,0.0,0.0,0.0,0.0,0.0,0.0,0.0,0.0,0.0,0.0,0.0,0.0,0.0,0.0,0.0,0.0,0.0,0.0,0.0,0.0,0.0,0.0,0.0,0.0,0.0,0.0,0.0,0.0,0.0,0.0,0.0,0.0,0.0,0.0,0.0,0.0,0.0,0.0,0.0,0.0,0.0,0.0,0.0,0.0,0.0,0.0,0.0,0.0,0.0,0.0,0.0,0.0,0.0,0.0,0.0,0.0,0.0,0.0,0.0,0.0,0.0,0.0,5.1305,5.3513,5.845,6.0186,5.8235,5.3374,4.9912,0.0,0.0,0.0,0.0,0.0,0.0,0.0,0.0,0.0,0.0,0.0,0.0,0.0,0.0,0.0,0.0,0.0,0.0,0.0,0.0,0.0,0.0,0.0,0.0,0.0,0.0,0.0,0.0,0.0,0.0,0.0,0.0,0.0,0.0,0.0,0.0,0.0,0.0,0.0,0.0,0.0,0.0,0.0,0.0,0.0,0.0,0.0,0.0,0.0,0.0,0.0,0.0,0.0,0.0,0.0,0.0,0.0,0.0,0.0,0.0,0.0,0.0,0.0,0.0,0.0,0.0,0.0,0.0,0.0,0.0,0.0,0.0,0.0,0.0,0.0,0.0,0.0,0.0,0.0,0.0,0.0,0.0,0.0,0.0,0.0,0.0,0.0,0.0,0.0,0.0,0.0,0.0,0.0,0.0,0.0,0.0,0.0,0.0,0.0,0.0,0.0,0.0,0.0,0.0,0.0,0.0,0.0,0.0,5.4293,5.6227,6.1042,6.3553,6.3399,5.7758,5.3128,0.0,0.0,0.0,0.0,0.0,0.0,0.0,0.0,0.0,0.0,0.0,0.0,0.0,0.0,0.0,0.0,0.0,0.0,0.0,0.0,0.0,0.0,0.0,0.0,0.0,0.0,0.0,0.0,0.0,0.0,0.0,0.0,0.0,0.0,0.0,0.0,0.0,0.0,0.0,0.0,0.0,0.0,0.0,0.0,0.0,0.0,0.0,0.0,0.0,0.0,0.0,0.0,0.0,0.0,0.0,0.0,0.0,0.0,0.0,0.0,0.0,0.0,0.0,0.0,0.0,0.0,0.0,0.0,0.0,0.0,0.0,0.0,0.0,0.0,0.0,0.0,0.0,0.0,0.0,0.0,0.0,0.0,0.0,0.0,0.0,0.0,0.0,0.0,0.0,0.0,0.0,0.0,0.0,0.0,0.0,0.0,0.0,0.0,0.0,0.0,0.0,0.0,0.0,0.0,0.0,0.0,0.0,0.0,5.5995,5.9663,6.3384,6.5333,6.5295,5.8934,5.4493,0.0,0.0,0.0,0.0,0.0,0.0,0.0,0.0,0.0,0.0,0.0,0.0,0.0,0.0,0.0,0.0,0.0,0.0,0.0,0.0,0.0,0.0,0.0,0.0,0.0,0.0,0.0,0.0,0.0,0.0,0.0,0.0,0.0,0.0,0.0,0.0,0.0,0.0,0.0,0.0,0.0,0.0,0.0,0.0,0.0,0.0,0.0,0.0,4.2126,0.0,0.0,0.0,0.0,0.0,0.0,0.0,0.0,0.0,0.0,0.0,0.0,0.0,0.0,0.0,0.0,0.0,0.0,0.0,0.0,0.0,0.0,0.0,0.0,0.0,0.0,0.0,0.0,0.0,0.0,0.0,0.0,0.0,0.0,0.0,0.0,0.0,0.0,0.0,0.0,0.0,0.0,0.0,0.0,0.0,0.0,0.0,0.0,0.0,0.0,0.0,0.0,0.0,0.0,0.0,0.0,0.0,0.0,0.0,5.7564,6.1306,6.4354,6.5897,6.5705,6.0834,5.6917,0.0,0.0,0.0,0.0,0.0,0.0,0.0,0.0,0.0,0.0,0.0,0.0,0.0,0.0,0.0,0.0,0.0,0.0,0.0,0.0,0.0,0.0,0.0,0.0,0.0,0.0,0.0,0.0,0.0,0.0,0.0,0.0,0.0,0.0,0.0,0.0,0.0,0.0,0.0,0.0,0.0,0.0,0.0,0.0,0.0,0.0,0.0,0.0,0.0,0.0,0.0,0.0,0.0,0.0,0.0,0.0,0.0,0.0,0.0,0.0,0.0,0.0,0.0,0.0,0.0,0.0,0.0,0.0,0.0,0.0,0.0,0.0,0.0,0.0,0.0,0.0,0.0,0.0,0.0,0.0,0.0,0.0,0.0,0.0,0.0,0.0,0.0,0.0,0.0,0.0,0.0,0.0,0.0,0.0,0.0,0.0,0.0,0.0,0.0,0.0,0.0,0.0,0.0,0.0,0.0,0.0,0.0,5.4147,5.8588,6.2567,6.4795,6.5897,6.5859,6.2617,5.9204,5.5769,0.0,0.0,0.0,0.0,0.0,0.0,0.0,0.0,0.0,0.0,0.0,0.0,0.0,0.0,0.0,0.0,0.0,0.0,0.0,0.0,0.0,0.0,0.0,0.0,0.0,0.0,0.0,0.0,0.0,0.0,0.0,0.0,0.0,0.0,0.0,0.0,0.0,0.0,3.7991,4.0891,0.0,0.0,0.0,0.0,0.0,0.0,0.0,0.0,4.4248,0.0,0.0,0.0,0.0,0.0,0.0,0.0,0.0,0.0,0.0,0.0,0.0,0.0,0.0,0.0,0.0,0.0,0.0,0.0,0.0,0.0,0.0,0.0,0.0,0.0,0.0,0.0,0.0,0.0,0.0,0.0,0.0,0.0,0.0,0.0,0.0,0.0,0.0,0.0,0.0,0.0,0.0,0.0,0.0,0.0,0.0,0.0,0.0,0.0,0.0,0.0,0.0,0.0,0.0,0.0,0.0,5.4395,5.4797,5.8258,6.5064,6.5667,6.5897,6.5782,6.2589,5.9188,5.571,0.0,0.0,0.0,0.0,0.0,0.0,0.0,0.0,0.0,0.0,0.0,0.0,0.0,0.0,0.0,0.0,0.0,0.0,0.0,0.0,0.0,0.0,0.0,0.0,0.0,0.0,0.0,0.0,0.0,0.0,0.0,0.0,0.0,0.0,0.0,0.0,0.0,0.0,0.0,4.5759,4.7096,0.0,0.0,0.0,0.0,0.0,0.0,0.0,0.0,4.5916,0.0,0.0,0.0,0.0,0.0,0.0,0.0,0.0,0.0,0.0,0.0,0.0,0.0,0.0,0.0,0.0,0.0,0.0,0.0,0.0,0.0,0.0,0.0,0.0,0.0,0.0,0.0,0.0,0.0,0.0,0.0,0.0,0.0,0.0,0.0,0.0,0.0,0.0,0.0,0.0,0.0,0.0,0.0,0.0,0.0,0.0,0.0,0.0,0.0,0.0,0.0,0.0,0.0,0.0,0.0,5.4073,5.6631,6.0419,6.5667,6.5897,6.5897,6.582,6.2175,5.8753,0.0,0.0,0.0,0.0,0.0,0.0,0.0,0.0,0.0,0.0,0.0,0.0,0.0,0.0,0.0,0.0,0.0,0.0,0.0,0.0,0.0,0.0,0.0,0.0,0.0,0.0,0.0,0.0,0.0,0.0,0.0,0.0,0.0,0.0,0.0,0.0,0.0,0.0,0.0,0.0,4.8105,4.9694,5.1529,0.0,0.0,0.0,0.0,0.0,0.0,4.8618,4.7277,0.0,0.0,0.0,0.0,0.0,0.0,0.0,0.0,0.0,0.0,0.0,0.0,0.0,0.0,0.0,0.0,0.0,0.0,0.0,0.0,0.0,0.0,0.0,0.0,0.0,0.0,0.0,0.0,0.0,0.0,0.0,0.0,0.0,0.0,0.0,0.0,0.0,0.0,0.0,0.0,0.0,0.0,0.0,0.0,0.0,0.0,0.0,0.0,0.0,0.0,0.0,0.0,0.0,0.0,0.0,5.3412,5.814,6.2467,6.623,6.6461,6.6346,6.6115,6.1851,5.8294,0.0,0.0,0.0,0.0,0.0,0.0,0.0,0.0,0.0,0.0,0.0,0.0,0.0,0.0,0.0,0.0,0.0,0.0,0.0,0.0,0.0,0.0,0.0,0.0,0.0,0.0,0.0,0.0,0.0,0.0,0.0,0.0,0.0,0.0,0.0,0.0,0.0,0.0,0.0,0.0,0.0,5.2203,5.4219,5.2472,0.0,0.0,0.0,0.0,5.1453,5.0862,0.0,0.0,0.0,0.0,0.0,0.0,0.0,0.0,0.0,0.0,0.0,0.0,0.0,0.0,0.0,0.0,0.0,0.0,0.0,0.0,0.0,0.0,0.0,0.0,0.0,0.0,0.0,0.0,0.0,0.0,0.0,0.0,0.0,0.0,0.0,0.0,0.0,0.0,0.0,0.0,0.0,0.0,0.0,0.0,0.0,0.0,0.0,0.0,0.0,0.0,0.0,0.0,0.0,0.0,0.0,0.0,5.4254,5.7989,6.2535,6.7859,6.8283,6.7872,6.7025,6.2213,5.8346,0.0,0.0,0.0,0.0,0.0,0.0,0.0,0.0,0.0,0.0,0.0,0.0,0.0,0.0,0.0,0.0,0.0,0.0,0.0,0.0,0.0,0.0,0.0,0.0,0.0,0.0,0.0,0.0,0.0,0.0,0.0,0.0,0.0,0.0,0.0,0.0,0.0,0.0,0.0,0.0,0.0,5.5101,5.5336,5.3851,5.2938,0.0,0.0,5.4188,5.5884,5.7267,0.0,0.0,0.0,0.0,0.0,0.0,0.0,0.0,0.0,0.0,0.0,0.0,0.0,0.0,0.0,0.0,0.0,0.0,0.0,0.0,0.0,0.0,0.0,0.0,0.0,0.0,0.0,0.0,0.0,0.0,0.0,0.0,0.0,0.0,0.0,0.0,0.0,0.0,0.0,0.0,0.0,0.0,0.0,0.0,0.0,0.0,0.0,0.0,0.0,0.0,0.0,0.0,0.0,0.0,0.0,4.9405,5.4652,6.038,6.5041,6.839,6.8583,6.8428,6.8004,6.2111,5.7947,0.0,0.0,0.0,0.0,0.0,0.0,0.0,0.0,0.0,0.0,0.0,0.0,0.0,0.0,0.0,0.0,0.0,0.0,0.0,0.0,0.0,0.0,0.0,0.0,0.0,0.0,0.0,0.0,0.0,0.0,0.0,0.0,0.0,0.0,0.0,0.0,0.0,0.0,0.0,0.0,0.0,0.0,5.6889,5.6391,0.0,0.0,0.0,5.6736,5.745,0.0,0.0,0.0,0.0,0.0,0.0,0.0,0.0,0.0,0.0,0.0,0.0,0.0,0.0,0.0,0.0,0.0,0.0,0.0,0.0,0.0,0.0,0.0,0.0,0.0,0.0,0.0,0.0,0.0,0.0,0.0,0.0,0.0,0.0,0.0,0.0,0.0,0.0,0.0,0.0,0.0,0.0,0.0,0.0,0.0,0.0,0.0,0.0,0.0,0.0,0.0,0.0,0.0,0.0,0.0,0.0,0.0,5.5056,6.2562,6.7363,6.9159,6.9275,6.9159,6.885,6.3124,0.0,0.0,0.0,0.0,0.0,0.0,0.0,0.0,0.0,0.0,0.0,0.0,0.0,0.0,0.0,0.0,0.0,0.0,0.0,0.0,0.0,0.0,0.0,0.0,0.0,0.0,0.0,3.2545,0.0,0.0,0.0,0.0,0.0,0.0,0.0,0.0,0.0,0.0,0.0,0.0,0.0,0.0,5.6552,5.8265,5.8856,5.9547,0.0,0.0,5.9331,5.9969,6.1492,6.094,0.0,0.0,0.0,0.0,0.0,0.0,0.0,0.0,0.0,0.0,0.0,0.0,0.0,0.0,0.0,0.0,0.0,0.0,0.0,0.0,0.0,0.0,0.0,0.0,0.0,0.0,0.0,0.0,0.0,0.0,0.0,0.0,0.0,0.0,0.0,0.0,0.0,0.0,0.0,0.0,0.0,0.0,0.0,0.0,0.0,0.0,0.0,0.0,0.0,0.0,0.0,0.0,0.0,0.0,0.0,5.5946,6.3458,6.8584,7.0905,7.1098,7.075,6.9877,6.6355,6.1734,0.0,0.0,0.0,0.0,0.0,0.0,0.0,0.0,0.0,0.0,0.0,0.0,0.0,0.0,0.0,0.0,0.0,0.0,0.0,0.0,0.0,0.0,0.0,0.0,0.0,0.0,0.0,0.0,0.0,0.0,0.0,0.0,0.0,0.0,0.0,0.0,0.0,0.0,0.0,0.0,0.0,5.7443,5.9173,6.0748,6.2592,0.0,0.0,6.2554,6.4987,6.6744,6.5603,5.9019,0.0,0.0,0.0,0.0,0.0,0.0,0.0,0.0,0.0,0.0,0.0,0.0,0.0,0.0,0.0,0.0,0.0,0.0,0.0,0.0,0.0,0.0,0.0,0.0,0.0,0.0,0.0,0.0,0.0,0.0,0.0,0.0,0.0,0.0,0.0,0.0,0.0,0.0,0.0,0.0,0.0,0.0,0.0,0.0,0.0,0.0,0.0,0.0,0.0,0.0,0.0,0.0,0.0,5.3359,5.6776,6.4348,6.9241,7.1175,7.1291,7.1137,7.0827,6.7012,6.2393,0.0,0.0,0.0,0.0,0.0,0.0,0.0,0.0,0.0,0.0,0.0,0.0,0.0,0.0,0.0,0.0,0.0,0.0,0.0,0.0,0.0,0.0,0.0,0.0,0.0,0.0,0.0,0.0,4.2354,4.3355,4.1816,0.0,0.0,0.0,0.0,0.0,0.0,0.0,0.0,0.0,0.0,5.9096,6.2861,6.3937,0.0,0.0,6.5769,6.5244,6.582,6.5974,6.4282,5.9104,5.6412,0.0,0.0,0.0,0.0,0.0,0.0,0.0,0.0,0.0,0.0,0.0,0.0,0.0,0.0,0.0,0.0,0.0,0.0,0.0,0.0,0.0,0.0,0.0,0.0,0.0,0.0,0.0,0.0,0.0,0.0,0.0,0.0,0.0,0.0,0.0,0.0,0.0,0.0,0.0,0.0,0.0,0.0,0.0,0.0,0.0,0.0,0.0,0.0,0.0,0.0,0.0,0.0,5.442,5.7279,6.5122,6.986,7.133,7.1369,7.1485,7.164,6.8348,6.4229,0.0,0.0,0.0,0.0,0.0,0.0,0.0,0.0,0.0,0.0,0.0,0.0,0.0,0.0,0.0,0.0,0.0,0.0,0.0,0.0,0.0,0.0,0.0,0.0,0.0,0.0,0.0,0.0,4.4201,4.4586,4.2547,0.0,0.0,0.0,0.0,0.0,0.0,0.0,0.0,0.0,0.0,6.1426,6.4962,6.5692,6.6038,6.6628,6.6256,6.5808,6.5551,6.5205,6.3705,6.0027,0.0,0.0,0.0,0.0,0.0,0.0,0.0,0.0,0.0,0.0,0.0,0.0,0.0,0.0,0.0,0.0,0.0,0.0,0.0,0.0,0.0,0.0,0.0,0.0,0.0,0.0,0.0,0.0,0.0,0.0,3.5704,0.0,0.0,0.0,0.0,0.0,0.0,0.0,0.0,0.0,0.0,0.0,0.0,0.0,0.0,0.0,0.0,0.0,0.0,0.0,0.0,0.0,0.0,5.5581,5.7395,6.5683,7.0462,7.1446,7.1507,7.1893,7.2662,7.0999,6.7982,6.3456,0.0,0.0,0.0,0.0,0.0,0.0,0.0,0.0,0.0,0.0,0.0,0.0,0.0,0.0,0.0,0.0,0.0,0.0,0.0,0.0,0.0,0.0,0.0,0.0,0.0,0.0,3.8546,4.0431,4.1623,0.0,0.0,0.0,0.0,0.0,0.0,0.0,0.0,0.0,0.0,6.0219,6.4474,6.4628,6.5359,6.5974,6.6013,6.4589,6.3743,6.4589,6.5282,6.4987,0.0,0.0,0.0,0.0,0.0,0.0,0.0,0.0,0.0,0.0,0.0,0.0,0.0,0.0,0.0,0.0,0.0,0.0,0.0,0.0,0.0,0.0,0.0,0.0,0.0,0.0,0.0,4.0965,3.992,0.0,0.0,0.0,0.0,0.0,0.0,0.0,0.0,0.0,0.0,0.0,5.0945,5.1579,0.0,0.0,0.0,0.0,0.0,0.0,0.0,0.0,0.0,0.0,0.0,0.0,5.6272,5.9276,6.6477,7.0715,7.1584,7.1614,7.177,7.202,7.0954,6.8033,6.3147,0.0,0.0,0.0,0.0,0.0,0.0,0.0,0.0,0.0,0.0,0.0,0.0,0.0,0.0,0.0,0.0,0.0,0.0,0.0,0.0,0.0,0.0,0.0,0.0,0.0,4.0739,0.0,0.0,0.0,0.0,0.0,0.0,0.0,0.0,0.0,0.0,0.0,5.4472,5.8912,6.1012,6.2897,6.5128,6.6167,6.709,0.0,0.0,0.0,0.0,0.0,0.0,0.0,0.0,0.0,0.0,0.0,0.0,0.0,0.0,6.0342,5.3587,5.3733,5.4779,5.4507,0.0,0.0,0.0,0.0,0.0,0.0,0.0,0.0,0.0,0.0,0.0,0.0,0.0,0.0,4.5104,0.0,4.4098,0.0,0.0,0.0,0.0,0.0,0.0,0.0,0.0,5.243,5.5045,5.6631,5.7464,5.7886,0.0,5.5857,5.1973,0.0,0.0,0.0,0.0,0.0,0.0,0.0,0.0,5.7195,6.0256,6.7503,7.1591,7.2132,7.2193,7.231,7.2609,7.149,6.9144,6.5492,6.0963,5.6924,0.0,0.0,0.0,0.0,0.0,0.0,0.0,0.0,0.0,0.0,0.0,0.0,0.0,0.0,0.0,0.0,0.0,0.0,0.0,0.0,0.0,0.0,0.0,4.297,0.0,0.0,0.0,0.0,0.0,0.0,0.0,0.0,0.0,5.0682,5.4472,5.8588,6.2474,6.3512,6.4397,6.5705,0.0,0.0,0.0,0.0,0.0,0.0,0.0,6.2474,6.2204,6.1743,6.1973,6.3628,6.5513,6.659,6.6013,0.0,0.0,5.9858,5.9787,6.0954,6.095,6.1127,6.155,6.2397,6.2644,6.2962,0.0,0.0,0.0,0.0,0.0,0.0,0.0,0.0,4.8933,4.8508,0.0,4.8469,0.0,0.0,0.0,0.0,0.0,5.0294,0.0,0.0,6.1271,6.4058,6.2627,6.3362,6.3806,6.3709,6.133,5.932,5.7525,5.4405,0.0,0.0,0.0,0.0,0.0,0.0,5.8483,6.0667,6.8741,7.3027,7.3086,7.3125,7.3515,7.4219,7.2611,7.1277,7.0273,6.5634,6.2886,6.2375,5.3868,0.0,0.0,0.0,0.0,0.0,0.0,0.0,0.0,0.0,0.0,0.0,0.0,0.0,0.0,0.0,0.0,0.0,0.0,0.0,0.0,4.4725,0.0,0.0,0.0,0.0,0.0,0.0,0.0,0.0,0.0,0.0,5.3857,5.8511,6.2704,6.432,0.0,0.0,0.0,0.0,6.7205,6.4128,6.3575,6.3421,6.2704,6.4474,6.6205,6.6974,0.0,0.0,7.0052,6.9167,6.8244,6.659,6.9706,7.1514,6.8975,6.7205,6.632,6.6205,6.5705,6.5359,6.609,6.709,6.7744,5.6925,0.0,0.0,0.0,0.0,5.2877,5.4843,5.7521,5.8139,5.7211,5.5316,5.5548,0.0,0.0,0.0,0.0,0.0,0.0,5.6348,5.9047,6.2491,6.4754,6.6069,6.692,6.7346,6.7286,6.6611,6.6301,6.6301,6.549,5.9744,4.9489,0.0,0.0,0.0,0.0,6.0706,6.4955,7.0376,7.3217,7.3242,7.3867,7.3984,7.3633,7.2533,7.1788,7.1523,6.9486,6.6891,6.3767,6.0328,0.0,0.0,0.0,0.0,0.0,0.0,0.0,0.0,0.0,0.0,0.0,0.0,0.0,0.0,0.0,0.0,0.0,0.0,0.0,4.3841,4.7145,4.7702,0.0,0.0,0.0,0.0,0.0,0.0,0.0,0.0,0.0,6.1127,6.2243,6.3128,0.0,0.0,6.4666,6.3358,6.5628,6.7552,6.7821,6.8347,0.0,6.9244,6.8398,6.7975,6.8821,7.1283,7.2976,7.2514,7.3168,7.3668,7.3129,7.4091,7.463,7.4014,7.3476,7.286,7.236,7.2437,7.2783,7.3053,7.3322,7.3476,6.4122,6.0573,5.7597,5.695,5.8002,5.8877,6.0712,6.3168,6.3671,6.2859,6.1157,6.1466,5.8952,5.4426,5.3722,0.0,0.0,0.0,6.0902,6.4193,6.5566,6.7191,6.9009,6.9899,7.0131,6.9821,6.9804,6.9864,6.998,6.9082,6.45,5.6553,0.0,0.0,5.6121,5.9762,6.3675,6.7794,7.178,7.3984,7.4297,7.4492,7.418,7.332,7.2461,7.1992,7.1992,7.1484,6.9922,6.7265,6.4575,6.0381,0.0,0.0,0.0,0.0,0.0,0.0,0.0,0.0,0.0,0.0,0.0,4.2124,3.8815,0.0,0.0,0.0,4.6429,4.73,4.7778,4.9856,0.0,0.0,0.0,0.0,0.0,0.0,0.0,5.507,5.9973,6.3858,6.5397,6.5743,6.609,6.6744,6.6821,6.6513,6.5705,0.0,6.9744,7.0129,7.0579,7.1079,7.1591,7.0986,7.0832,7.2014,7.3399,7.4437,7.4514,7.5361,7.5976,7.5976,7.5976,7.5976,7.5976,7.5976,7.5861,7.5361,7.563,7.5976,7.5976,7.5976,7.5976,6.9687,6.918,6.3535,6.19,6.3181,6.4056,6.5196,6.6495,6.6572,6.6147,6.5489,6.6185,6.4329,6.0499,5.8927,0.0,6.4075,6.4247,6.5986,6.9005,6.9877,7.0711,7.1523,7.2242,7.2203,7.1407,7.133,7.0943,7.0148,6.7911,6.6741,6.6704,6.6072,6.4403,6.2055,6.417,6.6759,6.9492,7.2734,7.4922,7.5937,7.5078,7.4219,7.3437,7.25,7.1992,7.1992,7.1992,7.1953,7.168,6.7265,6.4079,6.2433,0.0,0.0,0.0,0.0,0.0,0.0,0.0,0.0,0.0,0.0,0.0,0.0,0.0,0.0,0.0,5.2473,0.0,5.3818,5.3087,0.0,0.0,0.0,5.2664,5.5857,5.8501,6.0718,6.2228,0.0,0.0,6.7513,6.8898,7.0552,7.2283,7.2245,7.1783,7.0898,7.2168,7.2899,7.1398,7.1283,7.136,7.1783,7.2717,7.3995,7.5322,7.5976,7.5899,7.5899,7.5938,7.5976,7.5976,7.5976,7.5976,7.5976,7.5976,7.5976,7.5938,7.5976,7.5976,7.5976,7.5976,7.6015,7.1406,7.1289,6.9796,6.8574,6.7642,6.849,6.8949,6.9164,6.9783,6.9589,6.8816,6.9009,6.8197,6.665,6.6224,6.6611,6.7652,6.8906,6.991,7.0783,7.2275,7.3071,7.3264,7.2839,7.2468,7.2275,7.1601,7.1523,7.1971,7.1601,7.0711,6.9497,6.9449,6.7461,6.3767,6.4255,6.6516,7.0351,7.1875,7.4023,7.6719,7.539,7.4492,7.4297,7.2812,7.1992,7.1992,7.1992,7.1992,7.1914,7.0664,6.8043,6.3784,5.7528,0.0,0.0,0.0,0.0,0.0,0.0,0.0,0.0,0.0,4.6855,4.1546,0.0,4.9545,0.0,5.4766,5.8248,5.8934,5.8819,0.0,0.0,5.778,5.8242,6.0358,6.3407,6.5216,6.5013,6.7936,7.0256,7.0898,7.136,7.2476,7.4668,7.2822,7.0937,7.0206,7.2014,7.336,7.3091,7.3937,7.4784,7.4707,7.5091,7.5553,7.5938,7.5976,7.5976,7.5976,7.5976,7.5976,7.5976,7.5976,7.5976,7.5976,7.5976,7.5976,7.5976,7.5976,7.5976,7.5976,7.5976,7.6207,7.2812,7.3164,7.3164,7.2491,7.1416,7.112,7.0866,7.0711,7.1098,7.1253,7.1175,7.1562,7.1485,7.1098,7.1081,7.1081,7.1137,7.2065,7.2468,7.2523,7.3435,7.4077,7.4425,7.396,7.3728,7.369,7.2861,7.2513,7.259,7.2435,7.2087,7.1545,7.1721,7.038,6.7727,6.6201,6.7031,7.0117,7.1758,7.4062,7.6992,7.5508,7.4062,7.289,7.1211,6.957,6.8047,6.8008,6.7812,6.7422,6.7312,6.5741,6.2421,5.7702,5.3378,0.0,0.0,0.0,0.0,0.0,0.0,0.0,0.0,0.0,0.0,0.0,5.3299,5.2858,5.8269,6.132,6.0319,6.1243,6.205,6.232,6.3012,6.4282,6.6359,6.8616,6.9898,6.9821,7.1783,7.336,7.3822,7.3899,7.4399,7.5822,7.4361,7.3014,7.2706,7.3783,7.4745,7.5168,7.5976,7.6583,7.6583,7.6553,7.6438,7.6092,7.5976,7.5976,7.5976,7.5976,7.5976,7.5976,7.5976,7.5976,7.5976,7.5976,7.5976,7.5976,7.5976,7.5976,7.5976,7.5976,7.6245,7.3906,7.457,7.457,7.4531,7.4297,7.2744,7.1998,7.1855,7.1717,7.2065,7.2839,7.3574,7.3883,7.3883,7.3889,7.3889,7.3889,7.4005,7.406,7.403,7.417,7.4618,7.5276,7.516,7.5105,7.5066,7.4254,7.3502,7.2745,7.2164,7.2189,7.2831,7.2912,7.2539,7.1562,6.8711,6.7969,6.9492,7.1992,7.4414,7.6601,7.4687,7.2539,7.0273,6.8555,6.6289,6.332,6.3164,6.2812,6.207,6.1861,6.1573,6.1079,5.6844,5.3802,0.0,4.8376,0.0,0.0,0.0,0.0,0.0,0.0,0.0,0.0,5.6912,5.7597,5.7949,6.2094,6.3758,6.132,6.3128,6.5089,6.6705,6.8167,6.9975,7.2206,7.3206,7.3976,7.4784,7.5553,7.5976,7.5899,7.5976,7.5976,7.5976,7.5861,7.5745,7.6053,7.6053,7.6399,7.7323,7.7352,7.7198,7.7207,7.7246,7.7053,7.6476,7.6438,7.6322,7.6438,7.6399,7.6361,7.6361,7.6438,7.6399,7.6322,7.6361,7.6361,7.6438,7.6476,7.6399,7.6284,7.6245,7.6515,7.4453,7.457,7.457,7.457,7.4531,7.409,7.3815,7.3695,7.3657,7.3712,7.3806,7.3883,7.3883,7.3883,7.3883,7.3883,7.3938,7.4556,7.4866,7.4904,7.5585,7.6011,7.6088,7.543,7.5121,7.502,7.4286,7.3806,7.3657,7.3657,7.3084,7.1963,7.2106,7.1445,6.9961,0.0,0.0,0.0,7.1992,7.3555,7.3867,7.0312,6.8125,6.7578,6.5937,0.0,6.4101,6.4062,6.3984,6.3789,6.3078,0.0,0.0,0.0,0.0,0.0,0.0,0.0,0.0,0.0,0.0,0.0,5.7302,5.678,5.7742,5.9204,6.094,6.2974,6.4698,6.6814,6.9552,7.0206,7.0937,7.1937,7.2322,7.3014,7.4091,7.4361,7.4822,7.5668,7.5899,7.5976,7.5976,7.5976,7.5976,7.5976,7.5976,7.6284,7.6938,7.7015,7.7361,7.8054,7.7823,7.74,7.7301,7.737,7.763,7.7823,7.8015,7.8015,7.7977,7.8015,7.8015,7.8015,7.8015,7.8015,7.8015,7.8015,7.79,7.8015,7.7977,7.7823,7.7207,7.7053,7.7515,7.5508,0.0,7.5898,7.5898,0.0,7.582,7.5768,7.5633,7.4622,7.4383,7.4695,7.5082,7.5198,7.5121,7.516,7.5121,7.5175,7.5562,7.574,7.5779,7.6204,7.6397,7.6359,7.5972,7.574,7.5701,7.4904,7.4479,7.4486,7.4331,7.3791,7.2969,7.3594,7.3476,7.2656,7.3008,7.2656,7.1367,7.2656,7.3906,7.5039,7.2695,7.0742,6.9453,6.8164,0.0,0.0,0.0,0.0,0.0,0.0,0.0,0.0,6.1617,0.0,6.22,5.9878,5.9163,6.0727,6.1224,6.2698,6.5562,6.5807,6.4922,6.2837,6.4971,6.7128,6.88,6.9385,7.0518,7.2591,7.3206,7.3591,7.4053,7.4476,7.4938,7.5245,7.5322,7.5515,7.5899,7.5976,7.5976,7.5976,7.5976,7.5976,7.5976,7.5976,7.6322,7.7092,7.7284,7.7707,7.893,7.9246,7.9015,7.86,7.8523,7.8438,7.8592,7.8861,7.9131,7.9131,7.9515,7.9785,7.9746,7.9438,7.9131,7.9092,7.8823,7.8477,7.8477,7.8477,7.8592,7.8438,7.8207,7.8246,7.6562,7.7187,7.7226,7.7226,7.7226,7.7226,7.7211,7.7073,0.0,0.0,0.0,7.6289,7.6514,7.6397,7.6397,7.6397,7.6397,7.6397,7.6397,7.6397,7.6397,7.6397,7.6397,7.6397,7.6397,7.6359,7.5701,7.533,7.533,7.4866,7.467,7.4765,7.5664,7.6133,7.6172,7.6836,7.6133,7.4062,7.3555,7.4336,7.6406,7.5234,7.3515,7.1367,7.0508,6.8359,6.4922,6.4765,6.4021,6.2439,6.2019,6.2116,6.2649,6.2412,6.2568,6.3312,6.3376,6.4535,6.7193,6.8058,6.9566,7.2272,7.3245,7.2157,6.8473,7.0812,7.2762,7.363,7.3726,7.3726,7.3937,7.4514,7.4938,7.4938,7.5592,7.5976,7.5976,7.5976,7.5976,7.5976,7.5976,7.5976,7.5976,7.5976,7.5976,7.5976,7.5976,7.6399,7.7284,7.7746,7.8323,7.9507,8.0054,8.0439,8.0008,7.99,7.9785,7.9477,8.0015,8.0439,8.0592,8.1054,8.1477,8.1516,8.09,8.0592,8.0477,8.0092,7.9438,7.94,7.94,7.9631,8.0208,7.9939,7.9631,7.707,7.7226,7.7226,7.7226,7.7226,7.7226,7.7226,7.7145,7.6758,7.6594,7.6611,7.6573,7.6514,7.6397,7.6397,7.6397,7.6397,7.6397,7.6397,7.6397,7.6397,7.6397,7.6397,7.6397,7.6397,7.6397,7.6243,7.6281,7.6397,7.6421,7.6513,7.6601,7.6875,7.6992,7.7031,7.7148,7.7031,7.6601,7.4414,7.3476,7.3789,7.0859,6.914,6.875,6.8008,6.7226,6.6562,6.6601,6.6037,6.4924,6.4066,6.4883,6.7598,6.7036,6.8274,7.1733,7.2036,7.2268,7.2739,7.28,7.2971,7.3393,7.4081,7.3937,7.2773,7.3042,7.3668,7.4447,7.4562,7.4832,7.5515,7.5707,7.5745,7.5784,7.5938,7.5976,7.5976,7.5976,7.5976,7.5976,7.5976,7.5976,7.5976,7.5976,7.6015,7.6015,7.6207,7.663,7.8015,7.8977,7.9477,7.9715,7.99,7.9939,8.0061,8.0477,8.1016,8.1708,8.2362,8.2862,8.2862,8.3054,8.3208,8.3247,8.3016,8.2939,8.2971,8.2978,8.2593,8.2509,8.2439,8.2631,8.2747,8.2631,8.2285,7.7226,7.7226,7.7226,7.7226,7.7226,7.7226,7.7226,7.7187,7.7148,7.7026,7.6894,7.6863,7.6707,7.6514,7.6514,7.6475,7.6397,7.6397,7.6397,7.6397,7.6397,7.6397,7.6397,7.6397,7.6397,7.6397,7.6475,7.6552,7.6598,7.6801,7.6926,7.6992,7.7148,7.7226,7.7226,7.7226,7.7226,7.7148,7.6015,7.543,7.539,7.3867,7.3086,7.3086,7.2656,7.2265,7.1797,7.1797,7.1331,7.0319,6.9828,7.0215,7.1545,7.1214,7.1849,7.3744,7.3876,7.3837,7.3837,7.4166,7.4539,7.4988,7.5347,7.5369,7.4976,7.4899,7.5014,7.537,7.5408,7.5592,7.5938,7.5976,7.5976,7.5976,7.5976,7.5976,7.5976,7.5976,7.5976,7.5976,7.5976,7.5976,7.5976,7.5976,7.6207,7.6592,7.7015,7.7823,7.8977,7.9515,7.9977,8.04,8.0516,8.0746,8.1061,8.1477,8.2093,8.2862,8.3747,8.4247,8.4362,8.4593,8.4901,8.4901,8.4632,8.4324,8.4318,8.3862,8.367,8.3593,8.3593,8.3593,8.3593,8.3593,8.3285,7.7226,7.7226,7.7226,7.7226,7.7226,7.7226,7.7226,7.7226,7.7187,7.7148,7.707,7.7001,7.6827,7.6626,7.6598,7.6514,7.6397,7.6397,7.6397,7.6397,7.6397,7.6397,7.6397,7.6397,7.6397,7.6436,7.6552,7.6626,7.6721,7.6906,7.6992,7.707,7.7148,7.7226,7.7226,7.7226,7.7226,7.7226,7.7383,7.7422,7.7226,7.7226,7.7187,7.7226,7.7187,7.6875,7.625,7.6172,7.574,7.4783,7.4591,7.4425,7.4276,7.4215,7.4247,7.444,7.444,7.444,7.4432,7.4885,7.5491,7.6147,7.6198,7.6184,7.6216,7.6111,7.6034,7.6034,7.6005,7.6015,7.6005,7.6015,7.5976,7.5976,7.5976,7.5976,7.5976,7.5976,7.5976,7.5976,7.5976,7.5976,7.6015,7.6169,7.6669,7.7476,7.8284,7.9054,7.9669,7.9939,8.04,8.09,8.1246,8.1554,8.2215,8.2708,8.317,8.3824,8.4593,8.5055,8.5247,8.5709,8.6017,8.5901,8.5555,8.5209,8.5093,8.4709,8.4324,8.4362,8.4362,8.4286,8.4324,8.4286,8.3978,7.7226,7.7226,7.7226,7.7226,7.7226,7.7226,7.7226,7.7226,7.7226,7.7187,7.7187,7.707,7.6872,7.6638,7.6609,7.6552,7.6397,7.6397,7.6397,7.6397,7.6397,7.6397,7.6397,7.6397,7.6475,7.6552,7.6591,7.6738,7.6953,7.6992,7.707,7.7148,7.7187,7.7265,7.7265,7.7265,7.7226,7.7226,7.8008,7.8008,7.7265,7.7226,7.7226,7.7226,7.7226,7.7187,7.7031,7.707,7.6601,7.5688,7.5471,7.5337,7.5188,7.5066,7.5353,7.6049,7.6127,7.6165,7.6127,7.6171,7.6185,7.6276,7.6225,7.6198,7.621,7.6172,7.6172,7.6172,7.6139,7.6111,7.6062,7.6005,7.5976,7.5976,7.5976,7.5976,7.5976,7.5976,7.5976,7.5976,7.5976,7.6015,7.6169,7.6784,7.7553,7.8284,7.9169,7.9708,7.9939,8.0439,8.09,8.1208,8.167,8.217,8.2522,8.3708,8.4401,8.4786,8.544,8.5786,8.5901,8.594,8.6094,8.6094,8.6017,8.5901,8.5901,8.5863,8.5786,8.5517,8.5555,8.5747,8.5863,8.5709,8.5209,7.7226,7.7226,7.7226,7.7226,7.7226,7.7226,7.7226,7.7226,7.7226,7.7226,7.7187,7.7148,7.6983,7.6841,7.6824,7.6746,7.663,7.6552,7.6552,7.663,7.6475,7.6475,7.663,7.6552,7.6591,7.6707,7.6784,7.6864,7.6992,7.707,7.7422,7.793,7.7969,7.8203,7.8633,7.8672,7.8672,7.8672,7.9023,7.9023,7.8672,7.8203,7.7969,7.793,7.7461,7.7226,7.7226,7.7226,7.6953,7.6484,7.637,7.6205,7.6057,7.5956,7.6011,7.6359,7.6397,7.6397,7.6397,7.6374,7.635,7.635,7.6326,7.6326,7.6326,7.6326,7.6326,7.6301,7.6198,7.6129,7.6072,7.6044,7.5976,7.5976,7.5976,7.5976,7.5976,7.5976,7.5976,7.5976,7.5976,7.6245,7.6823,7.7938,7.8823,7.9323,8.0015,8.0477,8.0592,8.09,8.1285,8.1785,8.2516,8.3016,8.3176,8.4055,8.4978,8.5517,8.5863,8.6094,8.6094,8.6094,8.6094,8.6094,8.6094,8.6094,8.6055,8.6094,8.6094,8.6094,8.6094,8.6094,8.6094,8.6094,8.5709,7.789,7.789,7.789,7.789,7.789,7.789,7.789,7.789,7.789,7.789,7.7851,7.7656,7.7656,7.7656,7.7221,7.6924,7.6815,7.6691,7.6711,7.6776,7.6609,7.6609,7.6769,7.6708,7.6725,7.6885,7.7233,7.7501,7.7695,7.7851,7.8203,7.875,7.8828,7.914,7.9648,7.9726,7.9726,7.9726,7.9883,8.0078,7.9961,7.9492,7.9062,7.8789,7.8203,7.7773,7.7578,7.7539,7.7383,7.707,7.6872,7.6747,7.6637,7.6475,7.6397,7.6397,7.6397,7.6397,7.6397,7.6397,7.6397,7.6397,7.6397,7.6397,7.6397,7.6397,7.6397,7.6397,7.6224,7.616,7.6101,7.6082,7.6015,7.5976,7.5976,7.5976,7.5976,7.5976,7.6092,7.6284,7.6438,7.6784,7.79,7.9015,7.9785,8.0169,8.0669,8.1093,8.1131,8.1285,8.167,8.2247,8.3208,8.3901,8.4022,8.4747,8.5478,8.5824,8.6094,8.6094,8.6094,8.6094,8.6094,8.6094,8.6094,8.6094,8.6094,8.6094,8.6094,8.6094,8.6094,8.6094,8.6094,8.6094,8.6094,7.9609,7.957,7.957,7.9492,7.957,7.9531,7.9531,7.9414,7.9531,7.9531,7.9375,7.875,7.8828,7.9336,7.7851,7.6995,7.6866,7.6934,7.6985,7.6961,7.6926,7.6816,7.6815,7.6793,7.691,7.725,7.793,7.8635,7.9414,7.9492,7.9609,7.9648,7.9648,7.9687,7.9844,7.9883,7.9765,7.9961,8.0586,8.0937,8.0937,8.0898,8.0469,7.9805,7.957,7.914,7.8555,7.8437,7.8086,7.7226,7.6989,7.6825,7.6776,7.6552,7.6397,7.6397,7.6397,7.6397,7.6397,7.6397,7.6397,7.6397,7.6397,7.6397,7.6397,7.6397,7.6397,7.6397,7.632,7.6248,7.6198,7.6101,7.6015,7.6015,7.5976,7.5976,7.5976,7.6092,7.6399,7.7006,7.7246,7.7938,7.94,7.9708,8.0246,8.0746,8.1054,8.1131,8.1323,8.1785,8.2208,8.2747,8.3708,8.4824,8.4907,8.533,8.5863,8.6094,8.6094,8.6094,8.6094,8.6094,8.6094,8.6094,8.6094,8.6094,8.6094,8.6094,8.6094,8.6094,8.6094,8.6094,8.6094,8.6094,8.6094,7.9726,7.9726,7.9726,7.9726,7.9726,7.9726,7.9726,7.9726,7.9726,7.9726,7.9648,7.9375,7.9453,7.9687,7.9023,7.8699,7.8633,7.8626,7.8621,7.8651,7.8525,7.8525,7.8642,7.8591,7.8621,7.8759,7.9049,7.9371,7.9648,7.9726,8.0,8.0469,8.0547,8.0781,8.125,8.1367,8.1367,8.1367,8.1719,8.1836,8.1797,8.1836,8.164,8.1328,8.0273,7.957,7.9297,7.9258,7.8867,7.8047,7.7777,7.7385,7.6876,7.6552,7.6397,7.6397,7.6397,7.6397,7.6397,7.6397,7.6397,7.6397,7.6397,7.6397,7.6397,7.6397,7.6397,7.6359,7.632,7.6297,7.6248,7.6133,7.6062,7.6034,7.6005,7.6015,7.6092,7.6476,7.6976,7.7391,7.813,7.9177,7.9708,8.0285,8.0746,8.1016,8.1093,8.1323,8.1785,8.217,8.2708,8.3708,8.4478,8.5093,8.567,8.5863,8.6094,8.6094,8.6094,8.6094,8.6094,8.6094,8.6094,8.6094,8.6094,8.6094,8.6094,8.6094,8.6094,8.6094,8.6094,8.6094,8.6094,8.6094,8.6094,8.0547,8.0547,8.0547,8.0547,8.0547,8.0547,8.0547,8.0547,8.0547,8.0547,8.0508,8.0234,8.0273,8.0469,8.0273,8.0312,8.0429,7.9922,7.9648,7.9687,7.9567,7.9577,7.9678,7.9645,7.9666,7.9726,8.0,8.0234,8.0547,8.0547,8.0859,8.1406,8.1406,8.1679,8.2226,8.2304,8.2304,8.2304,8.2304,8.2304,8.2304,8.2304,8.2304,8.2148,8.1133,8.039,8.0156,8.0117,7.9726,7.8984,7.8701,7.8163,7.7279,7.6962,7.6668,7.6436,7.6397,7.6397,7.6397,7.6397,7.6397,7.6397,7.6397,7.6397,7.6397,7.6397,7.6397,7.6397,7.6359,7.632,7.6374,7.6482,7.6453,7.6244,7.6303,7.6399,7.6438,7.7169,7.7746,7.8314,7.9361,8.0092,8.0285,8.0746,8.1016,8.1093,8.1285,8.1747,8.217,8.2901,8.3439,8.467,8.5132,8.5517,8.5863,8.6055,8.6094,8.6094,8.6094,8.6094,8.6094,8.6094,8.6094,8.6094,8.6094,8.6094,8.6094,8.6094,8.6094,8.6094,8.6094,8.6094,8.6094,8.6094,8.6094,8.2226,8.2148,8.2265,8.2109,8.207,8.207,8.2187,8.2109,8.2148,8.2031,8.1875,8.1328,8.1406,8.1875,8.1289,8.1445,8.1719,8.0586,7.9961,7.9961,7.9922,7.9883,7.9961,8.0,7.9961,8.0,8.0625,8.1406,8.2031,8.2031,8.2109,8.2226,8.2187,8.2187,8.2304,8.2304,8.2304,8.2304,8.2304,8.2304,8.2304,8.2304,8.2304,8.2304,8.2148,8.1758,8.1015,8.1015,8.0625,7.9844,7.965,7.9067,7.8092,7.7775,7.7349,7.6668,7.6436,7.6436,7.6397,7.6397,7.6397,7.6397,7.6397,7.6397,7.6397,7.6397,7.6436,7.6552,7.6514,7.6514,7.6707,7.7176,7.7216,7.6388,7.6842,7.7314,7.7438,7.8015,7.8823,7.9592,8.0477,8.1016,8.1054,8.1054,8.1093,8.1208,8.1708,8.2247,8.2554,8.3632,8.467,8.5055,8.5478,8.5901,8.6017,8.6094,8.6094,8.6094,8.6094,8.6094,8.6094,8.6094,8.6094,8.6094,8.6094,8.6094,8.6094,8.6094,8.6094,8.6094,8.6094,8.6094,8.6094,8.6094,8.6094,8.2304,8.2304,8.2304,8.2304,8.2304,8.2304,8.2304,8.2304,8.2304,8.2304,8.2265,8.2031,8.207,8.2187,8.1992,8.2031,8.2226,8.1719,8.1484,8.1445,8.1445,8.1445,8.1445,8.1445,8.1484,8.1523,8.1758,8.2031,8.2226,8.2304,8.2304,8.2304,8.2304,8.2304,8.2304,8.2304,8.2304,8.2304,8.2304,8.2304,8.2304,8.2304,8.2304,8.2304,8.2304,8.2148,8.1914,8.1875,8.1484,8.0625,8.048,7.9922,7.9033,7.8757,7.8254,7.7442,7.7287,7.6978,7.6475,7.6436,7.6436,7.6397,7.6436,7.6397,7.6397,7.6436,7.6707,7.7156,7.7326,7.7457,7.8075,7.836,7.8091,7.7175,7.7708,7.819,7.8314,7.8892,7.9738,8.0516,8.0939,8.1093,8.1093,8.1124,8.1193,8.1239,8.1893,8.2547,8.3247,8.4209,8.517,8.5632,8.5978,8.6094,8.6094,8.6094,8.6094,8.6094,8.6094,8.6094,8.6094,8.6094,8.6094,8.6094,8.6094,8.6094,8.6094,8.6094,8.6094,8.6094,8.6094,8.6094,8.6094,8.6094,8.6094,8.2304,8.2304,8.2304,8.2304,8.2304,8.2304,8.2304,8.2304,8.2304,8.2304,8.2304,8.2304,8.2304,8.2304,8.2304,8.2304,8.2304,8.2304,8.2304,8.2304,8.2304,8.2304,8.2304,8.2304,8.2304,8.2304,8.2304,8.2304,8.2304,8.2304,8.2304,8.2304,8.2304,8.2304,8.2304,8.2304,8.2304,8.2304,8.2304,8.2304,8.2304,8.2304,8.2304,8.2304,8.2304,8.2304,8.2304,8.2304,8.2031,8.1562,8.1367,8.0781,7.9905,7.9678,7.9221,7.8486,7.8177,7.7906,7.7442,7.7481,7.7365,7.7365,7.7365,7.7365,7.7365,7.7388,7.7659,7.8046,7.8177,7.8385,7.8887,7.9249,7.9044,7.8567,7.8844,7.9182,7.943,7.9931,8.0453,8.1041,8.1231,8.1258,8.1323,8.1671,8.1694,8.1831,8.2661,8.3418,8.4157,8.4786,8.5517,8.594,8.6055,8.6094,8.6094,8.6094,8.6094,8.6094,8.6094,8.6094,8.6094,8.6094,8.6094,8.6094,8.6094,8.6094,8.6094,8.6094,8.6094,8.6094,8.6094,8.6094,8.6094,8.6094,8.6094,8.2304,8.2304,8.2304,8.2304,8.2304,8.2304,8.2304,8.2304,8.2304,8.2304,8.2304,8.2304,8.2304,8.2304,8.2304,8.2304,8.2304,8.2304,8.2304,8.2304,8.2304,8.2304,8.2304,8.2304,8.2304,8.2304,8.2304,8.2304,8.2304,8.2304,8.2304,8.2304,8.2304,8.2304,8.2304,8.2304,8.2304,8.2304,8.2304,8.2304,8.2304,8.2304,8.2304,8.2304,8.2304,8.2304,8.2304,8.2304,8.2304,8.2265,8.207,8.164,8.0976,8.0614,8.0105,7.9323,7.9144,7.8989,7.895,7.8718,7.8757,7.8718,7.8718,7.8989,7.8757,7.8665,7.8766,7.9037,7.9067,7.9133,7.9365,7.9854,8.0138,8.0164,8.0029,8.026,8.09,8.1016,8.1137,8.1298,8.1402,8.1504,8.1776,8.2378,8.2605,8.2995,8.3979,8.4628,8.4905,8.5344,8.5901,8.6094,8.6094,8.6094,8.6094,8.6094,8.6094,8.6094,8.6094,8.6094,8.6094,8.6094,8.6094,8.6094,8.6094,8.6094,8.6094,8.6094,8.6094,8.6094,8.6094,8.6094,8.6094,8.6094,8.6094,8.2304,8.2304,8.2304,8.2304,8.2304,8.2304,8.2304,8.2304,8.2304,8.2304,8.2304,8.2304,8.2304,8.2304,8.2304,8.2304,8.2304,8.2304,8.2304,8.2304,8.2304,8.2304,8.2304,8.2304,8.2304,8.2304,8.2304,8.2304,8.2304,8.2304,8.2304,8.2304,8.2304,8.2304,8.2304,8.2304,8.2304,8.2304,8.2304,8.2304,8.2304,8.2304,8.2304,8.2304,8.2304,8.2304,8.2304,8.2304,8.2304,8.2304,8.2265,8.2109,8.1758,8.1538,8.1019,8.0275,7.9956,7.9608,7.9183,7.9067,7.9067,7.9028,7.9183,7.9028,7.8989,7.8989,7.9284,7.9671,7.9893,8.0164,8.0666,8.1001,8.1066,8.1053,8.0839,8.0876,8.1047,8.1208,8.133,8.1387,8.1547,8.1948,8.2426,8.2862,8.3271,8.3794,8.4576,8.5294,8.5429,8.5637,8.612,8.6094,8.6094,8.6094,8.6094,8.6094,8.6094,8.6094,8.6094,8.6132,8.6132,8.6094,8.6094,8.6094,8.6094,8.6094,8.6094,8.6094,8.6094,8.6094,8.6094,8.6094,8.6094,8.6094,8.6094,8.2304,8.2304,8.2304,8.2304,8.2304,8.2304,8.2304,8.2304,8.2304,8.2304,8.2304,8.2304,8.2304,8.2304,8.2304,8.2304,8.2304,8.2304,8.2304,8.2304,8.2304,8.2304,8.2304,8.2304,8.2304,8.2304,8.2304,8.2304,8.2304,8.2304,8.2304,8.2304,8.2304,8.2304,8.2304,8.2304,8.2304,8.2304,8.2304,8.2304,8.2304,8.2304,8.2304,8.2304,8.2304,8.2304,8.2304,8.2304,8.2304,8.2304,8.2304,8.2265,8.2187,8.1992,8.1609,8.105,8.0846,8.0536,8.0188,8.0034,8.0072,8.0072,8.0034,8.0072,8.0111,8.0072,8.0343,8.0653,8.0769,8.1014,8.1349,8.1504,8.1453,8.1362,8.1291,8.1244,8.1154,8.1278,8.1446,8.1613,8.2026,8.2499,8.3143,8.3714,8.4334,8.4871,8.5562,8.5807,8.5862,8.6057,8.6184,8.6126,8.6094,8.6094,8.6094,8.6094,8.6209,8.6209,8.6671,8.6594,8.6401,8.6363,8.6247,8.6286,8.617,8.617,8.6286,8.6286,8.6094,8.6094,8.6094,8.617,8.6209,8.6478,8.6401,8.2304,8.2304,8.2304,8.2304,8.2304,8.2304,8.2304,8.2304,8.2304,8.2304,8.2304,8.2304,8.2304,8.2304,8.2304,8.2304,8.2304,8.2304,8.2304,8.2304,8.2304,8.2304,8.2304,8.2304,8.2304,8.2304,8.2304,8.2304,8.2304,8.2304,8.2304,8.2304,8.2304,8.2304,8.2304,8.2304,8.2304,8.2304,8.2304,8.2304,8.2304,8.2304,8.2304,8.2304,8.2304,8.2304,8.2304,8.2304,8.2304,8.2304,8.2304,8.2304,8.2265,8.2078,8.1913,8.1779,8.1542,8.1387,8.1426,8.1271,8.1387,8.131,8.1349,8.1504,8.131,8.1233,8.1271,8.1349,8.1504,8.1465,8.1504,8.1504,8.1478,8.1465,8.1424,8.1446,8.1427,8.1493,8.1628,8.1893,8.2725,8.3366,8.4089,8.498,8.6051,8.587,8.6388,8.6379,8.6328,8.63,8.6268,8.6126,8.6094,8.6094,8.6094,8.6094,8.6286,8.644,8.7248,8.744,8.7094,8.6901,8.6671,8.6632,8.7017,8.7055,8.6863,8.6709,8.6555,8.6671,8.7055,8.6824,8.6555,8.6978,8.7094,8.2304,8.2304,8.2304,8.2304,8.2304,8.2304,8.2304,8.2344,8.2304,8.2344,8.2304,8.2304,8.2304,8.2304,8.2304,8.2304,8.2304,8.2304,8.2304,8.2304,8.2304,8.2304,8.2304,8.2304,8.2304,8.2304,8.2304,8.2304,8.2304,8.2304,8.2304,8.2304,8.2304,8.2304,8.2304,8.2304,8.2304,8.2304,8.2304,8.2304,8.2304,8.2304,8.2304,8.2304,8.2304,8.2304,8.2304,8.2304,8.2304,8.2304,8.2304,8.2304,8.2265,8.2148,8.2016,8.1871,8.176,8.162,8.1542,8.1504,8.1504,8.1504,8.1504,8.1504,8.1504,8.1504,8.1504,8.1504,8.1504,8.1504,8.1504,8.1504,8.1556,8.1685,8.2045,8.2419,8.2509,8.2554,8.2571,8.2883,8.3699,8.4714,8.5338,8.5651,8.6378,8.6862,8.6986,8.6942,8.6749,8.6544,8.6317,8.6126,8.6094,8.617,8.6478,8.6671,8.7055,8.7286,8.7979,8.8594,8.8248,8.8017,8.7979,8.8055,8.8209,8.8017,8.7594,8.7825,8.7825,8.794,8.7979,8.7786,8.7632,8.7825,8.7786,8.2304,8.2304,8.2304,8.2304,8.2304,8.2304,8.2539,8.2773,8.2461,8.2539,8.2734,8.2539,8.2304,8.2304,8.2304,8.2304,8.2304,8.2304,8.2304,8.2304,8.2304,8.2304,8.2304,8.2304,8.2304,8.2304,8.2304,8.2304,8.2304,8.2304,8.2304,8.2304,8.2304,8.2304,8.2304,8.2304,8.2304,8.2304,8.2304,8.2304,8.2304,8.2304,8.2304,8.2304,8.2304,8.2304,8.2304,8.2304,8.2304,8.2304,8.2304,8.2304,8.2265,8.2187,8.2031,8.192,8.1794,8.1644,8.1542,8.1504,8.1504,8.1504,8.1504,8.1504,8.1504,8.1504,8.1504,8.1504,8.1504,8.1504,8.1542,8.1968,8.2045,8.2238,8.2844,8.3382,8.3444,8.3525,8.3591,8.3852,8.4668,8.5395,8.5963,8.6353,8.6705,8.719,8.7086,8.7035,8.6807,8.6568,8.6346,8.6184,8.6126,8.6286,8.6786,8.7325,8.8017,8.844,8.9017,8.9633,8.9825,8.9671,8.9556,8.9325,8.894,8.8632,8.8363,8.8671,8.8825,8.8556,8.8479,8.8632,8.8632,8.8479,8.8402,8.2304,8.2304,8.2304,8.2304,8.2304,8.2461,8.2812,8.3164,8.2773,8.2929,8.332,8.2656,8.2383,8.25,8.2344,8.2304,8.2304,8.2304,8.2304,8.2304,8.2304,8.2304,8.2344,8.25,8.2617,8.25,8.2344,8.2304,8.2304,8.2304,8.2304,8.2304,8.2304,8.2304,8.2304,8.2304,8.2304,8.2304,8.2304,8.2304,8.2304,8.2304,8.2304,8.2304,8.2304,8.2304,8.2304,8.2304,8.2304,8.2304,8.2304,8.2304,8.2265,8.2187,8.2051,8.1909,8.1794,8.1644,8.1542,8.1504,8.1504,8.1504,8.1504,8.1504,8.1504,8.1504,8.1504,8.162,8.1658,8.1852,8.1774,8.2509,8.2935,8.3153,8.3793,8.425,8.4382,8.4545,8.4839,8.4786,8.5546,8.6347,8.6588,8.6861,8.7173,8.7393,8.7242,8.7089,8.6865,8.6809,8.671,8.6832,8.6896,8.7094,8.7594,8.8171,8.8863,8.9248,8.9863,9.0325,9.0825,9.0633,9.0287,8.9787,8.9402,8.9248,8.9286,8.9556,8.9517,8.9094,8.921,8.9633,8.9479,8.9133,8.9133,8.2304,8.2304,8.2304,8.2304,8.2422,8.3047,8.3086,8.2695,8.3164,8.3437,8.3515,8.2695,8.2695,8.3008,8.2539,8.2344,8.2383,8.2539,8.2539,8.25,8.2539,8.2539,8.2695,8.3164,8.3359,8.3164,8.2851,8.2539,8.2383,8.2304,8.2304,8.2304,8.2304,8.2304,8.2304,8.2304,8.2304,8.2304,8.2304,8.2304,8.2304,8.2304,8.2304,8.2304,8.2304,8.2304,8.2304,8.2304,8.2304,8.2304,8.2304,8.2304,8.2304,8.2265,8.2148,8.1956,8.1873,8.1736,8.1581,8.1504,8.1504,8.1504,8.1504,8.1504,8.1504,8.1542,8.1581,8.1813,8.2213,8.26,8.2625,8.336,8.3786,8.4121,8.4674,8.5312,8.5536,8.5962,8.6173,8.5806,8.6502,8.7095,8.7095,8.7134,8.729,8.7347,8.7203,8.7206,8.7098,8.7258,8.7475,8.7687,8.7935,8.8171,8.8517,8.9133,8.9748,8.9902,9.0364,9.071,9.1056,9.1133,9.0825,9.0364,9.0325,9.0479,9.0556,9.0517,9.0441,9.021,9.0441,9.071,9.0402,9.0094,9.0364,8.2969,8.2929,8.25,8.2304,8.2461,8.3203,8.3633,8.3633,8.3633,8.414,8.4219,8.3242,8.2773,8.3203,8.2695,8.25,8.2969,8.3515,8.3633,8.3633,8.3633,8.3633,8.3594,8.4101,8.4219,8.4179,8.3828,8.3359,8.2969,8.25,8.2422,8.2304,8.2304,8.2304,8.2304,8.2304,8.2304,8.2304,8.2304,8.2304,8.2304,8.2304,8.2304,8.2304,8.2304,8.2304,8.2304,8.2304,8.2304,8.2304,8.2304,8.2304,8.2304,8.2304,8.2226,8.207,8.1929,8.1813,8.162,8.1581,8.1504,8.1504,8.1542,8.1504,8.1504,8.1542,8.1774,8.2252,8.2935,8.3476,8.3476,8.425,8.4637,8.4895,8.5589,8.6195,8.6477,8.6941,8.6855,8.6579,8.6979,8.7251,8.7329,8.7368,8.7407,8.7338,8.7203,8.723,8.7273,8.7623,8.7963,8.8575,8.8825,8.9133,8.9367,8.9902,9.0325,9.0517,9.071,9.1056,9.121,9.121,9.121,9.0979,9.1171,9.121,9.1133,9.0864,9.1056,9.121,9.1056,9.0979,9.1095,9.1171,9.121,8.3867,8.3828,8.3086,8.2812,8.2969,8.375,8.4297,8.4492,8.4101,8.4492,8.5234,8.3476,8.289,8.3476,8.3359,8.3242,8.3906,8.4609,8.4726,8.4726,8.4726,8.4804,8.4883,8.5078,8.5156,8.5156,8.5078,8.4726,8.3906,8.3359,8.2851,8.2695,8.2617,8.2422,8.2344,8.2304,8.2304,8.2304,8.2304,8.2304,8.2304,8.2304,8.2304,8.2304,8.2304,8.2304,8.2304,8.2304,8.2304,8.2304,8.2304,8.2304,8.2304,8.2304,8.2304,8.2287,8.2059,8.1868,8.1697,8.1581,8.162,8.189,8.1813,8.189,8.2122,8.2393,8.2432,8.3064,8.3799,8.4327,8.4443,8.5062,8.5488,8.5746,8.6359,8.698,8.6982,8.7199,8.7302,8.7237,8.7407,8.7407,8.7407,8.7407,8.7407,8.7338,8.7203,8.7464,8.7564,8.79,8.8373,8.926,8.9748,9.0017,9.0325,9.0556,9.0825,9.0902,9.0979,9.1133,9.121,9.121,9.121,9.121,9.121,9.121,9.121,9.121,9.121,9.121,9.121,9.121,9.121,9.121,9.121,8.4765,8.4726,8.4609,8.4609,8.4648,8.5429,8.5,8.3945,8.4453,8.4375,8.4297,8.3008,8.3242,8.4297,8.4648,8.4648,8.4804,8.5039,8.5195,8.5234,8.5195,8.5195,8.5156,8.5742,8.5976,8.6054,8.6054,8.5547,8.4922,8.4609,8.4101,8.3594,8.3398,8.3125,8.2695,8.2734,8.2304,8.2344,8.2383,8.2344,8.2304,8.2304,8.2304,8.2304,8.2304,8.2304,8.2304,8.2304,8.2304,8.2304,8.2344,8.2304,8.2304,8.2304,8.2695,8.277,8.2495,8.1848,8.191,8.189,8.2045,8.2509,8.2664,8.3051,8.3283,8.3618,8.3708,8.3888,8.4688,8.5113,8.5294,8.5913,8.6377,8.6546,8.6737,8.7071,8.7158,8.7273,8.7407,8.7407,8.7407,8.7407,8.7407,8.7407,8.7401,8.733,8.732,8.7604,8.8028,8.8544,8.9054,8.997,9.0325,9.0594,9.071,9.1018,9.1095,9.121,9.121,9.121,9.121,9.121,9.121,9.121,9.121,9.121,9.121,9.121,9.121,9.121,9.121,9.121,9.121,9.121,9.121,8.6094,8.5586,8.5117,8.4883,8.5,8.582,8.5508,8.4609,8.4726,8.4961,8.4765,8.3594,8.375,8.4844,8.5351,8.5625,8.5742,8.6094,8.6367,8.6289,8.6289,8.6328,8.6484,8.6719,8.6914,8.6875,8.6914,8.6836,8.6172,8.5351,8.4648,8.4453,8.4336,8.4219,8.3633,8.375,8.3789,8.3672,8.332,8.2773,8.2461,8.2344,8.2344,8.2344,8.2344,8.2383,8.2383,8.2304,8.2304,8.2422,8.2695,8.3047,8.3203,8.3476,8.3951,8.3987,8.37,8.3374,8.3231,8.3012,8.3167,8.336,8.3554,8.3708,8.4134,8.4546,8.4779,8.4804,8.5539,8.5952,8.6029,8.6377,8.661,8.6778,8.6909,8.7142,8.7252,8.7337,8.7392,8.742,8.7407,8.7446,8.7486,8.7407,8.744,8.7425,8.766,8.8117,8.8839,8.9764,9.0256,9.0821,9.1018,9.1056,9.1056,9.1171,9.1133,9.121,9.121,9.121,9.121,9.121,9.121,9.121,9.121,9.121,9.121,9.121,9.121,9.121,9.121,9.121,9.121,9.121,9.121,8.7109,8.6484,8.582,8.5429,8.5273,8.5937,8.5703,8.4922,8.4609,8.4922,8.5234,8.4609,8.4648,8.5273,8.6094,8.6523,8.6562,8.7226,8.7461,8.75,8.75,8.7383,8.7304,8.7422,8.7422,8.75,8.7383,8.7304,8.6992,8.6328,8.5625,8.5234,8.5234,8.5039,8.4883,8.4726,8.4648,8.4609,8.4179,8.3672,8.3203,8.3086,8.3047,8.3008,8.2969,8.2969,8.2929,8.3047,8.3047,8.3203,8.3594,8.3945,8.4023,8.4336,8.4765,8.4915,8.4765,8.4779,8.4598,8.4405,8.4289,8.4405,8.4675,8.4908,8.4908,8.5359,8.563,8.5616,8.6041,8.6494,8.661,8.661,8.6687,8.6785,8.6924,8.7176,8.7483,8.775,8.7904,8.7967,8.7915,8.7642,8.7603,8.7446,8.744,8.751,8.7933,8.8568,8.943,9.0419,9.084,9.121,9.121,9.121,9.121,9.121,9.121,9.121,9.121,9.121,9.121,9.121,9.121,9.121,9.121,9.121,9.121,9.121,9.121,9.121,9.121,9.121,9.121,9.121,9.121,8.7461,8.7422,8.7304,8.6797,8.6054,8.6172,8.5703,8.4765,8.4101,8.4023,8.4453,8.5234,8.5976,8.6289,8.6836,8.7265,8.7383,8.7461,8.75,8.75,8.75,8.75,8.75,8.75,8.75,8.75,8.75,8.75,8.7461,8.7226,8.6601,8.6211,8.6133,8.5625,8.5351,8.539,8.5195,8.5156,8.4844,8.4765,8.4531,8.4453,8.4492,8.4531,8.4648,8.4726,8.4687,8.4492,8.4414,8.4375,8.4687,8.4804,8.4844,8.5156,8.5547,8.5754,8.5715,8.5822,8.5862,8.5217,8.4714,8.5217,8.5759,8.6068,8.5991,8.63,8.6494,8.6377,8.6532,8.6571,8.661,8.6648,8.6687,8.7022,8.7351,8.778,8.8104,8.8478,8.8607,8.8624,8.8501,8.8305,8.8305,8.8305,8.7954,8.8025,8.8545,8.9177,8.9603,9.0455,9.089,9.121,9.121,9.121,9.121,9.121,9.121,9.121,9.121,9.121,9.121,9.121,9.121,9.121,9.121,9.121,9.121,9.121,9.121,9.121,9.121,9.121,9.121,9.121,9.121,8.7187,8.6758,8.7265,8.6992,8.625,8.6758,8.5898,8.4453,8.4844,8.5195,8.5234,8.6406,8.6992,8.7109,8.7226,8.75,8.75,8.75,8.75,8.75,8.75,8.75,8.75,8.75,8.75,8.75,8.75,8.75,8.75,8.75,8.7383,8.707,8.6914,8.6875,8.6562,8.6289,8.6133,8.5781,8.5625,8.5508,8.4922,8.4883,8.4883,8.4883,8.4883,8.4883,8.4844,8.4883,8.4883,8.5078,8.5469,8.5625,8.5781,8.6094,8.6406,8.6623,8.6505,8.6588,8.6675,8.6068,8.5875,8.5991,8.6416,8.661,8.661,8.661,8.661,8.661,8.661,8.661,8.6648,8.6648,8.6803,8.732,8.7852,8.8339,8.8782,8.9164,8.9227,8.9196,8.9196,8.9164,8.9242,8.9281,8.8891,8.8564,8.9216,8.9725,9.0122,9.0504,9.0937,9.121,9.121,9.121,9.121,9.121,9.121,9.121,9.121,9.121,9.121,9.121,9.121,9.121,9.121,9.121,9.121,9.121,9.121,9.121,9.121,9.121,9.121,9.121,9.121,8.6758,8.6328,8.7148,8.6992,8.6328,8.6836,8.6094,8.4765,8.5312,8.5976,8.625,8.707,8.75,8.75,8.75,8.75,8.75,8.75,8.75,8.75,8.75,8.75,8.75,8.75,8.75,8.75,8.75,8.75,8.75,8.75,8.7461,8.7422,8.75,8.7422,8.7422,8.7461,8.7187,8.6758,8.6523,8.6367,8.5781,8.5742,8.5781,8.582,8.5859,8.5859,8.5898,8.5937,8.5859,8.6015,8.625,8.6523,8.6797,8.707,8.7344,8.7275,8.7107,8.6977,8.6863,8.6687,8.661,8.6532,8.6571,8.661,8.661,8.661,8.661,8.661,8.661,8.6687,8.688,8.7112,8.7538,8.8145,8.8455,8.8885,8.9416,8.9827,8.9788,8.9719,8.9618,8.9359,8.9844,8.9914,8.9883,8.9482,8.9605,9.0004,9.0188,9.0586,9.1018,9.121,9.121,9.121,9.121,9.121,9.121,9.121,9.121,9.121,9.121,9.121,9.121,9.121,9.121,9.121,9.121,9.121,9.121,9.121,9.121,9.121,9.121,9.121,9.121,8.625,8.6289,8.7148,8.6992,8.6328,8.625,8.6133,8.5664,8.539,8.5625,8.6367,8.7187,8.75,8.75,8.75,8.75,8.75,8.75,8.75,8.75,8.75,8.75,8.75,8.75,8.75,8.75,8.75,8.75,8.75,8.75,8.75,8.75,8.75,8.75,8.75,8.75,8.7461,8.7461,8.7383,8.7265,8.7148,8.707,8.7031,8.6992,8.6992,8.6953,8.6914,8.6914,8.6875,8.6992,8.707,8.7226,8.7304,8.7383,8.7461,8.7426,8.7169,8.6998,8.6958,8.6752,8.6726,8.6648,8.661,8.661,8.661,8.6648,8.6803,8.6958,8.6958,8.7267,8.7577,8.7925,8.8428,8.8892,8.9201,8.9603,9.0149,9.0585,9.0573,9.0423,8.961,8.9157,8.9905,9.044,9.0641,9.0519,9.0313,9.0315,9.0455,9.0702,9.1133,9.121,9.121,9.121,9.121,9.121,9.121,9.121,9.121,9.121,9.121,9.121,9.121,9.121,9.121,9.121,9.121,9.121,9.121,9.121,9.121,9.121,9.121,9.121,9.121,8.6211,8.6289,8.7148,8.7344,8.707,8.707,8.6445,8.5508,8.5664,8.625,8.6992,8.7422,8.75,8.75,8.75,8.75,8.75,8.75,8.75,8.75,8.75,8.75,8.75,8.75,8.75,8.75,8.75,8.75,8.75,8.75,8.75,8.75,8.75,8.75,8.75,8.75,8.75,8.75,8.7461,8.7461,8.75,8.75,8.75,8.75,8.75,8.75,8.75,8.75,8.75,8.75,8.75,8.75,8.75,8.75,8.75,8.7426,8.7195,8.6899,8.6955,8.6996,8.7151,8.6919,8.6764,8.6803,8.6648,8.719,8.7383,8.7615,8.7886,8.8312,8.8698,8.8776,8.9163,8.9743,9.0168,9.0576,9.1049,9.1354,9.1466,9.121,9.0635,9.0646,9.1131,9.1007,9.1043,9.1083,9.0826,9.0806,9.089,9.0937,9.121,9.121,9.121,9.121,9.121,9.121,9.121,9.121,9.121,9.121,9.121,9.121,9.121,9.121,9.121,9.121,9.121,9.121,9.121,9.121,9.121,9.121,9.121,9.121,9.121,8.5469,8.5859,8.6679,8.7226,8.7461,8.75,8.6797,8.6015,8.6406,8.6992,8.7422,8.75,8.75,8.75,8.75,8.75,8.75,8.75,8.75,8.75,8.75,8.75,8.75,8.75,8.75,8.75,8.75,8.75,8.75,8.75,8.75,8.75,8.75,8.75,8.75,8.75,8.75,8.75,8.75,8.75,8.75,8.75,8.75,8.75,8.75,8.75,8.75,8.75,8.75,8.75,8.75,8.75,8.75,8.75,8.75,8.7409,8.7522,8.729,8.7346,8.7925,8.8002,8.777,8.7499,8.7499,8.7538,8.8106,8.8273,8.8544,8.898,8.9317,8.9549,8.9588,8.9936,9.0516,9.0875,9.1311,9.1367,9.1601,9.1645,9.1442,9.1144,9.1495,9.1786,9.1703,9.145,9.1406,9.1346,9.1264,9.1206,9.1206,9.121,9.121,9.121,9.121,9.121,9.121,9.121,9.121,9.121,9.121,9.121,9.121,9.121,9.121,9.121,9.121,9.121,9.121,9.121,9.121,9.121,9.121,9.121,9.121,9.121,8.4101,8.4922,8.582,8.6679,8.7344,8.7461,8.7422,8.7422,8.7461,8.7461,8.75,8.75,8.75,8.75,8.75,8.75,8.75,8.75,8.75,8.75,8.75,8.75,8.75,8.75,8.75,8.75,8.75,8.75,8.75,8.75,8.75,8.75,8.75,8.75,8.75,8.75,8.75,8.75,8.75,8.75,8.75,8.75,8.75,8.75,8.75,8.75,8.75,8.75,8.75,8.75,8.75,8.75,8.75,8.75,8.75,8.7651,8.8046,8.8107,8.8145,8.8737,8.9124,8.9008,8.9201,8.9267,8.9074,8.8996,8.9163,8.929,8.9638,8.9986,9.0284,9.0516,9.0749,9.1135,9.1484,9.1571,9.1436,9.1437,9.1439,9.1179,9.0686,9.0764,9.1159,9.1256,9.1522,9.1392,9.1303,9.127,9.1206,9.1171,9.121,9.121,9.121,9.121,9.121,9.121,9.121,9.121,9.121,9.121,9.121,9.121,9.121,9.121,9.121,9.121,9.121,9.121,9.121,9.121,9.121,9.121,9.121,9.121,9.121,8.375,8.414,8.5586,8.6367,8.664,8.7226,8.75,8.75,8.75,8.75,8.75,8.75,8.75,8.75,8.75,8.75,8.75,8.75,8.75,8.75,8.75,8.75,8.75,8.75,8.75,8.75,8.75,8.75,8.75,8.75,8.75,8.75,8.75,8.75,8.75,8.75,8.75,8.75,8.75,8.75,8.75,8.75,8.75,8.75,8.75,8.75,8.75,8.75,8.75,8.75,8.75,8.75,8.75,8.7539,8.7596,8.8144,8.8688,8.9124,8.9008,8.9588,9.0052,9.0207,9.0516,9.0091,8.9809,8.9731,9.0052,9.0179,9.0411,9.0826,9.0981,9.1174,9.129,9.1484,9.1716,9.1581,9.1475,9.1484,9.145,9.1331,9.0789,9.0866,9.1151,9.119,9.1445,9.127,9.121,9.121,9.121,9.121,9.121,9.121,9.121,9.121,9.121,9.121,9.121,9.121,9.121,9.121,9.121,9.121,9.121,9.121,9.121,9.121,9.121,9.121,9.121,9.121,9.121,9.121,9.121,9.121,9.121,8.3281,8.3711,8.4687,8.5547,8.6289,8.7148,8.75,8.75,8.75,8.75,8.75,8.75,8.75,8.75,8.75,8.75,8.75,8.75,8.75,8.75,8.75,8.75,8.75,8.75,8.75,8.75,8.75,8.75,8.75,8.75,8.75,8.75,8.75,8.75,8.75,8.75,8.75,8.75,8.75,8.75,8.75,8.75,8.75,8.75,8.75,8.75,8.75,8.75,8.75,8.75,8.75,8.7695,8.7969,8.8281,8.8476,8.9001,8.9615,8.9836,8.9859,9.0439,9.0787,9.1019,9.1367,9.1058,9.0826,9.071,9.0865,9.1019,9.1367,9.1677,9.1677,9.1716,9.1677,9.1716,9.1649,9.1591,9.1581,9.1543,9.1522,9.1511,9.1476,9.1489,9.1527,9.1436,9.1392,9.1236,9.121,9.121,9.121,9.121,9.121,9.121,9.121,9.121,9.121,9.121,9.121,9.121,9.121,9.121,9.121,9.121,9.121,9.121,9.121,9.121,9.121,9.121,9.121,9.121,9.121,9.121,9.121,9.121,9.121,8.2773,8.3476,8.3672,8.4804,8.6211,8.7109,8.75,8.75,8.75,8.75,8.75,8.75,8.75,8.75,8.75,8.75,8.75,8.75,8.75,8.75,8.75,8.75,8.75,8.75,8.75,8.75,8.75,8.75,8.75,8.75,8.75,8.75,8.75,8.75,8.75,8.75,8.75,8.75,8.75,8.75,8.75,8.75,8.75,8.75,8.75,8.75,8.75,8.75,8.75,8.75,8.7695,8.8008,8.8789,8.9531,8.9726,8.9975,9.0524,9.0675,9.071,9.1135,9.1406,9.16,9.1716,9.1561,9.1367,9.129,9.1367,9.1406,9.1677,9.1716,9.1716,9.1716,9.1716,9.1687,9.1687,9.1561,9.1492,9.1462,9.1392,9.1415,9.1406,9.1436,9.1406,9.1329,9.1303,9.1206,9.121,9.121,9.121,9.121,9.121,9.121,9.121,9.121,9.121,9.121,9.121,9.121,9.121,9.121,9.121,9.121,9.121,9.121,9.121,9.121,9.121,9.121,9.121,9.121,9.121,9.121,9.121,9.121,9.121,8.2422,8.2734,8.4023,8.5234,8.625,8.7109,8.75,8.75,8.75,8.75,8.75,8.75,8.75,8.75,8.75,8.75,8.75,8.75,8.75,8.75,8.75,8.75,8.75,8.75,8.75,8.75,8.75,8.75,8.75,8.75,8.75,8.75,8.75,8.75,8.75,8.75,8.75,8.75,8.75,8.7539,8.7617,8.7539,8.75,8.75,8.75,8.75,8.75,8.7539,8.75,8.7539,8.8164,8.8828,8.9648,9.0429,9.0708,9.0764,9.1184,9.1333,9.1406,9.1484,9.1638,9.1716,9.1716,9.1716,9.1677,9.1716,9.1716,9.1716,9.1716,9.1716,9.1716,9.1716,9.1716,9.1687,9.1659,9.1531,9.14,9.1336,9.1275,9.127,9.1264,9.1264,9.127,9.1275,9.1206,9.121,9.121,9.121,9.121,9.121,9.121,9.121,9.121,9.121,9.121,9.121,9.121,9.121,9.121,9.121,9.121,9.121,9.121,9.121,9.121,9.121,9.121,9.121,9.121,9.121,9.121,9.121,9.121,9.121,9.121,8.2304,8.2539,8.4179,8.5156,8.582,8.6953,8.75,8.75,8.75,8.75,8.75,8.75,8.75,8.75,8.75,8.75,8.75,8.75,8.75,8.75,8.75,8.75,8.75,8.75,8.75,8.75,8.75,8.75,8.75,8.75,8.75,8.75,8.75,8.75,8.75,8.75,8.75,8.75,8.75,8.7656,8.7812,8.7773,8.7539,8.75,8.7539,8.7539,8.7656,8.7773,8.8047,8.8476,8.9219,8.9922,9.0664,9.1289,9.1533,9.1533,9.1669,9.1832,9.1754,9.1716,9.1716,9.1716,9.1716,9.1716,9.1716,9.1716,9.1716,9.1716,9.1716,9.1716,9.1716,9.1716,9.1716,9.1716,9.1629,9.1531,9.1406,9.1275,9.1241,9.1206,9.1202,9.1241,9.1241,9.1241,9.121,9.121,9.121,9.121,9.121,9.121,9.121,9.121,9.121,9.121,9.121,9.121,9.121,9.121,9.121,9.121,9.121,9.121,9.121,9.121,9.121,9.121,9.121,9.121,9.121,9.121,9.121,9.121,9.121,9.121,9.121,8.2304,8.2539,8.4062,8.4804,8.5156,8.6601,8.7383,8.75,8.75,8.75,8.75,8.75,8.75,8.75,8.75,8.75,8.75,8.75,8.75,8.75,8.75,8.75,8.75,8.75,8.75,8.75,8.75,8.75,8.75,8.75,8.75,8.75,8.75,8.75,8.75,8.75,8.75,8.75,8.7617,8.7969,8.8047,8.8086,8.7969,8.7812,8.7812,8.7812,8.8086,8.8359,8.8828,8.9375,9.0195,9.0937,9.1406,9.1895,9.196,9.1993,9.1798,9.1793,9.1716,9.1716,9.1716,9.1716,9.1716,9.1716,9.1716,9.1716,9.1716,9.1716,9.1716,9.1716,9.1716,9.1716,9.1716,9.1687,9.1629,9.1539,9.1374,9.1241,9.1245,9.121,9.121,9.121,9.121,9.121,9.121,9.121,9.121,9.121,9.121,9.121,9.121,9.121,9.121,9.121,9.121,9.121,9.121,9.121,9.121,9.121,9.121,9.121,9.121,9.121,9.121,9.121,9.121,9.121,9.121,9.1248,9.121,9.121,9.121,9.121,9.121,8.2304,8.2383,8.3437,8.4258,8.5,8.6054,8.6836,8.7422,8.75,8.75,8.7461,8.75,8.75,8.75,8.75,8.75,8.75,8.75,8.75,8.75,8.75,8.75,8.75,8.75,8.75,8.75,8.75,8.75,8.75,8.75,8.75,8.75,8.75,8.75,8.75,8.75,8.75,8.75,8.7617,8.7929,8.8554,8.8711,8.9023,8.9179,8.9531,8.9531,8.9609,8.9648,8.9726,9.0078,9.0742,9.1562,9.1992,9.2156,9.2112,9.2069,9.1909,9.1793,9.1716,9.1716,9.1716,9.1716,9.1716,9.1716,9.1716,9.1716,9.1716,9.1716,9.1716,9.1716,9.1716,9.1716,9.1716,9.1659,9.16,9.1438,9.1341,9.1241,9.121,9.121,9.121,9.121,9.121,9.121,9.121,9.121,9.121,9.121,9.121,9.121,9.121,9.121,9.121,9.121,9.121,9.121,9.121,9.121,9.121,9.121,9.121,9.121,9.121,9.121,9.121,9.121,9.121,9.1287,9.1402,9.1441,9.1248,9.121,9.1287,9.1364,9.1479]},{"header":{"parameterUnit":"m.s-1","parameterCategory":1,"la1":31.0,"la2":29.5877,"lo1":-88.7671,"lo2":-86.6584,"dy":0.0162,"dx":0.0185,"nx":115,"ny":88,"refTime":"2024-03-23T06:00:00:Z","depth":0,"parameterNumber":3,"parameterNumberName":"V-component_of_WINDS"},"data":[0.0,0.0,0.0,0.0,0.0,0.0,0.0,0.0,0.0,0.0,0.0,0.0,0.0,0.0,0.0,0.0,0.0,0.0,0.0,0.0,0.0,0.0,0.0,0.0,0.0,0.0,0.0,0.0,0.0,0.0,0.0,0.0,0.0,0.0,0.0,0.0,0.0,0.0,0.0,0.0,0.0,0.0,0.0,0.0,0.0,0.0,0.0,0.0,0.0,0.0,0.0,0.0,0.0,0.0,0.0,0.0,0.0,0.0,0.0,0.0,0.0,0.0,0.0,0.0,0.0,0.0,0.0,0.0,0.0,0.0,0.0,0.0,0.0,0.0,0.0,0.0,0.0,0.0,0.0,0.0,0.0,0.0,0.0,0.0,0.0,0.0,0.0,0.0,0.0,0.0,0.0,0.0,0.0,0.0,0.0,0.0,0.0,0.0,0.0,0.0,0.0,0.0,0.0,0.0,0.0,0.0,0.0,0.0,0.0,0.0,0.0,0.0,0.0,0.0,0.0,0.0,0.0,0.0,0.0,0.0,0.0,0.0,0.0,0.0,0.0,0.0,0.0,0.0,0.0,0.0,0.0,0.0,0.0,0.0,0.0,0.0,0.0,0.0,0.0,0.0,0.0,0.0,0.0,0.0,0.0,0.0,0.0,0.0,0.0,0.0,0.0,0.0,0.0,0.0,0.0,0.0,0.0,0.0,0.0,0.0,0.0,0.0,0.0,0.0,0.0,0.0,0.0,0.0,0.0,0.0,0.0,0.0,0.0,0.0,0.0,0.0,0.0,0.0,0.0,0.0,0.0,0.0,0.0,0.0,0.0,0.0,0.0,0.0,0.0,0.0,0.0,0.0,0.0,0.0,0.0,0.0,0.0,0.0,0.0,0.0,0.0,0.0,0.0,0.0,0.0,0.0,0.0,0.0,0.0,0.0,0.0,0.0,0.0,0.0,0.0,0.0,0.0,0.0,0.0,0.0,0.0,0.0,0.0,0.0,0.0,0.0,0.0,0.0,0.0,0.0,0.0,0.0,0.0,0.0,0.0,0.0,0.0,0.0,0.0,0.0,0.0,0.0,0.0,0.0,0.0,0.0,0.0,0.0,0.0,0.0,0.0,0.0,0.0,0.0,0.0,0.0,0.0,0.0,0.0,0.0,0.0,0.0,0.0,0.0,0.0,0.0,0.0,0.0,0.0,0.0,0.0,0.0,0.0,0.0,0.0,0.0,0.0,0.0,0.0,0.0,0.0,0.0,0.0,0.0,0.0,0.0,0.0,0.0,0.0,0.0,0.0,0.0,0.0,0.0,0.0,0.0,0.0,0.0,0.0,0.0,0.0,0.0,0.0,0.0,0.0,0.0,0.0,0.0,0.0,0.0,0.0,0.0,0.0,0.0,0.0,0.0,0.0,0.0,0.0,0.0,0.0,0.0,0.0,0.0,0.0,0.0,0.0,0.0,0.0,0.0,0.0,0.0,0.0,0.0,0.0,0.0,0.0,0.0,0.0,0.0,0.0,0.0,0.0,0.0,0.0,0.0,0.0,0.0,0.0,0.0,0.0,0.0,0.0,0.0,0.0,0.0,0.0,0.0,0.0,0.0,0.0,0.0,0.0,0.0,0.0,0.0,0.0,0.0,0.0,0.0,0.0,0.0,0.0,0.0,0.0,0.0,0.0,0.0,0.0,0.0,0.0,0.0,0.0,0.0,0.0,0.0,0.0,0.0,0.0,0.0,0.0,0.0,0.0,0.0,0.0,0.0,0.0,0.0,0.0,0.0,0.0,0.0,0.0,0.0,0.0,0.0,0.0,0.0,0.0,0.0,0.0,0.0,0.0,0.0,0.0,0.0,0.0,0.0,0.0,0.0,0.0,0.0,0.0,0.0,0.0,0.0,0.0,0.0,0.0,0.0,0.0,0.0,0.0,0.0,0.0,0.0,0.0,0.0,0.0,0.0,0.0,0.0,0.0,0.0,0.0,0.0,0.0,0.0,0.0,0.0,0.0,0.0,0.0,0.0,0.0,0.0,0.0,0.0,0.0,0.0,0.0,0.0,0.0,0.0,0.0,0.0,0.0,0.0,0.0,0.0,0.0,0.0,0.0,0.0,0.0,0.0,0.0,0.0,0.0,0.0,0.0,0.0,0.0,0.0,0.0,0.0,0.0,0.0,0.0,0.0,0.0,0.0,0.0,0.0,0.0,0.0,0.0,0.0,0.0,0.0,0.0,0.0,0.0,0.0,0.0,0.0,0.0,0.0,0.0,0.0,0.0,0.0,0.0,0.0,0.0,0.0,0.0,0.0,0.0,0.0,0.0,0.0,0.0,0.0,0.0,0.0,0.0,0.0,0.0,0.0,0.0,0.0,0.0,0.0,0.0,0.0,0.0,0.0,0.0,0.0,0.0,0.0,0.0,0.0,0.0,0.0,0.0,0.0,0.0,0.0,0.0,0.0,0.0,0.0,0.0,0.0,0.0,0.0,0.0,0.0,0.0,0.0,0.0,0.0,0.0,0.0,0.0,0.0,0.0,0.0,0.0,0.0,0.0,0.0,0.0,0.0,0.0,0.0,0.0,0.0,0.0,0.0,0.0,0.0,0.0,0.0,0.0,0.0,0.0,0.0,0.0,0.0,0.0,0.0,0.0,0.0,0.0,0.0,0.0,0.0,0.0,0.0,0.0,0.0,0.0,0.0,0.0,0.0,0.0,0.0,0.0,0.0,0.0,0.0,0.0,0.0,0.0,0.0,0.0,0.0,0.0,0.0,0.0,0.0,0.0,0.0,0.0,0.0,0.0,0.0,0.0,0.0,0.0,0.0,0.0,0.0,0.0,0.0,0.0,0.0,0.0,0.0,0.0,0.0,0.0,0.0,0.0,0.0,0.0,0.0,0.0,0.0,0.0,0.0,0.0,0.0,0.0,0.0,0.0,0.0,0.0,0.0,0.0,0.0,0.0,0.0,0.0,0.0,0.0,0.0,0.0,0.0,0.0,0.0,0.0,0.0,0.0,0.0,0.0,0.0,0.0,0.0,0.0,0.0,0.0,0.0,0.0,0.0,0.0,0.0,0.0,0.0,0.0,0.0,0.0,0.0,0.0,0.0,0.0,0.0,0.0,0.0,0.0,0.0,0.0,0.0,0.0,0.0,0.0,0.0,0.0,0.0,0.0,0.0,0.0,0.0,0.0,0.0,0.0,0.0,0.0,0.0,0.0,0.0,0.0,0.0,0.0,0.0,0.0,0.0,0.0,0.0,0.0,0.0,0.0,0.0,0.0,0.0,0.0,0.0,0.0,0.0,0.0,0.0,0.0,0.0,0.0,0.0,0.0,0.0,0.0,0.0,0.0,0.0,0.0,0.0,0.0,0.0,0.0,0.0,0.0,0.0,0.0,0.0,0.0,0.0,0.0,0.0,0.0,0.0,0.0,0.0,0.0,0.0,0.0,0.0,0.0,0.0,0.0,0.0,0.0,0.0,0.0,0.0,0.0,0.0,0.0,0.0,0.0,0.0,0.0,0.0,0.0,0.0,0.0,0.0,0.0,0.0,0.0,0.0,0.0,0.0,0.0,0.0,0.0,0.0,0.0,0.0,0.0,0.0,0.0,0.0,0.0,0.0,0.0,0.0,0.0,0.0,0.0,0.0,0.0,0.0,0.0,0.0,0.0,0.0,0.0,0.0,0.0,0.0,0.0,0.0,0.0,0.0,0.0,0.0,0.0,0.0,0.0,0.0,0.0,0.0,0.0,0.0,0.0,0.0,0.0,0.0,0.0,0.0,0.0,0.0,0.0,0.0,0.0,0.0,0.0,0.0,0.0,0.0,0.0,0.0,0.0,0.0,0.0,0.0,0.0,0.0,0.0,0.0,0.0,0.0,0.0,0.0,0.0,0.0,0.0,0.0,0.0,0.0,0.0,0.0,0.0,0.0,0.0,0.0,0.0,0.0,0.0,0.0,0.0,0.0,0.0,0.0,0.0,0.0,0.0,0.0,0.0,0.0,0.0,0.0,0.0,0.0,0.0,0.0,0.0,0.0,0.0,0.0,0.0,0.0,0.0,0.0,0.0,0.0,0.0,0.0,0.0,0.0,0.0,0.0,0.0,0.0,0.0,0.0,0.0,0.0,0.0,0.0,0.0,0.0,0.0,0.0,0.0,0.0,0.0,0.0,0.0,0.0,0.0,0.0,0.0,0.0,0.0,0.0,0.0,0.0,0.0,0.0,0.0,0.0,0.0,0.0,0.0,0.0,0.0,0.0,0.0,0.0,0.0,0.0,0.0,0.0,0.0,0.0,-0.6261,0.0,0.0,0.0,0.0,0.0,0.0,0.0,0.0,0.0,0.0,0.0,0.0,0.0,0.0,0.0,0.0,0.0,0.0,0.0,0.0,0.0,0.0,0.0,0.0,0.0,0.0,0.0,0.0,0.0,0.0,0.0,0.0,0.0,0.0,0.0,0.0,0.0,0.0,0.0,0.0,0.0,0.0,0.0,0.0,0.0,0.0,0.0,0.0,0.0,0.0,0.0,0.0,0.0,0.0,0.0,0.0,0.0,0.0,0.0,0.0,0.0,0.0,0.0,0.0,0.0,0.0,0.0,0.0,0.0,0.0,0.0,0.0,0.0,0.0,0.0,0.0,0.0,0.0,0.0,0.0,0.0,0.0,0.0,0.0,0.0,0.0,0.0,0.0,0.0,0.0,0.0,0.0,0.0,0.0,0.0,0.0,0.0,0.0,0.0,0.0,0.0,0.0,0.0,0.0,0.0,0.0,0.0,0.0,0.0,0.0,-0.6261,-0.6261,-0.6261,-0.6261,-0.6261,0.0,0.0,0.0,0.0,0.0,0.0,0.0,0.0,0.0,0.0,0.0,0.0,0.0,0.0,0.0,0.0,0.0,0.0,0.0,0.0,0.0,0.0,0.0,0.0,0.0,0.0,0.0,0.0,0.0,0.0,0.0,0.0,0.0,0.0,0.0,0.0,0.0,0.0,0.0,0.0,0.0,0.0,0.0,0.0,0.0,0.0,0.0,0.0,0.0,0.0,0.0,0.0,0.0,0.0,0.0,0.0,0.0,0.0,0.0,0.0,0.0,0.0,0.0,0.0,0.0,0.0,0.0,0.0,0.0,0.0,0.0,0.0,0.0,0.0,0.0,0.0,0.0,0.0,0.0,0.0,0.0,0.0,0.0,0.0,0.0,0.0,0.0,0.0,0.0,0.0,0.0,0.0,0.0,0.0,0.0,0.0,0.0,0.0,0.0,0.0,0.0,0.0,0.0,0.0,0.0,0.0,0.0,0.0,0.0,0.0,0.0,0.0,-0.6311,-0.6311,-0.6284,0.0,0.0,0.0,0.0,0.0,0.0,0.0,0.0,0.0,0.0,0.0,0.0,0.0,0.0,0.0,0.0,0.0,0.0,0.0,0.0,0.0,0.0,0.0,0.0,0.0,0.0,0.0,0.0,0.0,0.0,0.0,0.0,0.0,0.0,0.0,0.0,0.0,0.0,0.0,0.0,0.0,0.0,0.0,0.0,0.0,0.0,0.0,0.0,0.0,0.0,0.0,0.0,0.0,0.0,0.0,0.0,0.0,0.0,0.0,0.0,0.0,0.0,0.0,0.0,0.0,0.0,0.0,0.0,0.0,0.0,0.0,0.0,0.0,0.0,0.0,0.0,0.0,0.0,0.0,0.0,0.0,0.0,0.0,0.0,0.0,0.0,0.0,0.0,0.0,0.0,0.0,0.0,0.0,0.0,0.0,0.0,0.0,0.0,0.0,0.0,0.0,0.0,0.0,0.0,0.0,0.0,0.0,0.0,0.0,0.0,-0.627,-0.6318,-0.6273,0.0,-0.6338,0.0,0.0,0.0,0.0,0.0,0.0,0.0,0.0,0.0,0.0,0.0,0.0,0.0,0.0,0.0,0.0,0.0,0.0,0.0,0.0,0.0,0.0,0.0,0.0,0.0,0.0,0.0,0.0,0.0,0.0,0.0,0.0,0.0,0.0,0.0,0.0,0.0,0.0,0.0,0.0,0.0,0.0,0.0,0.0,0.0,0.0,0.0,0.0,0.0,0.0,0.0,0.0,0.0,0.0,0.0,0.0,0.0,0.0,0.0,0.0,0.0,0.0,0.0,0.0,0.0,0.0,0.0,0.0,0.0,0.0,0.0,0.0,0.0,0.0,0.0,0.0,0.0,0.0,0.0,0.0,0.0,0.0,0.0,0.0,0.0,0.0,0.0,0.0,0.0,0.0,0.0,0.0,0.0,0.0,0.0,0.0,0.0,0.0,0.0,0.0,0.0,0.0,0.0,0.0,0.0,0.0,0.0,0.0,0.0,0.0,-0.723,-0.704,-0.6756,-0.6589,0.0,0.0,0.0,0.0,0.0,0.0,0.0,0.0,0.0,0.0,0.0,0.0,0.0,0.0,0.0,0.0,0.0,0.0,0.0,0.0,0.0,0.0,0.0,0.0,0.0,0.0,0.0,0.0,0.0,0.0,0.0,0.0,0.0,0.0,0.0,0.0,0.0,0.0,0.0,0.0,0.0,0.0,0.0,0.0,0.0,0.0,0.0,0.0,0.0,0.0,0.0,0.0,0.0,0.0,0.0,0.0,0.0,0.0,0.0,0.0,0.0,0.0,0.0,0.0,0.0,0.0,0.0,0.0,0.0,0.0,0.0,0.0,0.0,0.0,0.0,0.0,0.0,0.0,0.0,0.0,0.0,0.0,0.0,0.0,0.0,0.0,0.0,0.0,0.0,0.0,0.0,0.0,0.0,0.0,0.0,0.0,0.0,0.0,0.0,0.0,0.0,0.0,0.0,0.0,0.0,0.0,0.0,0.0,0.0,0.0,-0.7102,-0.7582,-0.7673,-0.7105,-0.6867,-0.6874,0.0,0.0,0.0,0.0,0.0,0.0,0.0,0.0,0.0,0.0,0.0,0.0,0.0,0.0,0.0,0.0,0.0,0.0,0.0,0.0,0.0,0.0,0.0,0.0,0.0,0.0,0.0,0.0,0.0,0.0,0.0,0.0,0.0,0.0,0.0,0.0,0.0,0.0,0.0,0.0,0.0,0.0,0.0,0.0,0.0,0.0,0.0,0.0,0.0,0.0,0.0,0.0,0.0,0.0,0.0,0.0,0.0,0.0,0.0,0.0,0.0,0.0,0.0,0.0,0.0,0.0,0.0,0.0,0.0,0.0,0.0,0.0,0.0,0.0,0.0,0.0,0.0,0.0,0.0,0.0,0.0,0.0,0.0,0.0,0.0,0.0,0.0,0.0,0.0,0.0,0.0,0.0,0.0,0.0,0.0,0.0,0.0,0.0,0.0,0.0,0.0,0.0,0.0,0.0,0.0,0.0,0.0,0.0,-0.625,-0.635,-0.6873,-0.7876,-0.7382,-0.6814,0.0,0.0,0.0,0.0,0.0,0.0,0.0,0.0,0.0,0.0,0.0,0.0,0.0,0.0,0.0,0.0,0.0,0.0,0.0,0.0,0.0,0.0,0.0,0.0,0.0,0.0,0.0,0.0,0.0,0.0,0.0,0.0,0.0,0.0,0.0,0.0,0.0,0.0,0.0,0.0,0.0,0.0,0.0,0.0,0.0,0.0,0.0,0.0,0.0,0.0,0.0,0.0,0.0,0.0,0.0,0.0,0.0,0.0,0.0,0.0,0.0,0.0,0.0,0.0,0.0,0.0,0.0,0.0,0.0,0.0,0.0,0.0,0.0,0.0,0.0,0.0,0.0,0.0,0.0,0.0,0.0,0.0,0.0,0.0,0.0,0.0,0.0,0.0,0.0,0.0,0.0,0.0,0.0,0.0,0.0,0.0,0.0,0.0,0.0,0.0,0.0,0.0,0.0,0.0,0.0,0.0,0.0,0.0,0.0,-0.6322,-0.6625,-0.684,-0.6907,-0.6825,-0.6806,0.0,0.0,0.0,0.0,0.0,0.0,0.0,0.0,0.0,0.0,0.0,0.0,0.0,0.0,0.0,0.0,0.0,0.0,0.0,0.0,0.0,0.0,0.0,0.0,0.0,0.0,0.0,0.0,0.0,0.0,0.0,0.0,0.0,0.0,0.0,0.0,0.0,0.0,0.0,0.0,0.0,0.0,0.0,0.0,0.0,0.0,0.0,0.0,0.0,0.0,0.0,0.0,0.0,0.0,0.0,0.0,0.0,0.0,0.0,0.0,0.0,0.0,0.0,0.0,0.0,0.0,0.0,0.0,0.0,0.0,0.0,0.0,0.0,0.0,0.0,0.0,0.0,0.0,0.0,0.0,0.0,0.0,0.0,0.0,0.0,0.0,0.0,0.0,0.0,0.0,0.0,0.0,0.0,0.0,0.0,0.0,0.0,0.0,0.0,0.0,0.0,0.0,0.0,0.0,0.0,0.0,0.0,0.0,0.0,-0.6296,0.0,-0.6871,-0.6379,-0.6699,-0.6851,0.0,0.0,0.0,0.0,0.0,0.0,0.0,0.0,0.0,0.0,0.0,0.0,0.0,0.0,0.0,0.0,0.0,0.0,0.0,0.0,0.0,0.0,0.0,0.0,0.0,0.0,0.0,0.0,0.0,0.0,0.0,0.0,0.0,0.0,0.0,0.0,0.0,0.0,0.0,0.0,0.0,0.0,0.0,0.0,0.0,0.0,0.0,0.0,0.0,0.0,0.0,0.0,0.0,0.0,0.0,0.0,0.0,0.0,0.0,0.0,0.0,0.0,0.0,0.0,0.0,0.0,0.0,0.0,0.0,0.0,0.0,0.0,0.0,0.0,0.0,0.0,0.0,0.0,0.0,0.0,0.0,0.0,0.0,0.0,0.0,0.0,0.0,0.0,0.0,0.0,0.0,0.0,0.0,0.0,0.0,0.0,0.0,0.0,0.0,0.0,0.0,0.0,0.0,0.0,0.0,0.0,0.0,0.0,-0.6303,-0.6292,-0.685,-0.6869,-0.6346,-0.6776,-0.6865,0.0,0.0,0.0,0.0,0.0,0.0,0.0,0.0,0.0,0.0,0.0,0.0,0.0,0.0,0.0,0.0,0.0,0.0,0.0,0.0,0.0,0.0,0.0,0.0,0.0,0.0,0.0,0.0,0.0,0.0,0.0,0.0,0.0,0.0,0.0,0.0,0.0,0.0,0.0,0.0,0.0,0.0,0.0,0.0,0.0,0.0,0.0,0.0,0.0,0.0,0.0,0.0,0.0,0.0,0.0,0.0,0.0,0.0,0.0,0.0,0.0,0.0,0.0,0.0,0.0,0.0,0.0,0.0,0.0,0.0,0.0,0.0,0.0,0.0,0.0,0.0,0.0,0.0,0.0,0.0,0.0,0.0,0.0,0.0,0.0,0.0,0.0,0.0,0.0,0.0,0.0,0.0,0.0,0.0,0.0,0.0,0.0,0.0,0.0,0.0,0.0,0.0,0.0,0.0,0.0,0.0,0.0,0.0,0.0,-0.6844,-0.7417,-0.7688,-0.7483,-0.7115,-0.674,0.0,0.0,0.0,0.0,0.0,0.0,0.0,0.0,0.0,0.0,0.0,0.0,0.0,0.0,0.0,0.0,0.0,0.0,0.0,0.0,0.0,0.0,0.0,0.0,0.0,0.0,0.0,0.0,0.0,0.0,0.0,0.0,0.0,0.0,0.0,0.0,0.0,0.0,0.0,0.0,0.0,0.0,0.0,0.0,0.0,0.0,0.0,0.0,0.0,0.0,0.0,0.0,0.0,0.0,0.0,0.0,0.0,0.0,0.0,0.0,0.0,0.0,0.0,0.0,0.0,0.0,0.0,0.0,0.0,0.0,0.0,0.0,0.0,0.0,0.0,0.0,0.0,0.0,0.0,0.0,0.0,0.0,0.0,0.0,0.0,0.0,0.0,0.0,0.0,0.0,0.0,0.0,0.0,0.0,0.0,0.0,0.0,0.0,0.0,0.0,0.0,0.0,0.0,0.0,0.0,0.0,0.0,0.0,0.0,-0.7312,-0.7963,-0.8181,-0.8,-0.7482,-0.7052,-0.6649,0.0,0.0,0.0,0.0,0.0,0.0,0.0,0.0,0.0,0.0,0.0,0.0,0.0,0.0,0.0,0.0,0.0,0.0,0.0,0.0,0.0,0.0,0.0,0.0,0.0,0.0,0.0,0.0,0.0,0.0,0.0,0.0,0.0,0.0,0.0,0.0,0.0,0.0,0.0,0.0,0.0,0.0,0.0,0.0,0.0,0.0,0.0,0.0,0.0,0.0,0.0,0.0,0.0,0.0,0.0,0.0,0.0,0.0,0.0,0.0,0.0,0.0,0.0,0.0,0.0,0.0,0.0,0.0,0.0,0.0,0.0,0.0,0.0,0.0,0.0,0.0,0.0,0.0,0.0,0.0,0.0,0.0,0.0,0.0,0.0,0.0,0.0,0.0,0.0,0.0,0.0,0.0,0.0,0.0,0.0,0.0,0.0,0.0,0.0,0.0,0.0,0.0,0.0,0.0,0.0,0.0,0.0,0.0,-0.7685,-0.8528,-0.8707,-0.8153,-0.795,-0.7584,0.0,0.0,0.0,0.0,0.0,0.0,0.0,0.0,0.0,0.0,0.0,0.0,0.0,0.0,0.0,0.0,0.0,0.0,0.0,0.0,0.0,0.0,0.0,0.0,0.0,0.0,0.0,0.0,0.0,0.0,0.0,0.0,0.0,0.0,0.0,0.0,0.0,0.0,0.0,0.0,0.0,0.0,0.0,0.0,0.0,0.0,0.0,0.0,0.0,0.0,0.0,0.0,0.0,0.0,0.0,0.0,0.0,0.0,0.0,0.0,0.0,0.0,0.0,0.0,0.0,0.0,0.0,0.0,0.0,0.0,0.0,0.0,0.0,0.0,0.0,0.0,0.0,0.0,0.0,0.0,0.0,0.0,0.0,0.0,0.0,0.0,0.0,0.0,0.0,0.0,0.0,0.0,0.0,0.0,0.0,0.0,0.0,0.0,0.0,0.0,0.0,0.0,0.0,0.0,0.0,0.0,0.0,0.0,0.0,-0.8589,-0.9891,-1.0258,-0.9325,-0.8621,-0.7978,0.0,0.0,0.0,0.0,0.0,0.0,0.0,0.0,0.0,0.0,0.0,0.0,0.0,0.0,0.0,0.0,0.0,0.0,0.0,0.0,0.0,0.0,0.0,0.0,0.0,0.0,0.0,0.0,0.0,0.0,0.0,0.0,0.0,0.0,0.0,0.0,0.0,0.0,0.0,0.0,0.0,0.0,0.0,0.0,0.0,0.0,0.0,0.0,0.0,0.0,0.0,0.0,0.0,0.0,0.0,0.0,0.0,0.0,0.0,0.0,0.0,0.0,0.0,0.0,0.0,0.0,0.0,0.0,0.0,0.0,0.0,0.0,0.0,0.0,0.0,0.0,0.0,0.0,0.0,0.0,0.0,0.0,0.0,0.0,0.0,0.0,0.0,0.0,0.0,0.0,0.0,0.0,0.0,0.0,0.0,0.0,0.0,0.0,0.0,0.0,0.0,0.0,0.0,0.0,0.0,0.0,0.0,0.0,-0.7668,-0.8476,-1.0438,-1.1155,-1.0531,-0.9531,-0.8464,0.0,0.0,0.0,0.0,0.0,0.0,0.0,0.0,0.0,0.0,0.0,0.0,0.0,0.0,0.0,0.0,0.0,0.0,0.0,0.0,0.0,0.0,0.0,0.0,0.0,0.0,0.0,0.0,0.0,0.0,0.0,0.0,0.0,0.0,0.0,0.0,0.0,0.0,0.0,0.0,0.0,0.0,0.0,0.0,0.0,0.0,0.0,0.0,0.0,0.0,0.0,0.0,0.0,0.0,0.0,0.0,0.0,0.0,0.0,0.0,0.0,0.0,0.0,0.0,0.0,0.0,0.0,0.0,0.0,0.0,0.0,0.0,0.0,0.0,0.0,0.0,0.0,0.0,0.0,0.0,0.0,0.0,0.0,0.0,0.0,0.0,0.0,0.0,0.0,0.0,0.0,0.0,0.0,0.0,0.0,0.0,0.0,0.0,0.0,0.0,0.0,0.0,0.0,0.0,0.0,0.0,0.0,0.0,-0.7751,-0.8027,-1.0352,-1.1635,-1.1607,-1.0314,-0.9129,0.0,0.0,0.0,0.0,0.0,0.0,0.0,0.0,0.0,0.0,0.0,0.0,0.0,0.0,0.0,0.0,0.0,0.0,0.0,0.0,0.0,0.0,0.0,0.0,0.0,0.0,0.0,0.0,0.0,0.0,0.0,0.0,0.0,0.0,0.0,0.0,0.0,0.0,0.0,0.0,0.0,0.0,0.0,0.0,0.0,0.0,0.0,0.0,0.0,0.0,0.0,0.0,0.0,0.0,0.0,0.0,0.0,0.0,0.0,0.0,0.0,0.0,0.0,0.0,0.0,0.0,0.0,0.0,0.0,0.0,0.0,0.0,0.0,0.0,0.0,0.0,0.0,0.0,0.0,0.0,0.0,0.0,0.0,0.0,0.0,0.0,0.0,0.0,0.0,0.0,0.0,0.0,0.0,0.0,0.0,0.0,0.0,0.0,0.0,0.0,0.0,0.0,0.0,0.0,0.0,0.0,0.0,0.0,-0.7994,-0.7987,-1.0323,-1.1667,-1.166,-1.0392,-0.9486,0.0,0.0,0.0,0.0,0.0,0.0,0.0,0.0,0.0,0.0,0.0,0.0,0.0,0.0,0.0,0.0,0.0,0.0,0.0,0.0,0.0,0.0,0.0,0.0,0.0,0.0,0.0,0.0,0.0,0.0,0.0,0.0,0.0,0.0,0.0,0.0,0.0,0.0,0.0,0.0,0.0,0.0,0.0,0.0,0.0,0.0,0.0,0.0,-0.8858,0.0,0.0,0.0,0.0,0.0,0.0,0.0,0.0,0.0,0.0,0.0,0.0,0.0,0.0,0.0,0.0,0.0,0.0,0.0,0.0,0.0,0.0,0.0,0.0,0.0,0.0,0.0,0.0,0.0,0.0,0.0,0.0,0.0,0.0,0.0,0.0,0.0,0.0,0.0,0.0,0.0,0.0,0.0,0.0,0.0,0.0,0.0,0.0,0.0,0.0,0.0,0.0,0.0,0.0,0.0,0.0,0.0,0.0,0.0,-0.9117,-0.971,-1.0914,-1.1619,-1.1586,-1.0864,-0.9908,0.0,0.0,0.0,0.0,0.0,0.0,0.0,0.0,0.0,0.0,0.0,0.0,0.0,0.0,0.0,0.0,0.0,0.0,0.0,0.0,0.0,0.0,0.0,0.0,0.0,0.0,0.0,0.0,0.0,0.0,0.0,0.0,0.0,0.0,0.0,0.0,0.0,0.0,0.0,0.0,0.0,0.0,0.0,0.0,0.0,0.0,0.0,0.0,0.0,0.0,0.0,0.0,0.0,0.0,0.0,0.0,0.0,0.0,0.0,0.0,0.0,0.0,0.0,0.0,0.0,0.0,0.0,0.0,0.0,0.0,0.0,0.0,0.0,0.0,0.0,0.0,0.0,0.0,0.0,0.0,0.0,0.0,0.0,0.0,0.0,0.0,0.0,0.0,0.0,0.0,0.0,0.0,0.0,0.0,0.0,0.0,0.0,0.0,0.0,0.0,0.0,0.0,0.0,0.0,0.0,0.0,0.0,-0.9426,-1.0331,-1.1596,-1.1571,-1.1619,-1.1613,-1.1323,-1.0439,-0.8708,0.0,0.0,0.0,0.0,0.0,0.0,0.0,0.0,0.0,0.0,0.0,0.0,0.0,0.0,0.0,0.0,0.0,0.0,0.0,0.0,0.0,0.0,0.0,0.0,0.0,0.0,0.0,0.0,0.0,0.0,0.0,0.0,0.0,0.0,0.0,0.0,0.0,0.0,-1.1615,-1.1725,0.0,0.0,0.0,0.0,0.0,0.0,0.0,0.0,-0.9204,0.0,0.0,0.0,0.0,0.0,0.0,0.0,0.0,0.0,0.0,0.0,0.0,0.0,0.0,0.0,0.0,0.0,0.0,0.0,0.0,0.0,0.0,0.0,0.0,0.0,0.0,0.0,0.0,0.0,0.0,0.0,0.0,0.0,0.0,0.0,0.0,0.0,0.0,0.0,0.0,0.0,0.0,0.0,0.0,0.0,0.0,0.0,0.0,0.0,0.0,0.0,0.0,0.0,0.0,0.0,0.0,-0.9591,-0.9786,-1.0404,-1.1619,-1.1579,-1.1619,-1.1599,-1.1036,-1.0303,-0.9323,0.0,0.0,0.0,0.0,0.0,0.0,0.0,0.0,0.0,0.0,0.0,0.0,0.0,0.0,0.0,0.0,0.0,0.0,0.0,0.0,0.0,0.0,0.0,0.0,0.0,0.0,0.0,0.0,0.0,0.0,0.0,0.0,0.0,0.0,0.0,0.0,0.0,0.0,0.0,-1.1197,-1.0981,0.0,0.0,0.0,0.0,0.0,0.0,0.0,0.0,-0.9237,0.0,0.0,0.0,0.0,0.0,0.0,0.0,0.0,0.0,0.0,0.0,0.0,0.0,0.0,0.0,0.0,0.0,0.0,0.0,0.0,0.0,0.0,0.0,0.0,0.0,0.0,0.0,0.0,0.0,0.0,0.0,0.0,0.0,0.0,0.0,0.0,0.0,0.0,0.0,0.0,0.0,0.0,0.0,0.0,0.0,0.0,0.0,0.0,0.0,0.0,0.0,0.0,0.0,0.0,0.0,-0.8927,-0.9731,-1.0518,-1.1579,-1.1619,-1.1619,-1.1606,-1.0684,-0.9832,0.0,0.0,0.0,0.0,0.0,0.0,0.0,0.0,0.0,0.0,0.0,0.0,0.0,0.0,0.0,0.0,0.0,0.0,0.0,0.0,0.0,0.0,0.0,0.0,0.0,0.0,0.0,0.0,0.0,0.0,0.0,0.0,0.0,0.0,0.0,0.0,0.0,0.0,0.0,0.0,-1.0775,-1.045,-1.025,0.0,0.0,0.0,0.0,0.0,0.0,-0.9671,-0.9404,0.0,0.0,0.0,0.0,0.0,0.0,0.0,0.0,0.0,0.0,0.0,0.0,0.0,0.0,0.0,0.0,0.0,0.0,0.0,0.0,0.0,0.0,0.0,0.0,0.0,0.0,0.0,0.0,0.0,0.0,0.0,0.0,0.0,0.0,0.0,0.0,0.0,0.0,0.0,0.0,0.0,0.0,0.0,0.0,0.0,0.0,0.0,0.0,0.0,0.0,0.0,0.0,0.0,0.0,0.0,-0.8102,-0.9469,-1.0594,-1.1529,-1.1569,-1.1549,-1.1509,-1.0489,-0.9494,0.0,0.0,0.0,0.0,0.0,0.0,0.0,0.0,0.0,0.0,0.0,0.0,0.0,0.0,0.0,0.0,0.0,0.0,0.0,0.0,0.0,0.0,0.0,0.0,0.0,0.0,0.0,0.0,0.0,0.0,0.0,0.0,0.0,0.0,0.0,0.0,0.0,0.0,0.0,0.0,0.0,-1.0266,-1.0539,-1.0318,0.0,0.0,0.0,0.0,-1.0235,-1.0002,0.0,0.0,0.0,0.0,0.0,0.0,0.0,0.0,0.0,0.0,0.0,0.0,0.0,0.0,0.0,0.0,0.0,0.0,0.0,0.0,0.0,0.0,0.0,0.0,0.0,0.0,0.0,0.0,0.0,0.0,0.0,0.0,0.0,0.0,0.0,0.0,0.0,0.0,0.0,0.0,0.0,0.0,0.0,0.0,0.0,0.0,0.0,0.0,0.0,0.0,0.0,0.0,0.0,0.0,0.0,0.0,-0.7746,-0.8925,-1.0185,-1.1508,-1.158,-1.1663,-1.1517,-1.069,-0.9895,0.0,0.0,0.0,0.0,0.0,0.0,0.0,0.0,0.0,0.0,0.0,0.0,0.0,0.0,0.0,0.0,0.0,0.0,0.0,0.0,0.0,0.0,0.0,0.0,0.0,0.0,0.0,0.0,0.0,0.0,0.0,0.0,0.0,0.0,0.0,0.0,0.0,0.0,0.0,0.0,0.0,-1.0711,-1.1133,-1.059,-1.017,0.0,0.0,-1.0288,-1.0358,-1.0614,0.0,0.0,0.0,0.0,0.0,0.0,0.0,0.0,0.0,0.0,0.0,0.0,0.0,0.0,0.0,0.0,0.0,0.0,0.0,0.0,0.0,0.0,0.0,0.0,0.0,0.0,0.0,0.0,0.0,0.0,0.0,0.0,0.0,0.0,0.0,0.0,0.0,0.0,0.0,0.0,0.0,0.0,0.0,0.0,0.0,0.0,0.0,0.0,0.0,0.0,0.0,0.0,0.0,0.0,0.0,-0.7163,-0.7438,-0.9563,-1.0593,-1.0679,-1.0709,-1.0685,-1.0619,-1.0115,-0.9437,0.0,0.0,0.0,0.0,0.0,0.0,0.0,0.0,0.0,0.0,0.0,0.0,0.0,0.0,0.0,0.0,0.0,0.0,0.0,0.0,0.0,0.0,0.0,0.0,0.0,0.0,0.0,0.0,0.0,0.0,0.0,0.0,0.0,0.0,0.0,0.0,0.0,0.0,0.0,0.0,0.0,0.0,-1.0929,-1.0834,0.0,0.0,0.0,-1.09,-1.0907,0.0,0.0,0.0,0.0,0.0,0.0,0.0,0.0,0.0,0.0,0.0,0.0,0.0,0.0,0.0,0.0,0.0,0.0,0.0,0.0,0.0,0.0,0.0,0.0,0.0,0.0,0.0,0.0,0.0,0.0,0.0,0.0,0.0,0.0,0.0,0.0,0.0,0.0,0.0,0.0,0.0,0.0,0.0,0.0,0.0,0.0,0.0,0.0,0.0,0.0,0.0,0.0,0.0,0.0,0.0,0.0,0.0,-0.737,-0.9769,-1.0669,-1.0028,-1.0044,-1.0028,-0.9983,-0.9716,0.0,0.0,0.0,0.0,0.0,0.0,0.0,0.0,0.0,0.0,0.0,0.0,0.0,0.0,0.0,0.0,0.0,0.0,0.0,0.0,0.0,0.0,0.0,0.0,0.0,0.0,0.0,-0.5739,0.0,0.0,0.0,0.0,0.0,0.0,0.0,0.0,0.0,0.0,0.0,0.0,0.0,0.0,-1.0609,-1.0799,-1.1041,-1.1171,0.0,0.0,-1.1264,-1.125,-1.1397,-1.1157,0.0,0.0,0.0,0.0,0.0,0.0,0.0,0.0,0.0,0.0,0.0,0.0,0.0,0.0,0.0,0.0,0.0,0.0,0.0,0.0,0.0,0.0,0.0,0.0,0.0,0.0,0.0,0.0,0.0,0.0,0.0,0.0,0.0,0.0,0.0,0.0,0.0,0.0,0.0,0.0,0.0,0.0,0.0,0.0,0.0,0.0,0.0,0.0,0.0,0.0,0.0,0.0,0.0,0.0,0.0,-0.749,-0.8777,-0.9639,-0.9965,-0.9992,-0.9943,-0.9976,-0.9769,-0.9502,0.0,0.0,0.0,0.0,0.0,0.0,0.0,0.0,0.0,0.0,0.0,0.0,0.0,0.0,0.0,0.0,0.0,0.0,0.0,0.0,0.0,0.0,0.0,0.0,0.0,0.0,0.0,0.0,0.0,0.0,0.0,0.0,0.0,0.0,0.0,0.0,0.0,0.0,0.0,0.0,0.0,-1.0517,-1.0834,-1.1122,-1.146,0.0,0.0,-1.1453,-1.1605,-1.1769,-1.1715,-1.0805,0.0,0.0,0.0,0.0,0.0,0.0,0.0,0.0,0.0,0.0,0.0,0.0,0.0,0.0,0.0,0.0,0.0,0.0,0.0,0.0,0.0,0.0,0.0,0.0,0.0,0.0,0.0,0.0,0.0,0.0,0.0,0.0,0.0,0.0,0.0,0.0,0.0,0.0,0.0,0.0,0.0,0.0,0.0,0.0,0.0,0.0,0.0,0.0,0.0,0.0,0.0,0.0,0.0,-0.738,-0.7475,-0.89,-0.9731,-1.0003,-1.0019,-0.9998,-0.9954,-0.9866,-0.9325,0.0,0.0,0.0,0.0,0.0,0.0,0.0,0.0,0.0,0.0,0.0,0.0,0.0,0.0,0.0,0.0,0.0,0.0,0.0,0.0,0.0,0.0,0.0,0.0,0.0,0.0,0.0,0.0,-0.7468,-0.7645,-0.7373,0.0,0.0,0.0,0.0,0.0,0.0,0.0,0.0,0.0,0.0,-1.0819,-1.1509,-1.1706,0.0,0.0,-1.1893,-1.1945,-1.1606,-1.1633,-1.1335,-1.0555,-1.0074,0.0,0.0,0.0,0.0,0.0,0.0,0.0,0.0,0.0,0.0,0.0,0.0,0.0,0.0,0.0,0.0,0.0,0.0,0.0,0.0,0.0,0.0,0.0,0.0,0.0,0.0,0.0,0.0,0.0,0.0,0.0,0.0,0.0,0.0,0.0,0.0,0.0,0.0,0.0,0.0,0.0,0.0,0.0,0.0,0.0,0.0,0.0,0.0,0.0,0.0,0.0,0.0,-0.7406,-0.7541,-0.9007,-0.9818,-1.0025,-1.003,-1.0047,-1.0068,-0.991,-0.9456,0.0,0.0,0.0,0.0,0.0,0.0,0.0,0.0,0.0,0.0,0.0,0.0,0.0,0.0,0.0,0.0,0.0,0.0,0.0,0.0,0.0,0.0,0.0,0.0,0.0,0.0,0.0,0.0,-0.7794,-0.7862,-0.7502,0.0,0.0,0.0,0.0,0.0,0.0,0.0,0.0,0.0,0.0,-1.1108,-1.1747,-1.1879,-1.1942,-1.1748,-1.1832,-1.19,-1.1558,-1.1497,-1.1233,-1.0719,0.0,0.0,0.0,0.0,0.0,0.0,0.0,0.0,0.0,0.0,0.0,0.0,0.0,0.0,0.0,0.0,0.0,0.0,0.0,0.0,0.0,0.0,0.0,0.0,0.0,0.0,0.0,0.0,0.0,0.0,-0.5018,0.0,0.0,0.0,0.0,0.0,0.0,0.0,0.0,0.0,0.0,0.0,0.0,0.0,0.0,0.0,0.0,0.0,0.0,0.0,0.0,0.0,0.0,-0.7564,-0.7556,-0.8939,-0.9746,-1.0041,-0.9891,-0.9944,-1.0374,-1.0136,-0.9706,-0.9342,0.0,0.0,0.0,0.0,0.0,0.0,0.0,0.0,0.0,0.0,0.0,0.0,0.0,0.0,0.0,0.0,0.0,0.0,0.0,0.0,0.0,0.0,0.0,0.0,0.0,0.0,-0.6797,-0.7129,-0.7339,0.0,0.0,0.0,0.0,0.0,0.0,0.0,0.0,0.0,0.0,-1.0754,-1.1369,-1.1396,-1.1525,-1.1633,-1.164,-1.1389,-1.124,-1.1389,-1.1511,-1.1605,0.0,0.0,0.0,0.0,0.0,0.0,0.0,0.0,0.0,0.0,0.0,0.0,0.0,0.0,0.0,0.0,0.0,0.0,0.0,0.0,0.0,0.0,0.0,0.0,0.0,0.0,0.0,-0.5757,-0.561,0.0,0.0,0.0,0.0,0.0,0.0,0.0,0.0,0.0,0.0,0.0,-0.716,-0.7134,0.0,0.0,0.0,0.0,0.0,0.0,0.0,0.0,0.0,0.0,0.0,0.0,-0.7408,-0.7935,-0.8899,-0.9624,-0.9901,-0.5636,-0.5648,-1.0442,-1.0446,-1.0168,-0.9297,0.0,0.0,0.0,0.0,0.0,0.0,0.0,0.0,0.0,0.0,0.0,0.0,0.0,0.0,0.0,0.0,0.0,0.0,0.0,0.0,0.0,0.0,0.0,0.0,0.0,-0.7183,0.0,0.0,0.0,0.0,0.0,0.0,0.0,0.0,0.0,0.0,0.0,-0.9605,-1.052,-1.0758,-1.109,-1.1484,-1.1667,-1.183,0.0,0.0,0.0,0.0,0.0,0.0,0.0,0.0,0.0,0.0,0.0,0.0,0.0,0.0,-1.0504,-0.9449,-0.9959,-1.0524,-0.9856,0.0,0.0,0.0,0.0,0.0,0.0,0.0,0.0,0.0,0.0,0.0,0.0,0.0,0.0,-0.6339,0.0,-0.6198,0.0,0.0,0.0,0.0,0.0,0.0,0.0,0.0,-0.7252,-0.7736,-0.7959,-0.8204,-0.8007,0.0,-0.785,-0.742,0.0,0.0,0.0,0.0,0.0,0.0,0.0,0.0,-0.7276,-0.7666,-0.8887,-0.8632,-0.6469,-0.2206,-0.2209,-0.6832,-0.8145,-0.8031,-0.6162,-0.6677,-0.7242,0.0,0.0,0.0,0.0,0.0,0.0,0.0,0.0,0.0,0.0,0.0,0.0,0.0,0.0,0.0,0.0,0.0,0.0,0.0,0.0,0.0,0.0,0.0,-0.7577,0.0,0.0,0.0,0.0,0.0,0.0,0.0,0.0,0.0,-0.9051,-0.9605,-1.0331,-1.1016,-1.1199,-1.1355,-1.1586,0.0,0.0,0.0,0.0,0.0,0.0,0.0,-1.1016,-1.0968,-1.0887,-1.0928,-1.1219,-1.1552,-1.1742,-1.164,0.0,0.0,-1.0555,-1.0946,-1.1297,-1.0884,-1.0778,-1.0853,-1.1002,-1.161,-1.2239,0.0,0.0,0.0,0.0,0.0,0.0,0.0,0.0,-0.6877,-0.6817,0.0,-0.6812,0.0,0.0,0.0,0.0,0.0,-0.7292,0.0,0.0,-0.8339,-0.9003,-0.8802,-0.8905,-0.9109,-0.9237,-0.9303,-0.9263,-0.9111,-0.6921,0.0,0.0,0.0,0.0,0.0,0.0,-0.7051,-0.651,-0.844,-0.655,0.0,0.0,0.0,0.0,-0.3488,-0.358,-0.0307,-0.3009,-0.5917,-0.8905,-0.769,0.0,0.0,0.0,0.0,0.0,0.0,0.0,0.0,0.0,0.0,0.0,0.0,0.0,0.0,0.0,0.0,0.0,0.0,0.0,0.0,-0.8188,0.0,0.0,0.0,0.0,0.0,0.0,0.0,0.0,0.0,0.0,-0.9496,-1.0317,-1.1056,-1.1341,0.0,0.0,0.0,0.0,-1.185,-1.1307,-1.1067,-1.104,-1.1056,-1.1369,-1.1674,-1.1809,0.0,0.0,-1.2352,-1.2196,-1.2033,-1.1742,-1.2291,-1.261,-1.2162,-1.185,-1.1694,-1.1674,-1.1586,-1.1525,-1.1653,-1.183,-1.1945,-0.3482,0.0,0.0,0.0,0.0,-0.8493,-0.8564,-0.8084,-0.8171,-0.804,-0.7774,-0.7807,0.0,0.0,0.0,0.0,0.0,0.0,-0.8799,-0.8167,-0.8644,-0.9101,-0.9285,-0.9405,-0.9465,-0.9606,-0.9362,-0.9318,-0.9318,-0.8913,-0.8264,-0.7396,0.0,0.0,0.0,0.0,-0.6514,-0.6827,-0.4304,-0.1917,0.0,0.0,0.0,0.0,-0.095,-0.1096,-0.0,-0.091,-0.1752,-0.2784,-0.674,0.0,0.0,0.0,0.0,0.0,0.0,0.0,0.0,0.0,0.0,0.0,0.0,0.0,0.0,0.0,0.0,0.0,0.0,0.0,-0.8027,-0.8419,-0.8411,0.0,0.0,0.0,0.0,0.0,0.0,0.0,0.0,0.0,-1.0778,-1.0975,-1.1131,0.0,0.0,-1.1402,-1.1172,-1.1572,-1.1911,-1.1959,-1.1898,0.0,-1.221,-1.206,-1.1986,-1.2135,-1.2569,-1.2868,-1.2786,-1.2901,-1.299,-1.2895,-1.3064,-1.3159,-1.3051,-1.2956,-1.2847,-1.2759,-1.2773,-1.2834,-1.2881,-1.2929,-1.2956,-0.1539,-0.397,-0.5419,-0.6363,-0.7122,-0.8799,-0.9209,-0.8878,-0.8948,-0.8834,-0.8595,-0.8638,-0.8285,-0.7649,-0.6715,0.0,0.0,0.0,-0.951,-0.9165,-0.9215,-0.9443,-0.9699,-0.9824,-0.9856,-0.9813,-0.9655,-0.9508,-0.9524,-1.0016,-0.9496,-0.7948,0.0,0.0,-0.6394,-0.6149,-0.5431,-0.4295,-0.1566,0.0,0.0,0.0,0.0,0.0,0.0,0.0,0.0,0.0,0.0,0.0,-0.3808,-0.6613,0.0,0.0,0.0,0.0,0.0,0.0,0.0,0.0,0.0,0.0,0.0,-0.7428,-0.6844,0.0,0.0,0.0,-0.7978,-0.8873,-0.8425,-0.8791,0.0,0.0,0.0,0.0,0.0,0.0,0.0,-0.9587,-1.0575,-1.126,-1.1531,-1.1592,-1.1653,-1.1769,-1.1782,-1.1728,-1.1586,0.0,-1.2298,-1.2366,-1.2286,-1.2373,-1.2623,-1.2677,-1.2649,-1.2698,-1.2942,-1.3125,-1.3139,-1.3288,-1.3397,-1.3397,-1.3397,-1.3397,-1.3397,-1.3397,-1.3376,-1.3288,-1.3336,-1.3397,-1.3397,-1.3397,-1.3397,0.0,0.0,-0.4164,-0.5552,-0.525,-0.8433,-0.9598,-0.9345,-0.9356,-0.9296,-0.9204,-0.9302,-0.9041,-0.8503,-0.7889,0.0,-0.9433,-0.9602,-0.9862,-1.0005,-0.9976,-0.9938,-1.0052,-0.9992,-0.9987,-1.0036,-1.0025,-0.997,-1.0015,-1.0453,-0.9826,-0.8043,-0.6653,-0.606,-0.6385,-0.6038,-0.3937,-0.0152,0.0,0.0,0.0,0.0,0.0,0.0,0.0,0.0,0.0,0.0,0.0,0.0,0.0,-0.2798,-0.8774,0.0,0.0,0.0,0.0,0.0,0.0,0.0,0.0,0.0,0.0,0.0,0.0,0.0,0.0,0.0,-0.8546,0.0,-0.949,-0.9361,0.0,0.0,0.0,-0.9286,-0.9849,-0.9921,-1.0161,-1.0833,0.0,0.0,-1.1904,-1.2149,-1.244,-1.2745,-1.2739,-1.2657,-1.2501,-1.2725,-1.2854,-1.2589,-1.2569,-1.2583,-1.2657,-1.2986,-1.338,-1.3281,-1.3397,-1.3383,-1.3383,-1.339,-1.3397,-1.3397,-1.3397,-1.3397,-1.3397,-1.3397,-1.3397,-1.339,-1.3397,-1.3397,-1.3397,-1.3397,-1.3403,0.0,0.0,-0.1066,-0.2844,-0.5324,-0.8561,-0.9844,-0.972,-0.9807,-0.978,-0.9671,-0.9699,-0.9584,-0.9367,-0.9307,-0.9362,-0.9809,-1.0144,-1.0292,-1.0263,-1.0318,-1.0269,-1.0297,-1.0237,-1.0346,-1.0318,-1.0063,-1.0052,-0.9955,-1.0063,-0.9938,-0.9304,-0.4096,-0.324,-0.614,-0.3227,-0.1016,0.0,0.0,0.0,0.0,0.0,0.0,0.0,0.0,0.0,0.0,0.0,0.0,0.0,0.0,-0.0742,-0.2367,-0.6809,0.0,0.0,0.0,0.0,0.0,0.0,0.0,0.0,0.0,-0.8262,-0.7326,0.0,-0.9406,0.0,-0.8552,-1.0009,-1.0392,-1.0371,0.0,0.0,-1.0188,-1.027,-1.0643,-1.0895,-1.1206,-1.1463,-1.1979,-1.2546,-1.2501,-1.2583,-1.2779,-1.3166,-1.284,-1.2508,-1.2379,-1.2698,-1.2935,-1.2888,-1.3037,-1.3186,-1.3173,-1.3241,-1.3322,-1.339,-1.3397,-1.3397,-1.3397,-1.3397,-1.3397,-1.3397,-1.3397,-1.3397,-1.3397,-1.3397,-1.3397,-1.3397,-1.3397,-1.3397,-1.3397,-1.3397,-1.3437,0.0,0.0,0.0,-0.1107,-0.3118,-0.7946,-0.996,-0.9938,-0.9992,-1.0014,-1.0003,-1.0057,-1.0047,-0.9992,-0.9832,-0.9832,-0.9998,-1.0128,-1.0346,-1.0515,-1.0484,-1.0411,-1.046,-1.0394,-1.0362,-1.0356,-1.0078,-1.003,-1.004,-1.0019,-0.9971,-0.9896,-0.3288,-0.1228,-0.3401,-0.1156,0.0,0.0,0.0,0.0,0.0,0.0,0.0,0.0,0.0,0.0,0.0,0.0,0.0,0.0,-0.2057,-0.2296,-0.0272,-0.6319,-0.9052,0.0,0.0,0.0,0.0,0.0,0.0,0.0,0.0,0.0,0.0,0.0,-1.036,-0.8608,-0.9882,-1.0812,-1.0636,-1.0799,-1.0941,-1.0989,-1.1111,-1.1335,-1.1701,-1.1945,-1.2325,-1.2311,-1.2657,-1.2935,-1.3017,-1.303,-1.3119,-1.337,-1.3112,-1.2874,-1.282,-1.301,-1.318,-1.3254,-1.3397,-1.3331,-1.3331,-1.3498,-1.3478,-1.3417,-1.3397,-1.3397,-1.3397,-1.3397,-1.3397,-1.3397,-1.3397,-1.3397,-1.3397,-1.3397,-1.3397,-1.3397,-1.3397,-1.3397,-1.3397,-1.3397,-1.3444,0.0,0.0,0.0,0.0,0.0,-0.6204,-0.9159,-0.9939,-1.0079,-1.0128,-1.0237,-1.034,-1.0384,-1.0384,-1.0056,-1.0056,-1.0056,-1.0072,-1.0244,-1.0734,-1.0589,-1.0487,-1.0579,-1.0563,-1.0388,-1.0383,-1.0271,-1.0003,-1.0062,-0.9982,-0.9504,-0.8459,-0.2865,0.0,0.0,0.0,0.0,0.0,0.0,0.0,0.0,0.0,0.0,0.0,0.0,0.0,0.0,0.0,0.0,0.0,-0.4597,-0.5252,-0.1333,-0.6602,-0.9124,0.0,-0.7446,0.0,0.0,0.0,0.0,0.0,0.0,0.0,0.0,-1.0163,-1.0545,-1.1002,-1.1789,-1.1817,-1.0812,-1.1131,-1.1477,-1.1762,-1.202,-1.2338,-1.2732,-1.2908,-1.3044,-1.3186,-1.3322,-1.3397,-1.3383,-1.3397,-1.3397,-1.3397,-1.3376,-1.3356,-1.341,-1.341,-1.3471,-1.3634,-1.3465,-1.3439,-1.3614,-1.362,-1.3587,-1.3485,-1.3478,-1.3458,-1.3478,-1.3471,-1.3464,-1.3464,-1.3478,-1.3471,-1.3458,-1.3464,-1.3464,-1.3478,-1.3485,-1.3471,-1.3451,-1.3444,-1.3492,0.0,0.0,0.0,0.0,0.0,-0.1293,-0.5,-1.003,-1.0024,-1.0196,-1.0373,-1.0384,-1.0384,-1.0384,-1.0384,-1.0384,-1.0556,-1.0644,-1.0688,-1.0694,-1.0623,-1.0683,-1.0693,-1.0601,-1.0558,-1.071,-1.0605,-1.0373,-1.0024,-1.0024,-0.7198,-0.2042,-0.0629,0.0,0.0,0.0,0.0,0.0,0.0,0.0,0.0,0.0,0.0,0.0,0.0,0.0,0.0,0.0,0.0,0.0,-0.4549,0.0,0.0,0.0,0.0,0.0,0.0,0.0,0.0,0.0,0.0,0.0,-0.9975,-1.0012,-1.0181,-1.0439,-1.1157,-1.2383,-1.2723,-1.2685,-1.2264,-1.2379,-1.2508,-1.2684,-1.2752,-1.2874,-1.3064,-1.3112,-1.3193,-1.3342,-1.3383,-1.3397,-1.3397,-1.3397,-1.3397,-1.3397,-1.3397,-1.3451,-1.3566,-1.358,-1.3641,-1.3763,-1.3722,-1.3648,-1.3978,-1.3816,-1.3688,-1.3722,-1.3756,-1.3756,-1.3749,-1.3756,-1.3756,-1.3756,-1.3756,-1.3756,-1.3756,-1.3756,-1.3736,-1.3756,-1.3749,-1.3722,-1.3614,-1.3587,-1.3668,0.0,0.0,0.0,0.0,0.0,0.0,-0.2811,-0.7616,-0.7514,-0.8639,-1.0498,-1.0552,-1.0568,-1.0558,-1.0563,-1.0558,-1.0732,-1.0788,-1.0645,-1.065,-1.071,-1.0737,-1.0732,-1.0677,-1.0645,-1.0639,-1.0694,-1.0633,-1.0303,-1.0281,-0.678,0.0,0.0,0.0,0.0,0.0,0.0,0.0,0.0,0.0,0.0,0.0,0.0,0.0,0.0,0.0,0.0,0.0,0.0,0.0,0.0,0.0,0.0,-0.8112,0.0,-0.9296,-0.9484,-0.9503,-0.9618,-0.9971,-1.0633,-1.1266,-1.1456,-1.1302,-1.0515,-1.1018,-1.1837,-1.2907,-1.3173,-1.307,-1.28,-1.2908,-1.2976,-1.3057,-1.3132,-1.3214,-1.3268,-1.3281,-1.3315,-1.3383,-1.3397,-1.3397,-1.3397,-1.3397,-1.3397,-1.3397,-1.3397,-1.3458,-1.3593,-1.3627,-1.3702,-1.374,-1.3973,-1.3933,-1.4036,-1.4022,-1.3831,-1.3858,-1.3905,-1.3953,-1.3953,-1.4021,-1.4068,-1.4061,-1.4007,-1.3953,-1.3946,-1.3899,-1.3838,-1.3838,-1.3838,-1.3858,-1.3831,-1.379,-1.3797,0.0,0.0,0.0,0.0,0.0,0.0,-0.1516,-0.4208,0.0,0.0,0.0,-1.0382,-1.0753,-1.0737,-1.0737,-1.0737,-1.0737,-1.0737,-1.0737,-1.0737,-1.0737,-1.0737,-1.0737,-1.0737,-1.0737,-1.0732,-1.0639,-1.0755,-1.0755,-1.0688,-0.7026,0.0,0.0,0.0,0.0,0.0,0.0,0.0,0.0,0.0,0.0,0.0,0.0,0.0,0.0,0.0,0.0,0.0,-0.0559,-0.1635,-0.1218,-0.2984,-0.7415,-0.8355,-0.9211,-1.0028,-0.9613,-0.9789,-1.0492,-1.0779,-1.1485,-1.2581,-1.2915,-1.2561,-1.1151,-1.185,-1.2503,-1.2983,-1.3332,-1.3332,-1.3037,-1.3139,-1.3214,-1.3214,-1.3329,-1.3397,-1.3397,-1.3397,-1.3397,-1.3397,-1.3397,-1.3397,-1.3397,-1.3397,-1.3397,-1.3397,-1.3397,-1.3471,-1.3627,-1.3709,-1.381,-1.384,-1.4116,-1.4183,-1.3928,-1.4089,-1.4068,-1.4014,-1.4109,-1.4183,-1.4211,-1.4292,-1.4367,-1.4373,-1.4265,-1.4211,-1.419,-1.4122,-1.4007,-1.4,-1.4,-1.4041,-1.4143,-1.4095,-1.4041,0.0,0.0,0.0,0.0,0.0,0.0,-0.0337,-0.0673,0.0,-0.2675,-0.6366,-0.9402,-1.0753,-1.0737,-1.0737,-1.0737,-1.0737,-1.0737,-1.0737,-1.0737,-1.0737,-1.0737,-1.0737,-1.0737,-1.0737,-1.0737,-1.0715,-1.0721,-1.0737,-1.057,-0.7031,0.0,0.0,0.0,0.0,0.0,0.0,0.0,0.0,0.0,0.0,0.0,0.0,0.0,0.0,0.0,0.0,0.0,-0.2739,-0.8116,-0.5887,-0.5962,-0.935,-0.9421,-0.9595,-1.0241,-1.0605,-1.0639,-1.0385,-1.1042,-1.1721,-1.2282,-1.2896,-1.3037,-1.2668,-1.2715,-1.299,-1.3295,-1.3315,-1.3363,-1.3315,-1.3349,-1.3356,-1.3363,-1.339,-1.3397,-1.3397,-1.3397,-1.3397,-1.3397,-1.3397,-1.3397,-1.3397,-1.3397,-1.3403,-1.3403,-1.3437,-1.3512,-1.3756,-1.3926,-1.4014,-1.4235,-1.4089,-1.4095,-1.4297,-1.419,-1.4285,-1.4407,-1.4523,-1.4611,-1.4611,-1.4645,-1.4672,-1.4679,-1.4638,-1.4624,-1.4443,-1.4631,-1.4563,-1.4363,-1.4536,-1.457,-1.459,-1.457,-1.4509,0.0,0.0,0.0,0.0,0.0,0.0,0.0,0.0,0.0,-0.084,-0.3021,-0.8248,-1.078,-1.0753,-1.0753,-1.0748,-1.0737,-1.0737,-1.0737,-1.0737,-1.0737,-1.0737,-1.0737,-1.0737,-1.0737,-1.0737,-1.0748,-1.0759,-1.0425,-0.6888,-0.3191,0.0,0.0,0.0,0.0,0.0,0.0,0.0,0.0,0.0,0.0,0.0,0.0,0.0,0.0,0.0,0.0,0.0,-0.327,-1.0196,-0.8883,-0.8621,-0.9896,-1.0008,-1.0258,-1.0528,-1.0711,-1.0706,-1.0706,-1.1415,-1.1806,-1.2213,-1.244,-1.2782,-1.322,-1.3207,-1.3227,-1.3459,-1.3466,-1.3329,-1.339,-1.3397,-1.3397,-1.3397,-1.3397,-1.3397,-1.3397,-1.3397,-1.3397,-1.3397,-1.3397,-1.3397,-1.3397,-1.3397,-1.3437,-1.3505,-1.358,-1.3722,-1.3926,-1.4021,-1.4102,-1.4177,-1.4197,-1.4238,-1.4476,-1.4367,-1.4475,-1.4611,-1.4767,-1.4855,-1.4875,-1.4916,-1.497,-1.497,-1.4923,-1.4869,-1.4678,-1.4787,-1.4753,-1.474,-1.474,-1.474,-1.474,-1.474,-1.4685,0.0,0.0,0.0,0.0,0.0,0.0,0.0,0.0,0.0,0.0,0.0,-0.5891,-0.8923,-0.9918,-1.0425,-1.0753,-1.0737,-1.0737,-1.0737,-1.0737,-1.0737,-1.0737,-1.0737,-1.0737,-1.0737,-1.0742,-1.0759,-0.9918,-0.7725,-0.2686,0.0,0.0,0.0,0.0,0.0,0.0,0.0,0.0,0.0,0.0,0.0,0.0,0.0,0.0,0.0,0.0,0.0,0.0,-0.2479,-0.786,-0.982,-1.046,-1.0109,-1.0265,-1.06,-1.0628,-1.0628,-1.0628,-1.0958,-1.1359,-1.1788,-1.189,-1.2069,-1.2407,-1.2925,-1.3078,-1.3065,-1.3065,-1.3231,-1.3403,-1.3231,-1.3403,-1.3397,-1.3397,-1.3397,-1.3397,-1.3397,-1.3397,-1.3397,-1.3397,-1.3397,-1.3397,-1.3403,-1.3431,-1.3519,-1.3661,-1.3804,-1.3939,-1.4048,-1.4095,-1.4177,-1.4265,-1.4326,-1.438,-1.4682,-1.4584,-1.4665,-1.478,-1.4916,-1.4997,-1.5031,-1.5113,-1.5167,-1.5147,-1.5086,-1.5025,-1.5004,-1.4936,-1.4869,-1.4875,-1.4875,-1.4862,-1.4869,-1.4862,-1.4808,0.0,0.0,0.0,0.0,0.0,0.0,0.0,0.0,0.0,0.0,0.0,0.0,-0.3524,-0.7379,-0.9746,-1.0759,-1.0737,-1.0737,-1.0737,-1.0737,-1.0737,-1.0737,-1.0737,-1.0737,-1.0748,-1.0759,-1.0764,-0.7558,0.0,0.0,0.0,0.0,0.0,0.0,0.0,0.0,0.0,0.0,0.0,0.0,0.0,0.0,0.0,0.0,0.0,0.0,0.0,0.0,0.0,-0.1486,-0.7267,-1.042,-1.0066,-1.0383,-1.059,-1.0688,-1.0699,-1.0704,-1.0699,-1.1214,-1.1386,-1.157,-1.1902,-1.2069,-1.2241,-1.2235,-1.2235,-1.2235,-1.2912,-1.3078,-1.2899,-1.3231,-1.3397,-1.3397,-1.3397,-1.3397,-1.3397,-1.3397,-1.3397,-1.3397,-1.3397,-1.3403,-1.3431,-1.3539,-1.3675,-1.3804,-1.396,-1.4055,-1.4095,-1.4183,-1.4265,-1.4319,-1.4401,-1.4489,-1.4737,-1.476,-1.4882,-1.495,-1.5065,-1.5126,-1.5147,-1.5153,-1.5181,-1.5181,-1.5167,-1.5147,-1.5147,-1.514,-1.5126,-1.5079,-1.5086,-1.512,-1.514,-1.5113,-1.5025,0.0,0.0,0.0,0.0,0.0,0.0,0.0,0.0,0.0,0.0,0.0,0.0,-0.1176,-0.3355,-0.8244,-1.0786,-1.077,-1.0759,-1.0759,-1.077,-1.0748,-1.0748,-1.077,-1.0759,-1.0764,-1.078,-1.0791,-0.7063,0.0,0.0,0.0,0.0,0.0,0.0,0.0,0.0,0.0,0.0,0.0,0.0,0.0,0.0,0.0,0.0,0.0,0.0,0.0,0.0,0.0,0.0,-0.4838,-0.8514,-1.0351,-1.0506,-1.0683,-1.0732,-1.0737,-1.0737,-1.0737,-1.0904,-1.107,-1.107,-1.1237,-1.1237,-1.1237,-1.1237,-1.1237,-1.1403,-1.2069,-1.274,-1.3072,-1.3238,-1.3397,-1.3397,-1.3397,-1.3397,-1.3397,-1.3397,-1.3397,-1.3397,-1.3397,-1.3444,-1.3546,-1.3743,-1.3899,-1.3987,-1.4109,-1.419,-1.4211,-1.4265,-1.4333,-1.4421,-1.455,-1.4638,-1.4853,-1.4821,-1.4984,-1.5079,-1.514,-1.5181,-1.5181,-1.5181,-1.5181,-1.5181,-1.5181,-1.5181,-1.5174,-1.5181,-1.5181,-1.5181,-1.5181,-1.5181,-1.5181,-1.5181,-1.5113,0.0,0.0,0.0,0.0,0.0,0.0,0.0,0.0,0.0,0.0,0.0,0.0,0.0,0.0,-0.5569,-0.8764,-1.0283,-0.8738,-0.891,-1.0278,-0.9746,-0.9746,-1.0618,-0.9588,-0.9761,-1.0634,-1.0683,-0.6951,0.0,0.0,0.0,0.0,0.0,0.0,0.0,0.0,0.0,0.0,0.0,0.0,0.0,0.0,0.0,0.0,0.0,0.0,0.0,0.0,0.0,0.0,-0.3524,-0.7052,-1.043,-1.0748,-1.0737,-1.0737,-1.0737,-1.0737,-1.0737,-1.0737,-1.0737,-1.0737,-1.0737,-1.0737,-1.0737,-1.0737,-1.0737,-1.0737,-1.1392,-1.2063,-1.2906,-1.3244,-1.3403,-1.3397,-1.3397,-1.3397,-1.3397,-1.3397,-1.3417,-1.3451,-1.3478,-1.3539,-1.3736,-1.3933,-1.4068,-1.4136,-1.4224,-1.4299,-1.4306,-1.4333,-1.4401,-1.4502,-1.4672,-1.4794,-1.5004,-1.4943,-1.5072,-1.5133,-1.5181,-1.5181,-1.5181,-1.5181,-1.5181,-1.5181,-1.5181,-1.5181,-1.5181,-1.5181,-1.5181,-1.5181,-1.5181,-1.5181,-1.5181,-1.5181,-1.5181,0.0,0.0,0.0,0.0,0.0,0.0,0.0,0.0,0.0,0.0,0.0,0.0,0.0,0.0,0.0,-0.4204,-0.8928,-0.3864,-0.4372,-0.945,-0.7238,-0.7566,-1.0283,-0.7394,-0.7406,-0.9656,-0.9569,-0.6534,0.0,0.0,0.0,0.0,0.0,0.0,0.0,0.0,0.0,0.0,0.0,0.0,0.0,0.0,0.0,0.0,0.0,0.0,0.0,0.0,0.0,0.0,-0.353,-0.7059,-1.0278,-1.0759,-1.0737,-1.0737,-1.0737,-1.0737,-1.0737,-1.0737,-1.0737,-1.0737,-1.0737,-1.0737,-1.0737,-1.0737,-1.0737,-1.0737,-1.0726,-1.1225,-1.2069,-1.2906,-1.3403,-1.3403,-1.3397,-1.3397,-1.3397,-1.3417,-1.3471,-1.3405,-1.362,-1.3743,-1.4,-1.4055,-1.415,-1.4238,-1.4292,-1.4306,-1.434,-1.4421,-1.4496,-1.459,-1.476,-1.4957,-1.5162,-1.5238,-1.514,-1.5181,-1.5181,-1.5181,-1.5181,-1.5181,-1.5181,-1.5181,-1.5181,-1.5181,-1.5181,-1.5181,-1.5181,-1.5181,-1.5181,-1.5181,-1.5181,-1.5181,-1.5181,0.0,0.0,0.0,0.0,0.0,0.0,0.0,0.0,0.0,0.0,0.0,0.0,0.0,0.0,0.0,-0.1374,0.0,-0.1029,-0.1372,-0.395,-0.4803,-0.4803,-0.4121,-0.7049,-0.6706,-0.4128,-0.3797,-0.2598,0.0,0.0,0.0,0.0,0.0,0.0,0.0,0.0,0.0,0.0,0.0,0.0,0.0,0.0,0.0,0.0,0.0,0.0,0.0,0.0,0.0,0.0,-0.3396,-0.694,-1.0121,-1.0759,-1.0737,-1.0737,-1.0737,-1.0737,-1.0737,-1.0737,-1.0737,-1.0737,-1.0737,-1.0737,-1.0737,-1.0737,-1.0737,-1.0732,-1.0726,-1.0893,-1.1225,-1.2229,-1.2899,-1.3065,-1.3231,-1.3403,-1.3417,-1.3485,-1.3573,-1.3472,-1.3777,-1.4139,-1.4055,-1.4156,-1.4238,-1.4285,-1.4299,-1.434,-1.4421,-1.4489,-1.4584,-1.476,-1.4896,-1.5004,-1.5106,-1.514,-1.5181,-1.5181,-1.5181,-1.5181,-1.5181,-1.5181,-1.5181,-1.5181,-1.5181,-1.5181,-1.5181,-1.5181,-1.5181,-1.5181,-1.5181,-1.5181,-1.5181,-1.5181,-1.5181,0.0,0.0,0.0,0.0,0.0,0.0,0.0,0.0,0.0,0.0,0.0,0.0,0.0,0.0,0.0,0.0,0.0,0.0,0.0,0.0,-0.2605,-0.2258,-0.1217,-0.5046,-0.4698,0.0,0.0,0.0,0.0,0.0,0.0,0.0,0.0,0.0,0.0,0.0,0.0,0.0,0.0,0.0,0.0,0.0,0.0,0.0,0.0,0.0,0.0,0.0,0.0,0.0,-0.4469,-0.8215,-1.0346,-1.0645,-1.0775,-1.0742,-1.0737,-1.0737,-1.0737,-1.0737,-1.0737,-1.0737,-1.0737,-1.0737,-1.0737,-1.0737,-1.0737,-1.0737,-1.0732,-1.0726,-1.0904,-1.1772,-1.2451,-1.2759,-1.3111,-1.3471,-1.3478,-1.3607,-1.3709,-1.3633,-1.3994,-1.4122,-1.4156,-1.4238,-1.4285,-1.4299,-1.4333,-1.4414,-1.4489,-1.4618,-1.4713,-1.493,-1.5011,-1.5079,-1.514,-1.5174,-1.5181,-1.5181,-1.5181,-1.5181,-1.5181,-1.5181,-1.5181,-1.5181,-1.5181,-1.5181,-1.5181,-1.5181,-1.5181,-1.5181,-1.5181,-1.5181,-1.5181,-1.5181,-1.5181,0.0,0.0,0.0,0.0,0.0,0.0,0.0,0.0,0.0,0.0,0.0,0.0,0.0,0.0,0.0,0.0,0.0,0.0,0.0,0.0,0.0,0.0,0.0,0.0,0.0,0.0,0.0,0.0,0.0,0.0,0.0,0.0,0.0,0.0,0.0,0.0,0.0,0.0,0.0,0.0,0.0,0.0,0.0,0.0,0.0,0.0,0.0,0.0,0.0,0.0,-0.6094,-1.0234,-1.0454,-1.0758,-1.0699,-1.0775,-1.0742,-1.0742,-1.0737,-1.0737,-1.0737,-1.0737,-1.0737,-1.0737,-1.0737,-1.0737,-1.0742,-1.0759,-1.0753,-1.0753,-1.078,-1.1362,-1.1885,-1.2612,-1.3204,-1.3459,-1.3654,-1.3756,-1.3899,-1.4034,-1.419,-1.4285,-1.4292,-1.4292,-1.4299,-1.4319,-1.4407,-1.4502,-1.4557,-1.4746,-1.493,-1.4997,-1.5072,-1.5147,-1.5167,-1.5181,-1.5181,-1.5181,-1.5181,-1.5181,-1.5181,-1.5181,-1.5181,-1.5181,-1.5181,-1.5181,-1.5181,-1.5181,-1.5181,-1.5181,-1.5181,-1.5181,-1.5181,-1.5181,-1.5181,0.0,0.0,0.0,0.0,0.0,0.0,0.0,0.0,0.0,0.0,0.0,0.0,0.0,0.0,0.0,0.0,0.0,0.0,0.0,0.0,0.0,0.0,0.0,0.0,0.0,0.0,0.0,0.0,0.0,0.0,0.0,0.0,0.0,0.0,0.0,0.0,0.0,0.0,0.0,0.0,0.0,0.0,0.0,0.0,0.0,0.0,0.0,0.0,0.0,0.0,-0.2107,-0.5589,-0.9879,-1.1069,-1.0998,-1.0884,-1.0862,-1.0819,-1.0748,-1.0742,-1.0742,-1.0737,-1.0742,-1.0737,-1.0737,-1.0742,-1.078,-1.0672,-1.0867,-1.1058,-1.1147,-1.1362,-1.1845,-1.2396,-1.3004,-1.3435,-1.3633,-1.3733,-1.3881,-1.4197,-1.4272,-1.4299,-1.4299,-1.4122,-1.3951,-1.4142,-1.4256,-1.437,-1.4679,-1.4848,-1.5018,-1.5099,-1.516,-1.5181,-1.5181,-1.5181,-1.5181,-1.5181,-1.5181,-1.5181,-1.5181,-1.5181,-1.5181,-1.5181,-1.5181,-1.5181,-1.5181,-1.5181,-1.5181,-1.5181,-1.5181,-1.5181,-1.5181,-1.5181,-1.5181,0.0,0.0,0.0,0.0,0.0,0.0,0.0,0.0,0.0,0.0,0.0,0.0,0.0,0.0,0.0,0.0,0.0,0.0,0.0,0.0,0.0,0.0,0.0,0.0,0.0,0.0,0.0,0.0,0.0,0.0,0.0,0.0,0.0,0.0,0.0,0.0,0.0,0.0,0.0,0.0,0.0,0.0,0.0,0.0,0.0,0.0,0.0,0.0,0.0,0.0,0.0,0.0,-0.6815,-0.9431,-1.1134,-1.1031,-1.0987,-1.0949,-1.0884,-1.0889,-1.0873,-1.0873,-1.0873,-1.0873,-1.0873,-1.0704,-1.0742,-1.0795,-1.0987,-1.1191,-1.1262,-1.1491,-1.1813,-1.2093,-1.2841,-1.3428,-1.3827,-1.3914,-1.3644,-1.3198,-1.2503,-1.2325,-1.2154,-1.2206,-1.2574,-1.2961,-1.3462,-1.4147,-1.4461,-1.495,-1.5079,-1.5153,-1.5174,-1.5181,-1.5181,-1.5181,-1.5181,-1.5181,-1.5181,-1.5181,-1.5181,-1.5181,-1.5181,-1.5181,-1.5181,-1.5181,-1.5181,-1.5181,-1.5181,-1.5181,-1.5181,-1.5181,-1.5181,-1.5181,-1.5181,0.0,0.0,0.0,0.0,0.0,0.0,0.0,0.0,0.0,0.0,0.0,0.0,0.0,0.0,0.0,0.0,0.0,0.0,0.0,0.0,0.0,0.0,0.0,0.0,0.0,0.0,0.0,0.0,0.0,0.0,0.0,0.0,0.0,0.0,0.0,0.0,0.0,0.0,0.0,0.0,0.0,0.0,0.0,0.0,0.0,0.0,0.0,0.0,0.0,0.0,0.0,0.0,0.0,-0.723,-1.0724,-1.0972,-1.1123,-1.1101,-1.1096,-1.1063,-1.1069,-1.1063,-1.1063,-1.1101,-1.1069,-1.0881,-1.072,-1.0756,-1.1112,-1.1474,-1.1507,-1.14,-1.162,-1.1981,-1.2854,-1.3611,-1.4265,-1.4285,-1.3578,-1.1788,-0.9815,-0.8566,-0.8956,-0.9204,-0.996,-1.0926,-1.1803,-1.3026,-1.4018,-1.4473,-1.5147,-1.5181,-1.5181,-1.5181,-1.5181,-1.5181,-1.5181,-1.5181,-1.5181,-1.5181,-1.5181,-1.5181,-1.5181,-1.5181,-1.5181,-1.5181,-1.5181,-1.5181,-1.5181,-1.5181,-1.5181,-1.5181,-1.5181,-1.5181,-1.5181,0.0,0.0,0.0,0.0,0.0,0.0,0.0,0.0,0.0,0.0,0.0,0.0,0.0,0.0,0.0,0.0,0.0,0.0,0.0,0.0,0.0,0.0,0.0,0.0,0.0,0.0,0.0,0.0,0.0,0.0,0.0,0.0,0.0,0.0,0.0,0.0,0.0,0.0,0.0,0.0,0.0,0.0,0.0,0.0,0.0,0.0,0.0,0.0,0.0,0.0,0.0,0.0,0.0,-0.4809,-0.8694,-1.0925,-1.1237,-1.1188,-1.1128,-1.1112,-1.1112,-1.1107,-1.1128,-1.1107,-1.1101,-1.1101,-1.0966,-1.102,-1.1406,-1.1445,-1.1516,-1.1384,-1.1754,-1.2113,-1.2984,-1.3716,-1.4108,-1.4319,-1.361,-1.1438,-0.7314,-0.627,-0.7574,-0.8344,-0.8569,-0.9547,-1.0572,-1.1987,-1.2958,-1.4139,-1.4798,-1.5181,-1.5181,-1.5181,-1.5181,-1.5181,-1.5181,-1.5181,-1.5181,-1.5187,-1.5187,-1.5181,-1.5181,-1.5181,-1.5181,-1.5181,-1.5181,-1.5181,-1.5181,-1.5181,-1.5181,-1.5181,-1.5181,-1.5181,-1.5181,0.0,0.0,0.0,0.0,0.0,0.0,0.0,0.0,0.0,0.0,0.0,0.0,0.0,0.0,0.0,0.0,0.0,0.0,0.0,0.0,0.0,0.0,0.0,0.0,0.0,0.0,0.0,0.0,0.0,0.0,0.0,0.0,0.0,0.0,0.0,0.0,0.0,0.0,0.0,0.0,0.0,0.0,0.0,0.0,0.0,0.0,0.0,0.0,0.0,0.0,0.0,0.0,0.0,-0.358,-0.7499,-1.103,-1.1362,-1.1319,-1.127,-1.1248,-1.1253,-1.1253,-1.1248,-1.1253,-1.1259,-1.1253,-1.1291,-1.1335,-1.1351,-1.1566,-1.1433,-1.1455,-1.181,-1.216,-1.2875,-1.3413,-1.3945,-1.4149,-1.29,-1.0021,-0.6276,-0.3602,-0.5996,-0.6221,-0.6822,-0.7425,-0.8427,-1.0156,-1.1876,-1.3245,-1.4422,-1.4993,-1.5181,-1.5181,-1.5181,-1.5181,-1.5201,-1.5201,-1.5282,-1.5269,-1.5235,-1.5228,-1.5208,-1.5215,-1.5194,-1.5194,-1.5215,-1.5215,-1.5181,-1.5181,-1.5181,-1.5194,-1.5201,-1.5248,-1.5235,0.0,0.0,0.0,0.0,0.0,0.0,0.0,0.0,0.0,0.0,0.0,0.0,0.0,0.0,0.0,0.0,0.0,0.0,0.0,0.0,0.0,0.0,0.0,0.0,0.0,0.0,0.0,0.0,0.0,0.0,0.0,0.0,0.0,0.0,0.0,0.0,0.0,0.0,0.0,0.0,0.0,0.0,0.0,0.0,0.0,0.0,0.0,0.0,0.0,0.0,0.0,0.0,0.0,-0.3404,-0.7167,-1.0585,-1.146,-1.1438,-1.1444,-1.1422,-1.1438,-1.1427,-1.1433,-1.1455,-1.1427,-1.1417,-1.1422,-1.1433,-1.1455,-1.1449,-1.1455,-1.1455,-1.1632,-1.1993,-1.2532,-1.29,-1.3261,-1.382,-1.2746,-0.8969,-0.5241,-0.3458,-0.2936,-0.3153,-0.3757,-0.5628,-0.6609,-0.8508,-1.0409,-1.2129,-1.3664,-1.4993,-1.5181,-1.5181,-1.5181,-1.5181,-1.5215,-1.5242,-1.5384,-1.5418,-1.5357,-1.5323,-1.5282,-1.5276,-1.5343,-1.535,-1.5316,-1.5289,-1.5262,-1.5282,-1.535,-1.5309,-1.5262,-1.5337,-1.5357,0.0,0.0,0.0,0.0,0.0,0.0,0.0,0.0,0.0,0.0,0.0,0.0,0.0,0.0,0.0,0.0,0.0,0.0,0.0,0.0,0.0,0.0,0.0,0.0,0.0,0.0,0.0,0.0,0.0,0.0,0.0,0.0,0.0,0.0,0.0,0.0,0.0,0.0,0.0,0.0,0.0,0.0,0.0,0.0,0.0,0.0,0.0,0.0,0.0,0.0,0.0,0.0,0.0,0.0,-0.4657,-0.9509,-1.1309,-1.1471,-1.146,-1.1455,-1.1455,-1.1455,-1.1455,-1.1455,-1.1455,-1.1455,-1.1455,-1.1455,-1.1455,-1.1455,-1.1455,-1.1455,-1.1643,-1.1844,-1.2079,-1.195,-1.1596,-1.2891,-1.2525,-0.8894,-0.5303,-0.2958,-0.298,-0.2991,-0.3394,-0.3982,-0.532,-0.7033,-0.9118,-1.1202,-1.3093,-1.4993,-1.5181,-1.5194,-1.5248,-1.5282,-1.535,-1.5391,-1.5513,-1.5622,-1.556,-1.552,-1.5513,-1.5527,-1.5554,-1.552,-1.5445,-1.5486,-1.5486,-1.5506,-1.5513,-1.5479,-1.5452,-1.5486,-1.5479,0.0,0.0,0.0,0.0,0.0,0.0,0.0,0.0,0.0,0.0,0.0,0.0,0.0,0.0,0.0,0.0,0.0,0.0,0.0,0.0,0.0,0.0,0.0,0.0,0.0,0.0,0.0,0.0,0.0,0.0,0.0,0.0,0.0,0.0,0.0,0.0,0.0,0.0,0.0,0.0,0.0,0.0,0.0,0.0,0.0,0.0,0.0,0.0,0.0,0.0,0.0,0.0,0.0,0.0,0.0,-0.7527,-1.0768,-1.1293,-1.146,-1.1455,-1.1455,-1.1455,-1.1455,-1.1455,-1.1455,-1.1455,-1.1455,-1.1455,-1.1455,-1.1455,-1.146,-1.152,-1.1531,-1.1558,-1.1459,-1.0977,-1.0801,-1.2483,-1.2306,-0.8259,-0.4808,-0.3542,-0.3002,-0.3016,-0.3028,-0.3616,-0.4945,-0.685,-0.8932,-1.1013,-1.2904,-1.4422,-1.4993,-1.5215,-1.5303,-1.5398,-1.552,-1.5594,-1.5696,-1.5805,-1.5839,-1.5811,-1.5791,-1.575,-1.5683,-1.5628,-1.5581,-1.5635,-1.5662,-1.5615,-1.5601,-1.5628,-1.5628,-1.5601,-1.5588,0.0,0.0,0.0,0.0,0.0,0.0,0.0,0.0,0.0,0.0,0.0,0.0,0.0,0.0,0.0,0.0,0.0,0.0,0.0,0.0,0.0,0.0,0.0,0.0,0.0,0.0,0.0,0.0,0.0,0.0,0.0,0.0,0.0,0.0,0.0,0.0,0.0,0.0,0.0,0.0,0.0,0.0,0.0,0.0,0.0,0.0,0.0,0.0,0.0,0.0,0.0,0.0,0.0,0.0,-0.179,-0.5728,-0.95,-1.1293,-1.146,-1.1455,-1.1455,-1.1455,-1.1455,-1.1455,-1.1455,-1.1455,-1.1455,-1.1471,-1.1476,-1.1504,-1.1493,-1.1596,-1.1656,-1.1502,-1.0846,-1.0345,-1.0548,-1.2259,-1.0981,-0.7045,-0.4483,-0.3204,-0.3024,-0.3033,-0.3044,-0.3434,-0.4954,-0.6663,-0.8747,-1.0659,-1.2572,-1.4336,-1.5127,-1.5357,-1.5445,-1.5547,-1.5669,-1.5737,-1.5845,-1.5927,-1.6015,-1.5981,-1.592,-1.5832,-1.5764,-1.5737,-1.5744,-1.5791,-1.5784,-1.571,-1.573,-1.5805,-1.5778,-1.5716,-1.5716,0.0,0.0,0.0,0.0,0.0,0.0,0.0,0.0,0.0,0.0,0.0,0.0,0.0,0.0,0.0,0.0,0.0,0.0,0.0,0.0,0.0,0.0,0.0,0.0,0.0,0.0,0.0,0.0,0.0,0.0,0.0,0.0,0.0,0.0,0.0,0.0,0.0,0.0,0.0,0.0,0.0,0.0,0.0,0.0,0.0,0.0,0.0,0.0,0.0,0.0,0.0,0.0,0.0,0.0,0.0,-0.5013,-0.9147,-1.1487,-1.1465,-1.1455,-1.1455,-1.1455,-1.1455,-1.1455,-1.1455,-1.146,-1.1465,-1.1498,-1.1737,-1.1792,-1.1612,-1.1716,-1.1775,-1.1635,-1.1336,-1.0664,-1.0124,-1.0174,-1.039,-0.6,-0.4155,-0.3041,-0.3041,-0.3043,-0.3048,-0.3623,-0.4952,-0.6672,-0.877,-1.0521,-1.1905,-1.3692,-1.5308,-1.5547,-1.5608,-1.5716,-1.5825,-1.5852,-1.5934,-1.5995,-1.6056,-1.6069,-1.6015,-1.5934,-1.5927,-1.5954,-1.5967,-1.5961,-1.5947,-1.5906,-1.5947,-1.5995,-1.594,-1.5886,-1.5934,0.0,0.0,0.0,0.0,0.0,0.0,0.0,0.0,0.0,0.0,0.0,0.0,0.0,0.0,0.0,0.0,0.0,0.0,0.0,0.0,0.0,0.0,0.0,0.0,0.0,0.0,0.0,0.0,0.0,0.0,0.0,0.0,0.0,0.0,0.0,0.0,0.0,0.0,0.0,0.0,0.0,0.0,0.0,0.0,0.0,0.0,0.0,0.0,0.0,0.0,0.0,0.0,0.0,0.0,0.0,-0.3583,-0.825,-1.1498,-1.1471,-1.1465,-1.1455,-1.1455,-1.146,-1.1455,-1.1455,-1.146,-1.1493,-1.1743,-1.1656,-1.1732,-1.1732,-1.1841,-1.1895,-1.1742,-1.1268,-1.0202,-0.9089,-0.8372,-0.6645,-0.4916,-0.3988,-0.3047,-0.305,-0.3051,-0.3052,-0.3813,-0.4952,-0.6865,-0.898,-1.0759,-1.2362,-1.3831,-1.5662,-1.5716,-1.5959,-1.5852,-1.5927,-1.5961,-1.5995,-1.6056,-1.6083,-1.6083,-1.6083,-1.6042,-1.6076,-1.6083,-1.6069,-1.6022,-1.6056,-1.6083,-1.6056,-1.6042,-1.6062,-1.6076,-1.6083,0.0,0.0,0.0,0.0,0.0,0.0,0.0,0.0,0.0,0.0,0.0,0.0,0.0,0.0,0.0,0.0,0.0,0.0,0.0,0.0,0.0,0.0,0.0,0.0,0.0,0.0,0.0,0.0,0.0,0.0,0.0,0.0,0.0,0.0,0.0,0.0,0.0,0.0,0.0,0.0,0.0,0.0,0.0,0.0,0.0,0.0,0.0,0.0,0.0,0.0,0.0,0.0,0.0,0.0,0.0,-0.3053,-0.7721,-0.9871,-1.1482,-1.1465,-1.1471,-1.1509,-1.1498,-1.1509,-1.1542,-1.158,-1.1585,-1.1859,-1.1964,-1.1851,-1.1868,-1.1955,-1.2015,-1.186,-1.0795,-0.9526,-0.8759,-0.7246,-0.4575,-0.3428,-0.3052,-0.3052,-0.3052,-0.3052,-0.3052,-0.3813,-0.4952,-0.6884,-0.9203,-1.1963,-1.3602,-1.4737,-1.5825,-1.5872,-1.5927,-1.5967,-1.6015,-1.6029,-1.6042,-1.6069,-1.6083,-1.6083,-1.6083,-1.6083,-1.6083,-1.6083,-1.6083,-1.6083,-1.6083,-1.6083,-1.6083,-1.6083,-1.6083,-1.6083,-1.6083,0.0,0.0,0.0,0.0,0.0,0.0,0.0,0.0,0.0,0.0,0.0,0.0,0.0,0.0,0.0,0.0,0.0,0.0,0.0,0.0,0.0,0.0,0.0,0.0,0.0,0.0,0.0,0.0,0.0,0.0,0.0,0.0,0.0,0.0,0.0,0.0,0.0,0.0,0.0,0.0,0.0,0.0,0.0,0.0,0.0,0.0,0.0,0.0,0.0,0.0,0.0,0.0,0.0,0.0,0.0,-0.7241,-0.8853,-0.7881,-1.0784,-1.1509,-1.1531,-1.1596,-1.1618,-1.1672,-1.1705,-1.1566,-1.1764,-1.2163,-1.2091,-1.2151,-1.1987,-1.2074,-1.214,-1.1778,-1.1227,-1.1077,-1.0702,-0.572,-0.3052,-0.3052,-0.3052,-0.3052,-0.3052,-0.3052,-0.3243,-0.4004,-0.4958,-0.7087,-0.9641,-1.2444,-1.4304,-1.546,-1.5927,-1.5974,-1.5995,-1.6049,-1.6062,-1.6083,-1.6083,-1.6083,-1.6083,-1.6083,-1.6083,-1.6083,-1.6083,-1.6083,-1.6083,-1.6083,-1.6083,-1.6083,-1.6083,-1.6083,-1.6083,-1.6083,-1.6083,0.0,0.0,0.0,0.0,0.0,0.0,0.0,0.0,0.0,0.0,0.0,0.0,0.0,0.0,0.0,0.0,0.0,0.0,0.0,0.0,0.0,0.0,0.0,0.0,0.0,0.0,0.0,0.0,0.0,0.0,0.0,0.0,0.0,0.0,0.0,0.0,0.0,0.0,0.0,0.0,0.0,0.0,0.0,0.0,0.0,0.0,0.0,0.0,0.0,0.0,0.0,0.0,0.0,0.0,-0.3482,-1.0871,-1.0648,-1.0422,-1.1512,-1.1667,-1.1688,-1.1716,-1.1743,-1.1764,-1.1824,-1.1694,-1.1726,-1.2107,-1.2212,-1.208,-1.2091,-1.214,-1.2172,-1.181,-1.0479,-1.0507,-0.9556,-0.5342,-0.2288,-0.2671,-0.3052,-0.3054,-0.3055,-0.3052,-0.3244,-0.3626,-0.517,-0.7516,-1.0122,-1.3015,-1.4699,-1.581,-1.6049,-1.6056,-1.6056,-1.6076,-1.6069,-1.6083,-1.6083,-1.6083,-1.6083,-1.6083,-1.6083,-1.6083,-1.6083,-1.6083,-1.6083,-1.6083,-1.6083,-1.6083,-1.6083,-1.6083,-1.6083,-1.6083,-1.6083,0.0,0.0,0.0,0.0,0.0,0.0,0.0,0.0,0.0,0.0,0.0,0.0,0.0,0.0,0.0,0.0,0.0,0.0,0.0,0.0,0.0,0.0,0.0,0.0,0.0,0.0,0.0,0.0,0.0,0.0,0.0,0.0,0.0,0.0,0.0,0.0,0.0,0.0,0.0,0.0,0.0,0.0,0.0,0.0,0.0,0.0,0.0,0.0,0.0,0.0,0.0,0.0,0.0,0.0,0.0,-1.005,-1.1536,-1.1726,-1.1889,-1.1862,-1.1846,-1.1862,-1.19,-1.1933,-1.1933,-1.1807,-1.1844,-1.2223,-1.2284,-1.2156,-1.2172,-1.2172,-1.2183,-1.0848,-0.8944,-0.8778,-0.8039,-0.4215,-0.211,-0.2688,-0.307,-0.3061,-0.3059,-0.3054,-0.3244,-0.3438,-0.5186,-0.7749,-1.0783,-1.3917,-1.4998,-1.6083,-1.6083,-1.6083,-1.6083,-1.6083,-1.6083,-1.6083,-1.6083,-1.6083,-1.6083,-1.6083,-1.6083,-1.6083,-1.6083,-1.6083,-1.6083,-1.6083,-1.6083,-1.6083,-1.6083,-1.6083,-1.6083,-1.6083,-1.6083,0.0,0.0,0.0,0.0,0.0,0.0,0.0,0.0,0.0,0.0,0.0,0.0,0.0,0.0,0.0,0.0,0.0,0.0,0.0,0.0,0.0,0.0,0.0,0.0,0.0,0.0,0.0,0.0,0.0,0.0,0.0,0.0,0.0,0.0,0.0,0.0,0.0,0.0,0.0,0.0,0.0,0.0,0.0,0.0,0.0,0.0,0.0,0.0,0.0,0.0,0.0,0.0,0.0,0.0,0.0,-0.8068,-1.0904,-1.1299,-1.1876,-1.1976,-1.1906,-1.1976,-1.2053,-1.2096,-1.2085,-1.2129,-1.2156,-1.214,-1.2161,-1.2167,-1.2172,-1.2178,-1.2183,-1.1457,-0.8988,-0.6331,-0.5582,-0.367,-0.2127,-0.2901,-0.3091,-0.3084,-0.3084,-0.3084,-0.3071,-0.3266,-0.658,-0.9176,-1.2194,-1.4934,-1.5414,-1.6083,-1.6083,-1.6083,-1.6083,-1.6083,-1.6083,-1.6083,-1.6083,-1.6083,-1.6083,-1.6083,-1.6083,-1.6083,-1.6083,-1.6083,-1.6083,-1.6083,-1.6083,-1.6083,-1.6083,-1.6083,-1.6083,-1.6083,-1.6083,0.0,0.0,0.0,0.0,0.0,0.0,0.0,0.0,0.0,0.0,0.0,0.0,0.0,0.0,0.0,0.0,0.0,0.0,0.0,0.0,0.0,0.0,0.0,0.0,0.0,0.0,0.0,0.0,0.0,0.0,0.0,0.0,0.0,0.0,0.0,0.0,0.0,0.0,0.0,0.0,0.0,0.0,0.0,0.0,0.0,0.0,0.0,0.0,0.0,0.0,0.0,0.0,0.0,0.0,0.0,-0.5488,-0.7568,-0.9865,-1.1989,-1.2096,-1.2069,-1.2085,-1.2145,-1.2172,-1.2172,-1.2172,-1.2172,-1.2172,-1.2172,-1.2172,-1.2178,-1.2178,-1.2199,-1.1884,-0.9815,-0.6177,-0.3876,-0.3114,-0.2336,-0.331,-0.331,-0.3114,-0.3116,-0.3118,-0.3104,-0.348,-0.7021,-1.062,-1.3268,-1.5348,-1.583,-1.6083,-1.6083,-1.6083,-1.6083,-1.6083,-1.6083,-1.6083,-1.6083,-1.6083,-1.6083,-1.6083,-1.6083,-1.6083,-1.6083,-1.6083,-1.6083,-1.6083,-1.6083,-1.6083,-1.6083,-1.6083,-1.6083,-1.6083,-1.6083,0.0,0.0,0.0,0.0,0.0,0.0,0.0,0.0,0.0,0.0,0.0,0.0,0.0,0.0,0.0,0.0,0.0,0.0,0.0,0.0,0.0,0.0,0.0,0.0,0.0,0.0,0.0,0.0,0.0,0.0,0.0,0.0,0.0,0.0,0.0,0.0,0.0,0.0,0.0,0.0,0.0,0.0,0.0,0.0,0.0,0.0,0.0,0.0,0.0,0.0,0.0,0.0,0.0,0.0,0.0,-0.2285,-0.4565,-0.7992,-1.0858,-1.2183,-1.2172,-1.2161,-1.2167,-1.2172,-1.2172,-1.2172,-1.2172,-1.2172,-1.2172,-1.2183,-1.221,-1.2243,-1.2303,-1.2192,-1.2235,-0.9342,-0.6449,-0.4904,-0.4117,-0.3917,-0.3521,-0.312,-0.3726,-0.3926,-0.5301,-0.6061,-0.8825,-1.1849,-1.3881,-1.5566,-1.6049,-1.6083,-1.6083,-1.6083,-1.6083,-1.6083,-1.6083,-1.6083,-1.6083,-1.6083,-1.6083,-1.6083,-1.6083,-1.6083,-1.6083,-1.6083,-1.6083,-1.6083,-1.6083,-1.6083,-1.6083,-1.6083,-1.6083,-1.6083,-1.6083,0.0,0.0,0.0,0.0,0.0,0.0,0.0,0.0,0.0,0.0,0.0,0.0,0.0,0.0,0.0,0.0,0.0,0.0,0.0,0.0,0.0,0.0,0.0,0.0,0.0,0.0,0.0,0.0,0.0,0.0,0.0,0.0,0.0,0.0,0.0,0.0,0.0,0.0,0.0,0.0,0.0,0.0,0.0,0.0,0.0,0.0,0.0,0.0,0.0,0.0,0.0,0.0,0.0,0.0,0.0,-0.5156,-0.5522,-0.8185,-1.1641,-1.1999,-1.2188,-1.2178,-1.2172,-1.2172,-1.2172,-1.2178,-1.2199,-1.2221,-1.2221,-1.2265,-1.2308,-1.2357,-1.2428,-1.2493,-1.2536,-1.2194,-0.9276,-0.6533,-0.554,-0.4739,-0.3717,-0.3308,-0.4122,-0.5136,-0.7333,-0.9115,-1.1289,-1.3296,-1.4934,-1.5585,-1.6069,-1.6083,-1.6083,-1.6083,-1.6083,-1.6083,-1.6083,-1.6083,-1.6083,-1.6083,-1.6083,-1.6083,-1.6083,-1.6083,-1.6083,-1.6083,-1.6083,-1.6083,-1.6083,-1.6083,-1.6083,-1.6083,-1.6083,-1.6083,-1.6083,0.0,0.0,0.0,0.0,0.0,0.0,0.0,0.0,0.0,0.0,0.0,0.0,0.0,0.0,0.0,0.0,0.0,0.0,0.0,0.0,0.0,0.0,0.0,0.0,0.0,0.0,0.0,0.0,0.0,0.0,0.0,0.0,0.0,0.0,0.0,0.0,0.0,0.0,0.0,0.0,0.0,0.0,0.0,0.0,0.0,0.0,0.0,0.0,0.0,0.0,0.0,0.0,0.0,0.0,0.0,-0.5156,-0.6288,-0.7985,-1.1062,-1.2227,-1.2248,-1.2216,-1.2194,-1.2199,-1.2178,-1.2254,-1.2281,-1.2314,-1.2352,-1.2411,-1.2466,-1.2477,-1.2531,-1.2613,-1.2672,-1.3133,-1.1381,-0.8595,-0.6797,-0.5978,-0.5147,-0.4949,-0.5374,-0.7162,-0.9368,-1.078,-1.2765,-1.3976,-1.5414,-1.583,-1.6083,-1.6083,-1.6083,-1.6083,-1.6083,-1.6083,-1.6083,-1.6083,-1.6083,-1.6083,-1.6083,-1.6083,-1.6083,-1.6083,-1.6083,-1.6083,-1.6083,-1.6083,-1.6083,-1.6083,-1.6083,-1.6083,-1.6083,-1.6083,-1.6083,0.0,0.0,0.0,0.0,0.0,0.0,0.0,0.0,0.0,0.0,0.0,0.0,0.0,0.0,0.0,0.0,0.0,0.0,0.0,0.0,0.0,0.0,0.0,0.0,0.0,0.0,0.0,0.0,0.0,0.0,0.0,0.0,0.0,0.0,0.0,0.0,0.0,0.0,0.0,0.0,0.0,0.0,0.0,0.0,0.0,0.0,0.0,0.0,0.0,0.0,0.0,0.0,0.0,0.0,0.0,-0.4772,-0.8042,-0.956,-1.1693,-1.2357,-1.2368,-1.2335,-1.2297,-1.2297,-1.2303,-1.2187,-1.2406,-1.2444,-1.2703,-1.2553,-1.2585,-1.2591,-1.264,-1.2721,-1.2974,-1.3239,-1.2841,-1.0032,-0.8421,-0.7598,-0.6373,-0.6398,-0.7224,-0.9436,-1.1634,-1.2846,-1.4059,-1.5068,-1.5877,-1.5877,-1.6083,-1.6083,-1.6083,-1.6083,-1.6083,-1.6083,-1.6083,-1.6083,-1.6083,-1.6083,-1.6083,-1.6083,-1.6083,-1.6083,-1.6083,-1.6083,-1.6083,-1.6083,-1.6083,-1.6083,-1.6083,-1.6083,-1.6083,-1.6083,-1.6083,0.0,0.0,0.0,0.0,0.0,0.0,0.0,0.0,0.0,0.0,0.0,0.0,0.0,0.0,0.0,0.0,0.0,0.0,0.0,0.0,0.0,0.0,0.0,0.0,0.0,0.0,0.0,0.0,0.0,0.0,0.0,0.0,0.0,0.0,0.0,0.0,0.0,0.0,0.0,0.0,0.0,0.0,0.0,0.0,0.0,0.0,0.0,0.0,0.0,0.0,0.0,0.0,0.0,0.0,0.0,-0.5937,-0.9837,-1.1599,-1.2192,-1.2471,-1.2526,-1.2509,-1.2536,-1.2347,-1.232,-1.231,-1.2531,-1.2748,-1.2797,-1.2847,-1.2689,-1.2721,-1.2754,-1.2808,-1.2857,-1.3073,-1.3461,-1.2038,-1.0418,-0.9181,-0.7735,-0.7741,-0.938,-1.1609,-1.2863,-1.4271,-1.5074,-1.5273,-1.5877,-1.6076,-1.6083,-1.6083,-1.6083,-1.6083,-1.6083,-1.6083,-1.6083,-1.6083,-1.6083,-1.6083,-1.6083,-1.6083,-1.6083,-1.6083,-1.6083,-1.6083,-1.6083,-1.6083,-1.6083,-1.6083,-1.6083,-1.6083,-1.6083,-1.6083,-1.6083,0.0,0.0,0.0,0.0,0.0,0.0,0.0,0.0,0.0,0.0,0.0,0.0,0.0,0.0,0.0,0.0,0.0,0.0,0.0,0.0,0.0,0.0,0.0,0.0,0.0,0.0,0.0,0.0,0.0,0.0,0.0,0.0,0.0,0.0,0.0,0.0,0.0,0.0,0.0,0.0,0.0,0.0,0.0,0.0,0.0,0.0,0.0,0.0,0.0,0.0,0.0,0.0,0.0,0.0,-0.1911,-0.6164,-0.9713,-1.2526,-1.2509,-1.2591,-1.2656,-1.2678,-1.2721,-1.2661,-1.2422,-1.2411,-1.2656,-1.2875,-1.2908,-1.2765,-1.2786,-1.2814,-1.283,-1.2857,-1.289,-1.3279,-1.3467,-1.2857,-1.1634,-1.1012,-0.9542,-0.955,-1.1192,-1.241,-1.3667,-1.5273,-1.6083,-1.6083,-1.6083,-1.6083,-1.6083,-1.6083,-1.6083,-1.6083,-1.6083,-1.6083,-1.6083,-1.6083,-1.6083,-1.6083,-1.6083,-1.6083,-1.6083,-1.6083,-1.6083,-1.6083,-1.6083,-1.6083,-1.6083,-1.6083,-1.6083,-1.6083,-1.6083,-1.6083,-1.6083,0.0,0.0,0.0,0.0,0.0,0.0,0.0,0.0,0.0,0.0,0.0,0.0,0.0,0.0,0.0,0.0,0.0,0.0,0.0,0.0,0.0,0.0,0.0,0.0,0.0,0.0,0.0,0.0,0.0,0.0,0.0,0.0,0.0,0.0,0.0,0.0,0.0,0.0,0.0,0.0,0.0,0.0,0.0,0.0,0.0,0.0,0.0,0.0,0.0,0.0,0.0,0.0,0.0,0.0,0.0,-0.6224,-1.021,-1.2226,-1.2629,-1.271,-1.2759,-1.2792,-1.2841,-1.2797,-1.2765,-1.2748,-1.277,-1.2792,-1.2841,-1.2884,-1.2884,-1.289,-1.2884,-1.289,-1.3084,-1.3484,-1.3279,-1.3273,-1.2863,-1.2658,-1.2043,-1.1639,-1.2253,-1.3461,-1.4271,-1.5472,-1.6083,-1.6083,-1.6083,-1.6083,-1.6083,-1.6083,-1.6083,-1.6083,-1.6083,-1.6083,-1.6083,-1.6083,-1.6083,-1.6083,-1.6083,-1.6083,-1.6083,-1.6083,-1.6083,-1.6083,-1.6083,-1.6083,-1.6083,-1.6083,-1.6083,-1.6083,-1.6083,-1.6083,-1.6083,0.0,0.0,0.0,0.0,0.0,0.0,0.0,0.0,0.0,0.0,0.0,0.0,0.0,0.0,0.0,0.0,0.0,0.0,0.0,0.0,0.0,0.0,0.0,0.0,0.0,0.0,0.0,0.0,0.0,0.0,0.0,0.0,0.0,0.0,0.0,0.0,0.0,0.0,0.0,0.0,0.0,0.0,0.0,0.0,0.0,0.0,0.0,0.0,0.0,0.0,0.0,0.0,0.0,0.0,0.0,-0.6292,-1.0514,-1.2139,-1.2748,-1.2808,-1.2846,-1.2873,-1.289,-1.2868,-1.2841,-1.283,-1.2841,-1.2846,-1.2884,-1.289,-1.289,-1.289,-1.289,-1.309,-1.309,-1.3684,-1.3878,-1.4077,-1.4271,-1.3866,-1.3661,-1.3461,-1.3661,-1.4669,-1.5074,-1.5877,-1.6083,-1.6083,-1.6083,-1.6083,-1.6083,-1.6083,-1.6083,-1.6083,-1.6083,-1.6083,-1.6083,-1.6083,-1.6083,-1.6083,-1.6083,-1.6083,-1.6083,-1.6083,-1.6083,-1.6083,-1.6083,-1.6083,-1.6083,-1.6083,-1.6083,-1.6083,-1.6083,-1.6083,-1.6083,0.0,0.0,0.0,0.0,0.0,0.0,0.0,0.0,0.0,0.0,0.0,0.0,0.0,0.0,0.0,0.0,0.0,0.0,0.0,0.0,0.0,0.0,0.0,0.0,0.0,0.0,0.0,0.0,0.0,0.0,0.0,0.0,0.0,0.0,0.0,0.0,0.0,0.0,0.0,0.0,0.0,0.0,0.0,0.0,0.0,0.0,0.0,0.0,0.0,0.0,0.0,0.0,0.0,0.0,-0.7936,-0.7741,-1.0591,-1.2227,-1.2846,-1.2857,-1.2879,-1.289,-1.289,-1.289,-1.2884,-1.289,-1.289,-1.289,-1.289,-1.289,-1.289,-1.289,-1.289,-1.309,-1.329,-1.3884,-1.4476,-1.4875,-1.5479,-1.5273,-1.5068,-1.5068,-1.5273,-1.5479,-1.5877,-1.6083,-1.6083,-1.6083,-1.6083,-1.6083,-1.6083,-1.6083,-1.6083,-1.6083,-1.6083,-1.6083,-1.6083,-1.6083,-1.6083,-1.6083,-1.6083,-1.6083,-1.6083,-1.6083,-1.6083,-1.6083,-1.6083,-1.6083,-1.6083,-1.6083,-1.6083,-1.6083,-1.6083,-1.6083,-1.6083,0.0,0.0,0.0,0.0,0.0,0.0,0.0,0.0,0.0,0.0,0.0,0.0,0.0,0.0,0.0,0.0,0.0,0.0,0.0,0.0,0.0,0.0,0.0,0.0,0.0,0.0,0.0,0.0,0.0,0.0,0.0,0.0,0.0,0.0,0.0,0.0,0.0,0.0,0.0,0.0,0.0,0.0,0.0,0.0,0.0,0.0,0.0,0.0,0.0,0.0,0.0,0.0,0.0,0.0,-1.0631,-1.0631,-1.1459,-1.2906,-1.2895,-1.289,-1.289,-1.289,-1.289,-1.289,-1.289,-1.289,-1.289,-1.289,-1.289,-1.289,-1.289,-1.289,-1.289,-1.289,-1.349,-1.3884,-1.4682,-1.5479,-1.5678,-1.5877,-1.5671,-1.5678,-1.5678,-1.5678,-1.6083,-1.6083,-1.6083,-1.6083,-1.6083,-1.6083,-1.6083,-1.6083,-1.6083,-1.6083,-1.6083,-1.6083,-1.6083,-1.6083,-1.6083,-1.6083,-1.6083,-1.6083,-1.6083,-1.6083,-1.6083,-1.6083,-1.6083,-1.6083,-1.6083,-1.6083,-1.6083,-1.6083,-1.6083,-1.6083,-1.6083,0.0,0.0,0.0,0.0,0.0,0.0,0.0,0.0,0.0,0.0,0.0,0.0,0.0,0.0,0.0,0.0,0.0,0.0,0.0,0.0,0.0,0.0,0.0,0.0,0.0,0.0,0.0,0.0,0.0,0.0,0.0,0.0,0.0,0.0,0.0,0.0,0.0,0.0,0.0,0.0,0.0,0.0,0.0,0.0,0.0,0.0,0.0,0.0,0.0,0.0,0.0,0.0,0.0,-0.6829,-1.0681,-1.1703,-1.2289,-1.2901,-1.289,-1.289,-1.289,-1.289,-1.289,-1.289,-1.289,-1.289,-1.289,-1.289,-1.289,-1.289,-1.289,-1.289,-1.289,-1.309,-1.349,-1.4089,-1.4881,-1.5678,-1.5884,-1.6083,-1.6083,-1.6083,-1.6083,-1.6083,-1.6083,-1.6083,-1.6083,-1.6083,-1.6083,-1.6083,-1.6083,-1.6083,-1.6083,-1.6083,-1.6083,-1.6083,-1.6083,-1.6083,-1.6083,-1.6083,-1.6083,-1.6083,-1.6083,-1.6083,-1.6083,-1.6083,-1.6083,-1.6083,-1.6083,-1.609,-1.6083,-1.6083,-1.6083,-1.6083,-1.6083,0.0,0.0,0.0,0.0,0.0,0.0,0.0,0.0,0.0,0.0,0.0,0.0,0.0,0.0,0.0,0.0,0.0,0.0,0.0,0.0,0.0,0.0,0.0,0.0,0.0,0.0,0.0,0.0,0.0,0.0,0.0,0.0,0.0,0.0,0.0,0.0,0.0,0.0,0.0,0.0,0.0,0.0,0.0,0.0,0.0,0.0,0.0,0.0,0.0,0.0,0.0,0.0,0.0,-0.5233,-0.9275,-1.2326,-1.2917,-1.2901,-1.289,-1.289,-1.289,-1.289,-1.289,-1.289,-1.289,-1.289,-1.289,-1.289,-1.289,-1.289,-1.289,-1.289,-1.289,-1.329,-1.369,-1.4482,-1.5081,-1.5678,-1.6083,-1.6083,-1.6083,-1.6083,-1.6083,-1.6083,-1.6083,-1.6083,-1.6083,-1.6083,-1.6083,-1.6083,-1.6083,-1.6083,-1.6083,-1.6083,-1.6083,-1.6083,-1.6083,-1.6083,-1.6083,-1.6083,-1.6083,-1.6083,-1.6083,-1.6083,-1.6083,-1.6083,-1.6083,-1.6096,-1.6117,-1.6123,-1.609,-1.6083,-1.6096,-1.611,-1.613]}]]